[[{"header":{"parameterUnit":"m.s-1","parameterCategory":1,"la1":30.6,"la2":29.2853,"lo1":-89.7004,"lo2":-87.6739,"dy":0.0162,"dx":0.0183,"nx":112,"ny":82,"refTime":"2023-09-27T00:00:00:Z","depth":0,"parameterNumber":2,"parameterNumberName":"U-component_of_WINDS"},"data":[0.0,0.0,0.0,0.0,0.0,0.0,0.0,0.0,0.0,0.0,0.0,0.0,0.0,0.0,0.0,0.0,0.0,0.0,0.0,0.0,0.0,0.0,0.0,0.0,0.0,0.0,0.0,0.0,0.0,0.0,0.0,0.0,0.0,0.0,0.0,0.0,0.0,0.0,0.0,0.0,0.0,0.0,0.0,0.0,0.0,0.0,0.0,0.0,0.0,0.0,0.0,0.0,0.0,0.0,0.0,0.0,0.0,0.0,0.0,0.0,0.0,0.0,0.0,0.0,0.0,0.0,0.0,0.0,0.0,0.0,0.0,0.0,0.0,0.0,0.0,0.0,0.0,0.0,0.0,0.0,0.0,0.0,0.0,0.0,0.0,0.0,0.0,0.0,0.0,0.0,2.4485,2.6081,2.7519,2.8541,2.9,2.8931,2.8501,2.7741,0.0,0.0,0.0,0.0,0.0,0.0,0.0,0.0,0.0,0.0,0.0,0.0,0.0,0.0,0.0,0.0,0.0,0.0,0.0,0.0,0.0,0.0,0.0,0.0,0.0,0.0,0.0,0.0,0.0,0.0,0.0,0.0,0.0,0.0,0.0,0.0,0.0,0.0,0.0,0.0,0.0,0.0,0.0,0.0,0.0,0.0,0.0,0.0,0.0,0.0,0.0,0.0,0.0,0.0,0.0,0.0,0.0,0.0,0.0,0.0,0.0,0.0,0.0,0.0,0.0,0.0,0.0,0.0,0.0,0.0,0.0,0.0,0.0,0.0,0.0,0.0,0.0,0.0,0.0,0.0,0.0,0.0,0.0,0.0,0.0,0.0,0.0,0.0,0.0,0.0,0.0,0.0,0.0,0.0,0.0,0.0,0.0,0.0,0.0,0.0,0.0,0.0,0.0,0.0,2.4144,2.6312,2.7241,2.8004,2.869,2.8627,2.8304,2.7741,0.0,0.0,0.0,0.0,0.0,0.0,0.0,0.0,0.0,0.0,0.0,0.0,0.0,0.0,0.0,0.0,0.0,0.0,0.0,0.0,0.0,0.0,0.0,0.0,0.0,0.0,0.0,0.0,0.0,0.0,0.0,0.0,0.0,0.0,0.0,0.0,0.0,0.0,0.0,0.0,0.0,0.0,0.0,0.0,0.0,0.0,0.0,0.0,0.0,0.0,0.0,0.0,0.0,0.0,0.0,0.0,0.0,0.0,0.0,0.0,0.0,0.0,0.0,0.0,0.0,0.0,0.0,0.0,0.0,0.0,0.0,0.0,0.0,0.0,0.0,0.0,0.0,0.0,0.0,0.0,0.0,0.0,0.0,0.0,0.0,0.0,0.0,0.0,0.0,0.0,0.0,0.0,0.0,0.0,0.0,0.0,0.0,0.0,0.0,0.0,0.0,0.0,0.0,2.2435,2.3583,2.4791,2.5691,2.6458,2.7074,2.7344,2.7226,2.6654,2.5215,0.0,0.0,0.0,0.0,0.0,0.0,0.0,0.0,0.0,0.0,0.0,0.0,0.0,0.0,0.0,0.0,0.0,0.0,0.0,0.0,0.0,0.0,0.0,0.0,0.0,0.0,0.0,0.0,0.0,0.0,0.0,0.0,0.0,0.0,0.0,0.0,0.0,0.0,0.0,0.0,0.0,0.0,0.0,0.0,0.0,0.0,0.0,0.0,0.0,0.0,0.0,0.0,0.0,0.0,0.0,0.0,0.0,0.0,0.0,0.0,0.0,0.0,0.0,0.0,0.0,0.0,0.0,0.0,0.0,0.0,0.0,0.0,0.0,0.0,0.0,0.0,0.0,0.0,0.0,0.0,0.0,0.0,0.0,0.0,0.0,0.0,0.0,0.0,0.0,0.0,0.0,0.0,0.0,0.0,0.0,0.0,0.0,0.0,0.0,0.0,0.0,0.0,2.1946,2.2824,2.31,2.4,2.4841,2.5499,2.597,2.6022,2.5574,2.4291,0.0,0.0,0.0,0.0,0.0,0.0,0.0,0.0,0.0,0.0,0.0,0.0,0.0,0.0,0.0,0.0,0.0,0.0,0.0,0.0,0.0,0.0,0.0,0.0,0.0,0.0,0.0,0.0,0.0,0.0,0.0,0.0,0.0,0.0,0.0,0.0,0.0,0.0,0.0,0.0,0.0,0.0,0.0,0.0,0.0,0.0,0.0,0.0,0.0,0.0,0.0,0.0,0.0,0.0,0.0,0.0,0.0,0.0,0.0,0.0,0.0,0.0,0.0,0.0,0.0,0.0,0.0,0.0,0.0,0.0,0.0,0.0,0.0,0.0,0.0,0.0,0.0,0.0,0.0,0.0,0.0,0.0,0.0,0.0,0.0,0.0,0.0,0.0,0.0,0.0,0.0,0.0,0.0,0.0,0.0,0.0,0.0,0.0,0.0,0.0,0.0,0.0,2.0934,2.1721,2.1967,2.2847,2.3802,2.471,2.4985,2.5109,2.5151,2.3649,0.0,0.0,0.0,0.0,0.0,0.0,0.0,0.0,0.0,0.0,0.0,0.0,0.0,0.0,0.0,0.0,0.0,0.0,0.0,0.0,0.0,0.0,0.0,0.0,0.0,0.0,0.0,0.0,0.0,0.0,0.0,0.0,0.0,0.0,0.0,0.0,0.0,0.0,0.0,0.0,0.0,0.0,0.0,0.0,0.0,0.0,0.0,0.0,0.0,0.0,0.0,0.0,0.0,0.0,0.0,0.0,0.0,0.0,0.0,0.0,0.0,0.0,0.0,0.0,0.0,0.0,0.0,0.0,0.0,0.0,0.0,0.0,0.0,0.0,0.0,0.0,0.0,0.0,0.0,0.0,0.0,0.0,0.0,0.0,0.0,0.0,0.0,0.0,0.0,0.0,0.0,0.0,0.0,0.0,0.0,0.0,0.0,0.0,0.0,0.0,0.0,0.0,2.0111,2.0789,2.1245,2.1745,2.2472,2.3487,2.3801,2.3874,2.3736,0.0,0.0,0.0,0.0,0.0,0.0,0.0,0.0,0.0,0.0,0.0,0.0,0.0,0.0,0.0,0.0,0.0,0.0,0.0,0.0,0.0,0.0,0.0,0.0,0.0,0.0,0.0,0.0,0.0,0.0,0.0,0.0,0.0,0.0,0.0,0.0,0.0,0.0,0.0,0.0,0.0,0.0,0.0,0.0,0.0,0.0,0.0,0.0,0.0,0.0,0.0,0.0,0.0,0.0,0.0,0.0,0.0,0.0,0.0,0.0,0.0,0.0,0.0,0.0,0.0,0.0,0.0,0.0,0.0,0.0,0.0,0.0,0.0,0.0,0.0,0.0,0.0,0.0,0.0,0.0,0.0,0.0,0.0,0.0,0.0,0.0,0.0,0.0,0.0,0.0,0.0,0.0,0.0,0.0,0.0,0.0,0.0,0.0,0.0,0.0,0.0,0.0,1.8733,1.933,1.9887,2.0472,2.0755,2.1315,2.2257,2.246,2.251,2.238,0.0,0.0,0.0,0.0,0.0,0.0,0.0,0.0,0.0,0.0,0.0,0.0,0.0,0.0,0.0,0.0,0.0,0.0,0.0,0.0,0.0,0.0,0.0,0.0,0.0,0.0,0.0,0.0,0.0,0.0,0.0,0.0,0.0,0.0,0.0,0.0,0.0,0.0,0.0,0.0,0.0,0.0,0.0,0.0,0.0,0.0,0.0,0.0,0.0,0.0,0.0,0.0,0.0,0.0,0.0,0.0,0.0,0.0,0.0,0.0,0.0,0.0,0.0,0.0,0.0,0.0,0.0,0.0,0.0,0.0,0.0,0.0,0.0,0.0,0.0,0.0,0.0,0.0,0.0,0.0,0.0,0.0,0.0,0.0,0.0,0.0,0.0,0.0,0.0,0.0,0.0,0.0,0.0,0.0,0.0,0.0,0.0,0.0,0.0,0.0,0.0,0.0,1.8174,1.8584,1.9033,1.9642,1.9931,2.0379,2.1034,2.096,2.0994,0.0,0.0,0.0,0.0,0.0,0.0,0.0,0.0,0.0,0.0,0.0,0.0,0.0,0.0,0.0,0.0,0.0,0.0,0.0,0.0,0.0,0.0,0.0,0.0,0.0,0.0,0.0,0.0,0.0,0.0,0.0,0.0,0.0,0.0,0.0,0.0,0.0,0.0,0.0,0.0,0.0,0.0,0.0,0.0,0.0,0.0,0.0,0.0,0.0,0.0,0.0,0.0,0.0,0.0,0.0,0.0,0.0,0.0,0.0,0.0,0.0,0.0,0.0,0.0,0.0,0.0,0.0,0.0,0.0,0.0,0.0,0.0,0.0,0.0,0.0,0.0,0.0,0.0,0.0,0.0,0.0,0.0,0.0,0.0,0.0,0.0,0.0,0.0,0.0,0.0,0.0,0.0,0.0,0.0,0.0,0.0,0.0,0.0,0.0,0.0,0.0,0.0,0.0,1.7867,1.8438,1.8945,1.9314,1.9641,2.0054,2.0628,2.0419,2.0325,2.0492,0.0,0.0,0.0,0.0,0.0,0.0,0.0,0.0,0.0,0.0,0.0,0.0,0.0,0.0,0.0,0.0,0.0,0.0,0.0,0.0,0.0,0.0,0.0,0.0,0.0,0.0,0.0,0.0,0.0,0.0,0.0,0.0,0.0,0.0,0.0,0.0,0.0,0.0,0.0,0.0,0.0,0.0,0.0,0.0,0.0,0.0,0.0,0.0,0.0,0.0,0.0,0.0,0.0,0.0,0.0,0.0,0.0,0.0,0.0,0.0,0.0,0.0,0.0,0.0,0.0,0.0,0.0,0.0,0.0,0.0,0.0,0.0,0.0,0.0,0.0,0.0,0.0,0.0,0.0,0.0,0.0,0.0,0.0,0.0,0.0,0.0,0.0,0.0,0.0,0.0,0.0,0.0,0.0,0.0,0.0,0.0,0.0,0.0,0.0,0.0,0.0,0.0,1.7721,1.8277,1.8718,1.9013,1.9324,1.9627,1.9816,1.9644,1.9499,1.9411,0.0,0.0,0.0,0.0,0.0,0.0,0.0,0.0,0.0,0.0,0.0,0.0,0.0,0.0,0.0,0.0,0.0,0.0,0.0,0.0,0.0,0.0,0.0,0.0,0.0,0.0,0.0,0.0,0.0,0.0,0.0,0.0,0.0,0.0,0.0,0.0,0.0,0.0,0.0,0.0,0.0,0.0,0.0,0.0,0.0,0.0,0.0,0.0,0.0,0.0,0.0,0.0,0.0,0.0,0.0,0.0,0.0,0.0,0.0,0.0,0.0,0.0,0.0,0.0,0.0,0.0,0.0,0.0,0.0,0.0,0.0,0.0,0.0,0.0,0.0,0.0,0.0,0.0,0.0,0.0,0.0,0.0,0.0,0.0,0.0,0.0,0.0,0.0,0.0,0.0,0.0,0.0,0.0,0.0,0.0,0.0,0.0,0.0,0.0,0.0,0.0,0.0,1.7624,1.8057,1.8364,1.8672,1.9019,1.9093,1.8774,1.869,1.8527,1.818,0.0,0.0,0.0,0.0,0.0,0.0,0.0,0.0,0.0,0.0,0.0,0.0,0.0,0.0,0.0,0.0,0.0,0.0,0.0,0.0,0.0,0.0,0.0,0.0,0.0,0.0,0.0,0.0,0.0,0.0,0.0,0.0,0.0,0.0,0.0,0.0,0.0,0.0,0.0,0.0,0.0,0.0,0.0,0.0,0.0,0.0,0.0,0.0,0.0,0.0,0.0,0.0,0.0,0.0,0.0,0.0,0.0,0.0,0.0,0.0,1.1344,1.1196,0.0,0.0,0.0,0.0,0.0,0.0,0.0,0.0,0.0,0.0,0.0,0.0,0.0,0.0,0.0,0.0,0.0,0.0,0.0,0.0,0.0,0.0,0.0,0.0,0.0,0.0,0.0,0.0,0.0,0.0,0.0,0.0,0.0,0.0,0.0,0.0,0.0,0.0,0.0,0.0,1.7346,1.7697,1.7916,1.8013,1.8321,1.8482,1.8408,1.7978,1.7751,1.7871,1.7459,0.0,0.0,0.0,0.0,0.0,0.0,0.0,0.0,0.0,0.0,0.0,0.0,0.0,0.0,0.0,0.0,0.0,0.0,0.0,0.0,0.0,0.0,0.0,0.0,0.0,0.0,0.0,0.0,0.0,0.0,0.0,0.0,0.0,0.0,0.0,0.0,0.0,0.0,0.0,0.0,0.0,0.0,0.0,0.0,0.0,0.0,0.0,0.0,0.0,0.0,0.0,0.0,0.0,0.0,0.0,0.0,0.0,0.0,0.0,1.1524,1.1633,0.0,0.0,0.0,0.0,0.0,0.0,0.0,0.0,0.0,0.0,0.0,0.0,0.0,0.0,0.0,0.0,0.0,0.0,0.0,0.0,0.0,0.0,0.0,0.0,0.0,0.0,0.0,0.0,0.0,0.0,0.0,0.0,0.0,0.0,0.0,0.0,0.0,0.0,0.0,0.0,1.7273,1.7594,1.7736,1.763,1.792,1.8001,1.7744,1.744,1.7246,1.7208,1.6956,0.0,0.0,0.0,0.0,0.0,0.0,0.0,0.0,0.0,0.0,0.0,0.0,0.0,0.0,0.0,0.0,0.0,0.0,0.0,0.0,0.0,0.0,0.0,0.0,0.0,0.0,0.0,0.0,0.0,0.0,0.0,0.0,0.0,0.0,0.0,0.0,0.0,0.0,0.0,0.0,0.0,0.0,0.0,0.0,0.0,0.0,0.0,0.0,0.0,0.0,0.0,0.0,0.0,0.7901,0.8577,0.8822,0.9617,1.0116,1.0415,1.1458,1.2052,1.2266,1.1851,0.0,0.0,0.0,0.0,0.0,0.0,0.0,0.0,0.0,0.0,0.0,0.0,0.0,0.0,0.0,0.0,0.0,0.0,0.0,0.0,0.0,0.0,1.5826,1.7452,1.809,1.835,1.8252,0.0,0.0,0.0,0.0,0.0,0.0,0.0,0.0,0.0,0.0,0.0,1.7156,1.7417,1.752,1.7294,1.7522,1.7491,1.7043,1.6966,1.6807,1.6555,1.6494,1.6345,0.0,0.0,0.0,0.0,0.0,0.0,0.0,0.0,0.0,0.0,0.0,0.0,0.0,0.0,0.0,0.0,0.0,0.0,0.0,0.0,0.0,0.0,0.0,0.0,0.0,0.0,0.0,0.0,0.0,0.0,0.0,0.0,0.2515,0.1951,0.0,0.0,0.0,0.0,0.0,0.0,0.0,0.0,0.0,0.0,0.0,0.0,0.0,0.3432,0.3813,0.4675,0.5162,0.5276,0.6198,0.6805,0.7149,0.8258,0.9017,0.9563,1.0902,0.0,1.2325,1.2419,0.0,0.0,0.0,0.0,0.0,0.0,0.0,0.0,0.0,0.0,0.0,0.0,0.0,0.0,0.0,0.0,0.0,0.0,0.0,0.0,0.0,0.0,1.5477,1.6839,1.7691,1.8397,1.8998,1.8765,1.832,1.8031,1.7467,1.7007,0.0,0.0,0.0,0.0,0.0,0.0,1.6692,1.6734,1.6739,1.6715,1.6734,1.6734,1.6668,1.6445,1.6289,1.6272,1.6021,1.5876,1.5849,1.5836,0.0,0.0,0.0,0.0,0.0,0.0,0.0,0.0,0.0,0.0,0.0,0.0,0.0,0.0,0.0,0.0,0.0,0.0,0.0,0.0,0.0,0.0,0.0,0.0,0.0,0.0,0.0,0.0,0.0,0.2295,0.2087,0.1619,0.1459,0.1116,0.0,0.0,0.0,0.0,0.0,0.0,0.0,0.0,0.0,0.264,0.285,0.3157,0.3598,0.4245,0.4541,0.4577,0.5444,0.6029,0.6355,0.7059,0.7747,0.849,0.9888,1.087,1.1536,1.2365,1.2562,1.2345,0.0,0.0,0.0,0.0,1.1833,1.1866,1.2157,1.2254,1.2205,1.1914,0.0,0.0,0.0,0.0,0.0,0.0,0.0,1.18,1.3097,1.4153,1.5239,1.6758,1.7683,1.8423,1.9102,1.8969,1.8629,1.8346,1.7672,1.7113,1.7062,1.667,0.0,0.0,0.0,1.6612,1.6612,1.6612,1.6541,1.6376,1.6376,1.6305,1.6163,1.6045,1.5974,1.5974,1.5855,1.5808,1.5808,1.5808,1.5808,0.0,0.0,0.0,0.0,0.0,0.0,0.0,0.0,0.0,0.0,0.0,0.0,0.0,0.0,0.0,0.0,0.0,0.0,0.0,0.0,0.0,0.0,0.0,0.0,0.0,0.0,0.0,0.0,0.2042,0.1829,0.1495,0.1296,0.0942,0.0,0.0,0.0,0.0,0.0,0.0,0.1756,0.2084,0.2365,0.2609,0.2785,0.3032,0.3393,0.3854,0.4101,0.409,0.4758,0.5254,0.5609,0.5952,0.6523,0.7283,0.8846,0.9927,1.064,1.2187,1.2845,1.2852,1.2759,1.2507,1.2224,1.2442,1.2507,1.2532,1.2743,1.28,1.2767,1.2515,1.2224,1.1924,1.1519,0.0,0.0,0.0,0.0,1.1725,1.2987,1.3872,1.4781,1.6271,1.7309,1.8129,1.8818,1.8877,1.8711,1.8542,1.7796,1.7163,1.7018,1.65,0.0,1.6376,1.64,1.64,1.64,1.64,1.6329,1.6116,1.6106,1.6035,1.5832,1.5808,1.5808,1.5808,1.5808,1.5808,1.5808,1.5808,1.5808,1.5808,0.0,0.0,0.0,0.0,0.0,0.0,0.0,0.0,0.0,0.0,0.0,0.0,0.0,0.0,0.0,0.0,0.0,0.0,0.0,0.0,0.0,0.0,0.0,0.0,0.0,0.0,0.0,0.0,0.0,0.1641,0.1642,0.0,0.0,0.0,0.0,0.1603,0.1661,0.183,0.2159,0.2318,0.238,0.2412,0.2854,0.3088,0.3132,0.3605,0.3805,0.3722,0.3846,0.4084,0.4508,0.4896,0.5327,0.5913,0.7981,0.9205,0.9921,1.2029,1.2919,1.3006,1.3036,1.2954,1.2783,1.2994,1.3051,1.3084,1.3305,1.3362,1.3305,1.2888,1.2426,1.1997,1.1965,1.1744,0.0,0.0,1.1635,1.1605,1.2153,1.2977,1.3885,1.4892,1.6006,1.7161,1.813,1.8395,1.8436,1.8486,1.7796,1.7112,1.6779,0.0,1.5832,1.5832,1.5855,1.5855,1.5855,1.5855,1.5832,1.5832,1.5832,1.5808,1.5808,1.5808,1.5808,1.5808,1.5808,1.5808,1.5808,1.5808,1.5808,1.5808,1.5808,0.0,0.0,0.0,0.0,0.0,0.0,0.0,0.0,0.0,0.0,0.0,0.0,0.0,0.0,0.0,0.0,0.0,0.0,0.0,0.0,0.0,0.0,0.0,0.0,0.0,0.0,0.0,0.0,0.1752,0.1748,0.0,0.1282,0.1428,0.1629,0.1815,0.2021,0.2235,0.2387,0.2495,0.2539,0.2511,0.2709,0.276,0.2781,0.2952,0.2981,0.2946,0.3233,0.3587,0.4044,0.4437,0.4826,0.5335,0.69,0.8092,0.9094,1.1077,1.2473,1.3387,1.3533,1.3506,1.3342,1.3547,1.3547,1.3439,1.3652,1.3598,1.3345,1.2921,1.2597,1.2409,1.2409,1.2207,1.2004,1.1955,1.189,1.1918,1.235,1.3022,1.3809,1.4672,1.574,1.6816,1.7769,1.789,1.7971,1.8419,1.7943,1.7301,1.6794,1.638,1.6046,1.5835,1.5808,1.5808,1.5808,1.5808,1.5808,1.5808,1.5808,1.5808,1.5808,1.5808,1.5808,1.5808,1.5808,1.5808,1.5808,1.5808,1.5808,1.5808,1.5808,1.5808,0.0,0.0,0.0,0.0,0.0,0.0,0.0,0.0,0.0,0.0,0.0,0.0,0.0,0.0,0.0,0.0,0.0,0.0,0.0,0.0,0.0,0.0,0.0,0.0,0.0,0.2144,0.2182,0.2021,0.2033,0.1975,0.1749,0.1953,0.2101,0.2144,0.2356,0.2492,0.2512,0.2562,0.2589,0.2589,0.2607,0.2608,0.2589,0.262,0.2559,0.253,0.2922,0.3349,0.3807,0.4201,0.4623,0.5031,0.6315,0.7504,0.8659,1.0498,1.2102,1.3429,1.3754,1.3831,1.3706,1.3855,1.3831,1.3706,1.379,1.3579,1.3238,1.3003,1.28,1.2653,1.2653,1.2532,1.2369,1.2247,1.2188,1.2213,1.2499,1.3092,1.3798,1.443,1.548,1.6549,1.7494,1.7592,1.77,1.838,1.7943,1.7341,1.6953,1.6645,1.6353,1.6128,1.6021,1.5979,1.5979,1.5861,1.5808,1.5808,1.5808,1.5808,1.5808,1.5808,1.5808,1.5808,1.5808,1.5808,1.5808,1.5808,1.5808,1.5808,1.5808,1.5808,1.5808,0.0,0.0,0.0,0.0,0.0,0.0,0.0,0.0,0.0,0.0,0.0,0.0,0.0,0.0,0.0,0.0,0.0,0.0,0.0,0.0,0.0,0.0,0.0,0.2114,0.2208,0.2323,0.2383,0.2481,0.253,0.2602,0.2604,0.2615,0.2604,0.2605,0.2604,0.2604,0.2591,0.2607,0.2607,0.2606,0.2605,0.2605,0.2615,0.2626,0.2639,0.3035,0.3454,0.3846,0.4238,0.4603,0.4976,0.6239,0.7447,0.866,1.0448,1.1903,1.3049,1.3646,1.3904,1.3904,1.3904,1.3896,1.3872,1.3658,1.3366,1.3092,1.3084,1.297,1.2807,1.2807,1.271,1.2604,1.2596,1.2565,1.2499,1.2521,1.3116,1.3813,1.4142,1.5175,1.6378,1.7303,1.7526,1.77,1.838,1.7796,1.7206,1.7206,1.6926,1.67,1.67,1.6471,0.0,1.6284,1.6005,1.5808,1.5808,1.5808,1.5808,1.5808,1.5808,1.5808,1.5808,1.5808,1.5808,1.5808,1.5808,1.5808,1.5808,1.5808,1.5808,1.5808,0.0,0.0,0.0,0.0,0.0,0.0,0.0,0.0,0.0,0.0,0.0,0.0,0.0,0.0,0.0,0.0,0.0,0.0,0.0,0.0,0.0,0.2426,0.2625,0.2276,0.235,0.2462,0.2542,0.2547,0.259,0.2684,0.2669,0.2668,0.2656,0.268,0.2668,0.2668,0.2675,0.268,0.268,0.2949,0.3089,0.3023,0.3311,0.3472,0.3473,0.3867,0.4136,0.4238,0.4592,0.499,0.5394,0.6256,0.7427,0.8854,1.0522,1.1842,1.2928,1.3634,1.3904,1.3904,1.3904,1.3823,1.3658,1.3506,1.3295,1.3076,1.2913,1.284,1.2807,1.2807,1.2767,1.2735,1.2637,1.2656,1.273,1.2842,1.3441,1.4182,1.4729,1.565,1.6655,1.7584,1.7628,1.77,1.838,1.7956,1.7421,1.7233,1.6926,1.6633,1.6444,1.6139,1.5952,1.5952,1.5861,1.5808,1.5808,1.5808,1.5808,1.5808,1.5808,1.5808,1.5808,1.5808,1.5808,1.5808,1.5808,1.5808,1.5808,1.5808,1.5808,0.0,0.0,0.0,0.0,0.0,0.0,0.0,0.0,0.0,0.0,0.0,0.0,0.0,0.0,0.0,0.0,0.0,0.0,0.0,0.0,0.0,0.0,0.2919,0.3211,0.3018,0.3024,0.3107,0.3185,0.3198,0.3246,0.3288,0.3287,0.3287,0.3293,0.3273,0.3254,0.3239,0.3237,0.3237,0.3237,0.3438,0.352,0.3496,0.3679,0.3794,0.3807,0.4201,0.4476,0.4669,0.5001,0.5458,0.5997,0.6751,0.7887,0.9363,1.079,1.2006,1.3075,0.0,0.0,0.0,0.0,1.365,1.3506,1.3319,1.3133,1.297,1.284,1.2807,1.2807,1.2807,1.2906,1.3046,1.2971,1.3172,1.3474,1.3669,1.4357,1.5105,1.5591,1.6408,1.7261,1.7964,1.7884,1.7867,1.8407,1.7996,0.0,1.7381,1.7207,1.6993,1.6712,1.6393,1.6152,1.6032,1.5888,1.5848,1.5981,1.6019,1.6019,1.6019,1.6019,0.0,0.0,0.0,1.5808,1.5808,1.5808,0.0,0.0,0.0,1.6048,1.6168,1.6168,0.0,0.0,1.6072,1.6166,0.0,0.0,0.0,0.0,0.0,0.0,0.0,0.0,0.0,0.0,0.0,0.0,0.0,0.0,0.0,0.0,0.3497,0.3837,0.3969,0.4039,0.4058,0.4016,0.4052,0.4103,0.4103,0.4097,0.4103,0.4107,0.4099,0.4079,0.3996,0.3994,0.0,0.0,0.0,0.399,0.3986,0.3938,0.397,0.4003,0.4358,0.4787,0.5215,0.5578,0.6163,0.6962,0.7695,0.8815,1.0245,1.1309,1.2373,1.3396,1.3753,1.3904,1.388,1.3698,1.3547,1.3378,1.3215,0.0,0.0,1.2807,1.2807,1.2807,1.284,1.3137,1.3457,1.3506,1.3947,1.4495,1.4747,1.55,1.626,1.6537,1.7291,1.8052,1.8386,1.8223,1.8143,1.8435,1.8023,1.7648,1.7622,1.7582,1.7474,1.7246,1.6926,1.6607,1.6377,1.6086,1.6032,1.6324,1.6351,0.0,1.6351,1.6351,1.6217,1.5875,1.5861,1.5875,1.5901,1.5901,1.6035,1.6337,1.6351,1.6446,1.67,1.67,1.6727,1.6754,1.6484,1.6473,0.0,0.0,0.0,0.0,0.0,0.0,0.0,0.0,0.0,0.0,0.0,0.0,0.0,0.0,0.0,0.353,0.4048,0.4438,0.452,0.486,0.4851,0.4107,0.407,0.4103,0.4103,0.4111,0.4113,0.4103,0.407,0.4002,0.3994,0.3994,0.3994,0.3994,0.4316,0.4431,0.439,0.4691,0.4992,0.5338,0.5416,0.0,0.6548,0.6891,0.7684,0.8835,0.9559,1.0574,1.173,1.2422,1.3169,1.3797,1.3868,1.3904,1.3896,1.3863,1.3652,1.3402,1.3362,1.3108,1.2807,1.2807,1.2807,1.2873,1.3202,1.3523,0.0,1.4207,1.4677,1.5194,1.5565,1.6245,1.6909,1.7244,1.783,1.8386,1.8735,1.855,1.8364,1.8475,1.8196,1.7849,1.7648,1.7408,1.7259,1.7206,1.6926,1.6687,1.6633,1.6567,1.6553,1.662,1.662,1.662,1.662,1.662,1.65,1.623,1.6217,1.6286,1.6526,1.654,1.6567,1.662,1.662,1.6647,1.67,1.67,1.6834,1.7112,1.6754,1.6805,0.0,0.0,0.0,0.0,0.0,0.0,0.0,0.0,0.0,0.0,0.0,0.3137,0.3445,0.0,0.3996,0.413,0.465,0.5023,0.508,0.5285,0.5248,0.4754,0.4734,0.475,0.475,0.475,0.475,0.475,0.4724,0.471,0.471,0.471,0.471,0.471,0.5073,0.5275,0.5245,0.5799,0.6168,0.6368,0.6723,0.733,0.8145,0.8505,0.9333,1.0547,1.102,1.1786,1.274,1.3367,1.3797,1.4034,1.3937,1.3904,1.3888,1.3807,1.3604,1.3394,1.3262,1.3059,1.2807,1.2807,1.2939,1.3169,1.3523,1.4104,1.473,1.5155,1.5739,1.6351,1.6692,1.7261,1.7789,1.8123,1.8561,1.8952,1.9127,1.8889,1.8627,1.8516,1.8223,1.7916,1.7662,1.7488,1.7341,1.7219,1.7046,1.6899,1.6727,1.67,1.6767,1.6939,1.6953,1.6953,1.6953,1.6794,1.6647,1.65,1.6486,1.6553,1.67,1.67,1.678,1.6953,1.6953,1.702,1.7141,1.7141,1.7301,1.7595,1.7422,1.7368,0.0,0.0,0.0,0.0,0.0,0.0,0.0,0.3125,0.3458,0.3544,0.3619,0.3724,0.3946,0.4319,0.4613,0.477,0.5138,0.5478,0.5528,0.5533,0.5517,0.5425,0.5398,0.5384,0.5384,0.5384,0.5384,0.5384,0.5468,0.5552,0.5552,0.5678,0.5804,0.5804,0.6206,0.646,0.6485,0.7055,0.7417,0.7676,0.8278,0.9051,0.9924,1.029,1.1077,1.2121,1.2484,1.3013,1.3617,1.4114,1.4274,1.4164,1.4018,1.3937,1.3888,1.3706,1.3579,1.3435,1.3254,1.3093,1.2955,1.2955,1.326,1.3663,1.4071,1.4847,1.5726,1.6269,1.6942,1.7584,1.7907,1.8341,1.8727,1.9021,1.9275,1.9481,1.9481,1.9212,1.889,1.8637,1.8356,1.8089,1.7809,1.7756,1.7662,1.734,1.7286,1.7167,1.6901,1.6874,1.6993,1.7259,1.7286,1.7286,1.7286,1.6993,1.682,1.6874,1.682,1.682,1.6874,1.6874,1.6994,1.7286,1.7286,1.7367,1.7608,1.7608,1.7716,1.7929,1.7929,1.7862,0.1896,0.2181,0.2517,0.2593,0.2968,0.3311,0.0,0.3508,0.3712,0.4129,0.4271,0.4437,0.496,0.5121,0.5248,0.538,0.5499,0.5586,0.5591,0.5594,0.5591,0.5583,0.5489,0.5384,0.5384,0.5384,0.5384,0.5384,0.5801,0.6011,0.6011,0.6766,0.7185,0.7185,0.7634,0.8007,0.8291,0.8393,0.8987,1.0099,1.0209,1.0787,1.182,1.2279,1.283,1.3515,1.4337,1.4624,1.4563,1.4622,1.4464,1.4217,1.4192,1.405,1.3896,1.388,1.3731,1.3577,1.3552,1.3531,1.3503,1.3503,1.3859,1.4408,1.5052,1.5759,1.6592,1.7664,1.8234,1.8608,1.9012,1.9368,1.9633,1.9694,1.9737,1.976,1.976,1.9548,1.9254,1.8931,1.8823,1.8703,1.8437,1.8384,1.8224,1.7648,1.7568,1.7541,1.7515,1.7515,1.7502,1.7555,1.7568,1.7568,1.7568,1.7287,1.7259,1.7475,1.7274,1.7247,1.7501,1.7515,1.7528,1.7555,1.7568,1.7582,1.7608,1.7608,1.7622,1.7635,1.7635,1.7929,0.2247,0.268,0.306,0.3098,0.3509,0.3935,0.3955,0.4214,0.4516,0.4717,0.4839,0.5016,0.5289,0.536,0.5417,0.5509,0.5813,0.6039,0.6001,0.6504,0.6879,0.6879,0.7044,0.6794,0.5905,0.6284,0.6603,0.656,0.7017,0.7349,0.76,0.8071,0.8437,0.8686,0.946,0.9902,0.9923,1.0683,1.1247,1.1688,1.2132,1.2709,1.3403,1.3847,1.4285,1.4774,1.5128,1.5179,1.497,1.4903,1.4708,1.4473,1.4367,1.4278,1.4188,1.3977,1.3755,1.3644,1.3881,1.4018,1.4179,1.4435,1.4968,1.561,1.6167,1.699,1.785,1.8514,1.9141,1.9599,1.9781,1.9933,2.0028,2.0028,2.0026,1.997,1.984,1.9706,1.9479,1.8983,1.889,1.8796,1.8544,1.849,1.8397,1.8143,1.8103,1.8103,1.8103,1.8103,1.8103,1.8103,1.7956,1.7822,1.7822,1.7595,1.7474,1.7595,1.7488,1.7488,1.7608,1.7608,1.7608,1.7608,1.7608,1.7675,1.7822,1.7822,1.7943,1.8116,1.829,1.8504,0.2689,0.3164,0.3571,0.3623,0.4082,0.4515,0.453,0.4847,0.5161,0.5161,0.5245,0.5338,0.5398,0.5586,0.5725,0.5758,0.6382,0.689,0.703,0.7762,0.8316,0.8449,0.8895,0.8796,0.7628,0.7777,0.7994,0.8057,0.8666,0.9131,0.9394,0.9918,1.0352,1.0614,1.1464,1.1941,1.1937,1.2765,1.3272,1.3377,1.3918,1.434,1.4737,1.4978,1.5233,1.5512,1.5512,1.5439,1.5262,1.5114,1.4935,1.4757,1.469,1.4621,1.4584,1.4583,1.4294,1.3951,1.4288,1.4701,1.5099,1.5552,1.6305,1.7089,1.7544,1.8337,1.9201,1.9527,2.0005,2.0425,2.044,2.0456,2.0437,2.0437,2.0384,2.0264,2.0094,1.992,1.9679,1.9223,1.9105,1.8985,1.8771,1.8759,1.8759,1.8759,1.8759,1.8705,1.8517,1.849,1.849,1.849,1.8276,1.8143,1.8143,1.7889,1.7716,1.7716,1.7622,1.7608,1.7608,1.7662,1.7716,1.7716,1.7796,1.7943,1.8143,1.8143,1.8249,1.849,1.8704,1.8823,0.3254,0.3634,0.4044,0.4213,0.4617,0.4991,0.505,0.5199,0.5289,0.5289,0.5338,0.5401,0.5503,0.5908,0.6295,0.6468,0.7359,0.8258,0.8836,0.923,0.9626,1.0078,1.0833,1.129,1.1128,0.9889,0.9223,0.9692,1.0743,1.1324,1.1117,1.257,1.3324,1.3182,1.3623,1.4016,1.4479,1.4323,1.4707,1.5588,1.541,1.5484,1.5756,1.5553,1.5472,1.5512,1.5512,1.5512,1.5496,1.527,1.5122,1.5012,1.5211,1.5185,1.518,1.5938,1.5547,1.4694,1.4909,1.5562,1.6412,1.6807,1.7816,1.8865,1.9211,1.9833,2.0513,2.087,2.0942,2.1006,2.1049,2.1064,2.1082,2.1082,2.0869,2.0686,2.0686,2.0201,1.98,1.9773,1.9546,1.9388,1.9374,1.9374,1.9374,1.9374,1.9374,1.916,1.8598,1.849,1.849,1.849,1.8477,1.8477,1.8477,1.8169,1.7982,1.7982,1.7756,1.7608,1.7608,1.7849,1.7982,1.7982,1.8317,1.8464,1.8477,1.8477,1.8477,1.849,1.8504,1.8651,0.3652,0.4117,0.4569,0.4685,0.4936,0.5207,0.5229,0.5294,0.5343,0.5303,0.5341,0.5463,0.5733,0.6238,0.6844,0.754,0.8803,0.9889,1.0456,1.1592,1.236,1.2452,1.3107,1.3572,1.3733,1.2667,1.2024,1.2241,1.2892,1.3421,1.3779,1.436,1.4813,1.5073,1.5521,1.5776,1.5794,1.5894,1.6054,1.6283,1.6219,1.6239,1.63,1.6121,1.604,1.6032,1.5877,1.5796,1.5723,1.5898,1.5858,1.5652,1.6241,1.655,1.6691,1.7085,1.7351,1.7419,1.6959,1.7051,1.7551,1.8489,1.9243,1.9896,2.033,2.08,2.1172,2.1312,2.1483,2.1686,2.1678,2.1697,2.1643,2.1475,2.1355,2.1181,2.0793,2.0552,2.0321,2.009,1.9983,1.9947,1.9947,1.9786,1.9615,1.9428,1.9401,1.9321,1.912,1.9107,1.9107,1.9107,1.8891,1.8784,1.8784,1.8504,1.8343,1.8343,1.8237,1.821,1.821,1.829,1.8343,1.8343,1.8437,1.8584,1.8784,1.8784,1.8784,1.8784,1.8985,1.9025,0.4165,0.4499,0.4842,0.4988,0.5164,0.5314,0.5524,0.5588,0.5632,0.5757,0.5743,0.5857,0.6246,0.696,0.7788,0.8816,1.0294,1.1632,1.2479,1.3643,1.4435,1.4619,1.5104,1.5501,1.5668,1.5196,1.4757,1.4437,1.4939,1.5424,1.5742,1.6032,1.6318,1.6572,1.6841,1.6942,1.6768,1.6856,1.6777,1.6584,1.6584,1.6584,1.6576,1.6389,1.63,1.6292,1.608,1.5934,1.591,1.625,1.6364,1.6411,1.7201,1.772,1.8065,1.8632,1.917,1.9424,1.8529,1.8496,1.8977,1.99,2.0588,2.1059,2.1356,2.1729,2.1984,2.1878,2.1972,2.2111,2.2004,2.1991,2.1943,2.1649,2.1582,2.1448,2.0967,2.0779,2.0646,2.0428,2.0277,2.0197,2.0197,2.005,1.9893,1.9706,1.9586,1.9508,1.9415,1.9401,1.9401,1.9401,1.9199,1.9078,1.9078,1.8811,1.8651,1.8651,1.8544,1.849,1.849,1.8597,1.8651,1.8651,1.8744,1.892,1.9078,1.9078,1.9078,1.9092,1.9308,1.9294,0.4808,0.4925,0.5012,0.5346,0.542,0.5491,0.6067,0.6119,0.6149,0.6598,0.6519,0.6553,0.711,0.8011,0.9073,1.0315,1.1876,1.3381,1.477,1.5272,1.5785,1.6459,1.6804,1.6938,1.6923,1.7339,1.7177,1.616,1.6803,1.7156,1.6962,1.756,1.7851,1.7627,1.7611,1.753,1.7421,1.7218,1.6958,1.6617,1.6609,1.6651,1.66,1.6414,1.6324,1.635,1.6137,1.6056,1.6114,1.639,1.6791,1.7302,1.8133,1.8755,1.9342,2.066,2.1023,2.0708,1.9764,1.9942,2.0651,2.1076,2.1712,2.2349,2.2336,2.2611,2.2853,2.2525,2.2445,2.2378,2.2098,2.2064,2.1997,2.1703,2.1622,2.1542,2.1216,2.0922,2.0753,2.0753,2.0481,2.0237,2.0224,2.0224,2.0224,2.021,1.997,1.972,1.9455,1.9401,1.9401,1.9401,1.9401,1.9401,1.9401,1.9105,1.8916,1.8916,1.8691,1.8558,1.8558,1.8798,1.8916,1.8916,1.9254,1.9401,1.9401,1.9401,1.9401,1.9401,1.9401,1.9401,0.6101,0.6516,0.6795,0.7346,0.7436,0.7459,0.7566,0.7649,0.7665,0.7652,0.7768,0.804,0.8576,0.9278,1.0319,1.201,1.333,1.4632,1.6047,1.668,1.7112,1.7296,1.752,1.7612,1.743,1.7679,1.769,1.7459,1.7584,1.7764,1.7853,1.804,1.8087,1.8038,1.7916,1.7827,1.7778,1.7469,1.7274,1.7177,1.7039,1.6974,1.6966,1.6752,1.6761,1.6952,1.6818,1.704,1.751,1.7923,1.8453,1.9084,2.0245,2.1078,2.1715,2.2443,2.2878,2.3005,2.2509,2.2068,2.1783,2.2439,2.2814,2.2958,2.3029,2.3102,2.314,2.2832,2.2786,2.2773,2.2693,2.2679,2.2599,2.2271,2.2205,2.2124,2.183,2.1569,2.1368,2.1368,2.1096,2.0815,2.0601,2.0561,2.0494,2.0237,2.0144,1.9983,1.9733,1.9535,1.9401,1.9401,1.9401,1.9401,1.9401,1.9321,1.9281,1.9281,1.9214,1.9174,1.9174,1.9241,1.9281,1.9281,1.9361,1.9401,1.9401,1.9401,1.9401,1.9401,1.9401,1.9401,0.7411,0.7875,0.8251,0.8692,0.8727,0.8742,0.8938,0.8911,0.8809,0.8841,0.8841,0.9031,0.9628,1.0413,1.1519,1.3178,1.4506,1.5713,1.6929,1.7467,1.7741,1.7867,1.7965,1.7989,1.7884,1.7973,1.803,1.803,1.803,1.807,1.8168,1.8223,1.8223,1.8223,1.8079,1.7997,1.7916,1.764,1.7461,1.7388,1.7283,1.7282,1.7419,1.7194,1.7391,1.7832,1.7858,1.8151,1.8614,1.9276,1.9846,2.0478,2.1607,2.2391,2.2982,2.3729,2.4163,2.4328,2.4324,2.4014,2.3568,2.3424,2.3409,2.3492,2.3497,2.3527,2.3487,2.3348,2.3295,2.3295,2.3295,2.3201,2.2993,2.2686,2.2512,2.2338,2.2044,2.189,2.1743,2.1609,2.1341,2.1056,2.0895,2.0869,2.0802,2.061,2.0477,2.0374,2.0201,1.9933,1.9746,1.9746,1.9746,1.9746,1.9746,1.9746,1.9746,1.9746,1.9626,1.9589,1.9589,1.9468,1.9401,1.9401,1.9401,1.9401,1.9401,1.9401,1.9446,1.9591,1.9591,1.9649,0.8965,0.9359,0.9779,1.0093,1.0007,0.9994,1.0398,1.0198,0.9962,1.0142,0.9949,0.9959,1.0587,1.1485,1.2637,1.4052,1.5325,1.6451,1.7436,1.7716,1.7957,1.8152,1.8223,1.8223,1.8223,1.8223,1.8223,1.8223,1.8223,1.8223,1.8223,1.8223,1.8223,1.8223,1.8223,1.8103,1.7957,1.7724,1.7599,1.7588,1.7502,1.7662,1.8032,1.7879,1.824,1.8935,1.922,1.9549,1.9906,2.0618,2.1257,2.1882,2.2754,2.336,2.3847,2.4701,2.5073,2.5098,2.5378,2.5518,2.5308,2.4177,2.3888,2.3964,2.3884,2.387,2.3857,2.3817,2.3803,2.3803,2.3803,2.3581,2.3313,2.3081,2.2792,2.2525,2.2271,2.2198,2.2037,2.1703,2.1435,2.1229,2.1229,2.1229,2.1216,2.1176,2.0962,2.0806,2.0766,2.0441,2.0197,2.0197,2.0197,2.0197,2.0197,2.0197,2.0197,2.0197,1.997,1.9853,1.9853,1.9613,1.9508,1.9508,1.9508,1.9495,1.9455,1.9513,1.9645,1.9877,1.9964,2.0209,1.1549,1.2113,1.2449,1.2941,1.2942,1.2804,1.2639,1.2279,1.1938,1.1736,1.1711,1.1818,1.2237,1.2683,1.336,1.4573,1.5355,1.6179,1.7295,1.7583,1.7811,1.8182,1.8223,1.8223,1.8223,1.8223,1.8223,1.8223,1.8223,1.8223,1.8223,1.8223,1.8223,1.8223,1.8223,1.816,1.8127,1.7957,1.808,1.8458,1.8147,1.8432,1.9194,1.9425,1.9904,2.06,2.1027,2.181,2.2695,2.2535,2.319,2.4304,2.4584,2.4988,2.5398,2.5713,2.5801,2.5761,2.556,2.5518,2.5413,2.4975,2.4853,2.477,2.4275,2.4128,2.4075,2.387,2.3803,2.3803,2.3803,2.3763,2.371,2.3656,2.3616,2.3562,2.3509,2.3094,2.2586,2.205,2.1871,2.183,2.183,2.183,2.1783,2.1542,2.1462,2.1341,2.1069,2.053,2.0197,2.0197,2.0197,2.0197,2.0197,2.0197,2.0197,2.0197,2.0157,2.013,2.013,2.0077,2.005,2.005,2.005,1.993,1.972,2.0015,2.0162,2.0221,2.0765,2.1348,1.328,1.3818,1.4281,1.4607,1.4443,1.4102,1.3874,1.3336,1.2808,1.2605,1.2449,1.2457,1.2784,1.3228,1.3815,1.4641,1.5374,1.6145,1.6979,1.7368,1.7692,1.8014,1.8119,1.8223,1.8223,1.8223,1.8223,1.8223,1.8223,1.8223,1.8223,1.8223,1.8223,1.8223,1.8223,1.8316,1.8557,1.8474,1.8744,1.9413,1.9499,1.993,2.0611,2.1032,2.1618,2.2437,2.286,2.3569,2.4459,2.4504,2.4821,2.5294,2.5585,2.5723,2.5819,2.6121,2.6225,2.6198,2.6012,2.5972,2.5919,2.5663,2.5438,2.5251,2.497,2.489,2.485,2.4716,2.4569,2.4486,2.4486,2.4222,2.3955,2.3843,2.3562,2.3335,2.3335,2.2987,2.2592,2.2505,2.2191,2.2031,2.2178,2.2084,2.197,2.1836,2.181,2.1756,2.159,2.1323,2.1029,2.0691,2.0664,2.0664,2.0664,2.0664,2.0664,2.0664,2.0548,2.0468,2.0468,2.0277,2.0197,2.0197,2.0379,2.0402,2.0267,2.0582,2.094,2.1297,2.1992,2.2722,1.4766,1.5275,1.5737,1.579,1.5405,1.4994,1.4766,1.4029,1.3369,1.3157,1.292,1.2763,1.3058,1.354,1.4034,1.4484,1.5281,1.6023,1.6566,1.7092,1.7522,1.7781,1.8014,1.8135,1.8214,1.8223,1.8223,1.8223,1.8269,1.8316,1.8223,1.8316,1.8363,1.8363,1.8549,1.8828,1.9209,1.9442,1.991,2.0665,2.1111,2.1731,2.2376,2.281,2.3477,2.4333,2.4698,2.5238,2.5844,2.6125,2.6136,2.6081,2.6262,2.62,2.603,2.6294,2.6386,2.6386,2.6386,2.6386,2.636,2.6158,2.5891,2.5598,2.5531,2.5518,2.5518,2.5518,2.5344,2.517,2.517,2.4836,2.4422,2.4195,2.3817,2.3429,2.3308,2.306,2.2926,2.3067,2.2719,2.2445,2.2672,2.2525,2.2352,2.2285,2.2218,2.2184,2.2084,2.2031,2.1804,2.1349,2.1243,2.1176,2.1109,2.1109,2.1136,2.1203,2.1083,2.0994,2.0994,2.0827,2.0665,2.0598,2.0872,2.1028,2.102,2.1413,2.1926,2.2527,2.3338,2.4203,1.6254,1.6795,1.7109,1.6752,1.639,1.6021,1.553,1.4732,1.3998,1.3625,1.3434,1.3354,1.3512,1.3724,1.4002,1.4366,1.4883,1.5464,1.5999,1.6542,1.7068,1.7562,1.7827,1.8005,1.816,1.8223,1.8223,1.8223,1.8596,1.865,1.8223,1.8596,1.8837,1.8837,1.9712,2.0223,2.0269,2.1195,2.1869,2.2346,2.2692,2.3507,2.4856,2.4854,2.535,2.6241,2.6476,2.6872,2.7298,2.7038,2.7158,2.7438,2.6947,2.672,2.6667,2.648,2.6386,2.6386,2.6386,2.6386,2.6386,2.636,2.6198,2.5904,2.5598,2.5518,2.5518,2.5518,2.5491,2.5478,2.5478,2.5438,2.5384,2.5358,2.5304,2.5117,2.4559,2.4412,2.4252,2.3817,2.3683,2.3656,2.3683,2.3656,2.3514,2.3247,2.2966,2.2719,2.2418,2.2151,2.1964,2.1911,2.1703,2.1435,2.1136,2.1109,2.1229,2.1529,2.1805,2.1984,2.1984,2.2244,2.2251,2.194,2.1957,2.2018,2.2074,2.264,2.3126,2.3596,2.4817,2.5764,1.6596,1.6982,1.7185,1.7003,1.6534,1.5966,1.5432,1.4741,1.4107,1.3855,1.3625,1.3552,1.3766,1.3855,1.3985,1.4237,1.4643,1.5027,1.5456,1.6072,1.6639,1.7068,1.7465,1.791,1.8459,1.8584,1.8875,1.948,2.026,2.0631,2.0445,2.0037,2.0083,2.0686,2.1094,2.1556,2.2156,2.2524,2.3306,2.4361,2.4798,2.5489,2.647,2.6753,2.7053,2.7375,2.7431,2.763,2.7926,2.7764,2.7702,2.7682,2.7442,2.7241,2.7068,2.7001,2.6961,2.6894,2.6707,2.6653,2.6613,2.6453,2.6306,2.6238,2.6079,2.6039,2.6039,2.6039,2.5919,2.5824,2.5824,2.5518,2.5251,2.5251,2.5117,2.4879,2.4653,2.4599,2.4586,2.4569,2.4409,2.4356,2.4566,2.4409,2.4195,2.3901,2.3754,2.3567,2.3273,2.3161,2.3016,2.2856,2.225,2.1796,2.1643,2.1824,2.2008,2.213,2.2502,2.2795,2.2976,2.3152,2.3125,2.3001,2.3398,2.3519,2.3348,2.4456,2.5168,2.5538,2.6908,2.7881,1.6566,1.6849,1.7071,1.6909,1.6412,1.5853,1.5254,1.4692,1.4188,1.3953,1.3807,1.3723,1.388,1.3904,1.3945,1.4075,1.4391,1.477,1.5157,1.586,1.6593,1.7237,1.7808,1.8462,1.9267,1.9598,2.0223,2.1186,2.1925,2.2524,2.2938,2.2294,2.2017,2.2294,2.2754,2.3306,2.3994,2.4396,2.5126,2.614,2.6685,2.7267,2.7857,2.8137,2.8323,2.8369,2.8198,2.8172,2.8312,2.8219,2.8058,2.7816,2.7736,2.7575,2.7429,2.7336,2.7309,2.7282,2.7028,2.6894,2.6787,2.6587,2.6453,2.6386,2.6386,2.6386,2.6386,2.6386,2.6239,2.6118,2.6118,2.581,2.5464,2.5464,2.5304,2.5093,2.505,2.5024,2.5064,2.5184,2.5037,2.4919,2.517,2.5037,2.4786,2.4623,2.4626,2.4565,2.4399,2.4399,2.4361,2.417,2.366,2.3058,2.2394,2.2619,2.2871,2.297,2.3516,2.3959,2.4185,2.4512,2.4608,2.4534,2.5106,2.5329,2.5202,2.627,2.6965,2.7308,2.8513,2.9376,1.6259,1.6698,1.6982,1.6446,1.6137,1.5813,1.513,1.4684,1.429,1.3977,1.3896,1.3896,1.3904,1.3904,1.3904,1.3904,1.4168,1.4617,1.5219,1.5923,1.6925,1.8412,1.9088,1.9839,2.0709,2.144,2.2248,2.3214,2.3306,2.3903,2.5366,2.5457,2.4772,2.3342,2.4783,2.556,2.556,2.6969,2.7636,2.7694,2.8204,2.8745,2.9169,2.8838,2.8973,2.9446,2.8858,2.8604,2.8577,2.8312,2.8179,2.8152,2.7816,2.7696,2.7655,2.7416,2.7309,2.7309,2.7309,2.7068,2.6787,2.6814,2.6627,2.6386,2.6386,2.6386,2.6386,2.6386,2.6386,2.6386,2.6386,2.6386,2.6373,2.6373,2.6373,2.6293,2.6038,2.5984,2.5891,2.5558,2.5504,2.5504,2.5504,2.5504,2.5504,2.5504,2.5577,2.5687,2.5674,2.5797,2.5873,2.5859,2.621,2.5548,2.3295,2.3388,2.3737,2.4071,2.5015,2.558,2.5578,2.6612,2.702,2.6663,2.706,2.744,2.7773,2.8057,2.834,2.8703,2.936,2.9875,1.5861,1.6154,1.6299,1.6128,1.5764,1.5335,1.4895,1.4513,1.4188,1.3953,1.3904,1.3904,1.3904,1.3904,1.3904,1.3904,1.446,1.51,1.5699,1.669,1.7711,1.8764,2.0255,2.1571,2.2419,2.3677,2.4544,2.4875,2.5776,2.6504,2.6957,2.7332,2.7151,2.631,2.6776,2.7196,2.7571,2.8023,2.8417,2.8732,2.8912,2.9227,2.9676,2.9596,2.9526,2.9472,2.9285,2.8978,2.8604,2.8497,2.8379,2.8179,2.8085,2.8045,2.8031,2.7938,2.7911,2.7871,2.7629,2.7375,2.7094,2.6894,2.6627,2.6386,2.6386,2.6386,2.6386,2.6386,2.6386,2.6386,2.6386,2.6386,2.6333,2.6185,2.6131,2.6105,2.6011,2.5998,2.6024,2.6092,2.6106,2.6106,2.6106,2.634,2.6481,2.6278,2.654,2.6769,2.6838,2.6899,2.7167,2.7762,2.7916,2.7318,2.559,2.629,2.6738,2.6583,2.7582,2.8066,2.7793,2.8394,2.8541,2.8147,2.8499,2.8584,2.842,2.9235,2.9945,3.0546,3.077,3.0929,1.5277,1.5504,1.5586,1.5521,1.5245,1.4905,1.4586,1.4335,1.4196,1.4159,1.4118,1.4154,1.4296,1.4332,1.4368,1.451,1.5078,1.5823,1.6663,1.7858,1.9332,2.1194,2.2993,2.4425,2.5224,2.6064,2.6658,2.6852,2.7575,2.8101,2.8281,2.8597,2.8687,2.8552,2.8372,2.8417,2.8745,2.8925,2.915,2.9451,2.9451,2.9644,2.9913,2.9913,2.982,2.9646,2.9526,2.9272,0.0,2.8698,2.8497,2.8353,2.8232,2.8179,2.8179,2.8179,2.8179,2.8165,2.7978,2.7724,2.7375,2.7081,2.672,2.6413,2.652,2.648,2.6386,2.6386,2.6386,2.6386,2.6386,2.6386,2.6386,2.6355,2.6393,2.6432,2.6588,2.6614,2.6629,2.6819,2.6742,2.6623,2.6623,2.6834,2.7002,2.6967,2.7587,2.813,2.823,2.8768,2.9275,2.9663,3.0002,2.9781,2.8863,2.8997,2.9051,2.8809,2.9699,3.0111,2.9851,3.0376,3.0592,3.0478,3.0667,3.0565,3.0188,3.0681,3.1184,3.1616,3.1763,3.1836,0.0,1.4865,1.4925,1.477,1.4713,1.4624,1.4363,1.4309,0.0,1.4588,1.4617,1.4732,1.507,1.5106,1.5248,1.5648,1.6094,1.6833,1.8054,1.9502,2.1693,2.5178,2.6711,2.7808,2.8567,2.8448,2.8469,2.894,2.8718,2.879,2.9227,2.9227,2.9451,2.9869,2.9496,2.9227,2.9227,2.9689,2.9913,2.9913,2.9913,2.9913,2.9913,2.9913,2.9913,2.99,2.9633,2.9499,2.9446,2.8898,2.8644,2.8577,2.8326,2.8205,2.8179,2.8179,2.8179,2.8179,2.8179,2.7991,2.7655,2.7403,2.6934,2.6507,2.6774,2.6653,2.6426,2.6479,2.6479,2.6466,2.6492,2.6479,2.6584,2.6925,2.6991,2.7109,2.7488,2.758,2.7608,2.7622,2.7335,2.7086,2.7086,2.7152,2.7335,2.774,2.8847,2.9698,2.9854,3.1141,3.1945,3.1658,3.2284,3.2733,3.2774,3.1493,3.0689,3.0749,3.137,3.1721,3.1685,3.2373,3.2914,3.3294,3.3278,3.3065,3.2643,3.2294,3.2111,3.2111,3.2496,3.268,1.5363,0.0,1.4583,1.4848,1.4797,1.4855,0.0,1.5363,1.5381,1.5727,1.5789,1.5871,1.6099,1.6163,1.6246,1.654,1.7474,1.8519,1.9505,2.1992,2.4605,2.6953,2.7538,2.8116,2.9018,2.9231,2.9326,2.943,2.9532,2.9599,2.9734,2.9734,2.9779,2.9913,2.9779,2.9734,2.9734,2.9824,2.9913,2.9913,2.9913,2.9913,2.9913,2.9913,2.9913,2.9913,2.9847,2.9686,2.9472,2.9339,2.9018,2.8604,2.8524,2.8393,2.8179,2.8179,2.8179,2.8179,2.8179,2.7991,2.7655,2.7403,2.7215,2.7108,2.7134,2.6961,2.68,2.7405,2.7391,2.7294,2.7639,2.7499,2.7303,2.7198,2.7142,2.7181,2.7283,2.7519,2.7757,2.7941,2.8099,2.8227,2.8227,2.8551,2.9054,2.9789,3.0515,3.1277,3.2244,3.2674,3.3125,3.3628,3.3854,3.4107,3.442,3.3303,3.2436,3.2152,3.2861,3.3018,3.2391,3.2818,3.313,3.3221,3.3509,3.3468,3.3049,3.3285,3.323,3.2921,3.334,3.3523,1.6007,1.5615,1.5279,1.5505,1.5452,1.548,1.5955,1.5943,1.6037,1.6593,1.6813,1.7037,1.7468,1.7641,1.7963,1.8581,1.9457,2.0747,2.263,2.4884,2.6932,2.8638,2.9141,2.9577,3.0119,3.0162,3.0076,2.999,2.9952,2.9913,2.9913,2.9913,2.9913,2.9913,2.9913,2.9913,2.9913,2.9913,2.9913,2.9913,2.9913,2.9913,2.9913,2.9913,2.9913,2.9913,2.9913,2.982,2.9673,2.9539,2.9299,2.8978,2.8711,2.8497,2.8379,2.8232,2.8179,2.8179,2.8179,2.7991,2.7669,2.7509,2.7416,2.7336,2.7469,2.7348,2.7269,2.754,2.7649,2.7729,2.7957,2.8033,2.8065,2.8095,2.8131,2.8171,2.8407,2.8576,2.8762,2.8879,2.9051,2.9246,2.9488,3.0106,3.0807,3.1622,3.2638,3.3511,3.395,3.4659,3.5093,3.5017,3.5112,3.5262,3.5266,3.436,3.3679,3.3447,3.3819,3.3885,3.3449,3.3623,3.3853,3.402,3.4073,3.3982,3.3762,3.3982,3.3982,3.378,3.4148,3.4331,1.6963,1.7001,1.6874,1.6548,1.6486,1.6558,1.6806,1.6842,1.7045,1.7778,1.8112,1.8494,1.9216,1.9569,2.008,2.1066,2.1799,2.3242,2.6119,2.7553,2.8758,3.003,3.0816,3.1176,3.1176,3.0969,3.0675,3.0426,3.0087,2.9913,2.9913,2.9913,2.9913,2.9913,2.9913,2.9913,2.9913,2.9913,2.9913,2.9913,2.9913,2.9913,2.9913,2.9913,2.9913,2.9913,2.9913,2.9913,2.99,2.9646,2.9526,2.9432,2.8938,2.8684,2.8577,2.8353,2.8219,2.8179,2.8179,2.8018,2.7762,2.7762,2.7643,2.7483,2.7696,2.7762,2.7764,2.7592,2.7785,2.8071,2.8152,2.8491,2.8896,2.922,2.9301,2.9422,2.9906,3.0016,3.0101,3.0262,3.0373,3.0564,3.1048,3.1884,3.2714,3.3529,3.4933,3.5796,3.5594,3.6677,3.7147,3.6165,3.6275,3.6201,3.5815,3.5119,3.466,3.4587,3.4403,3.4312,3.4312,3.4367,3.4568,3.4881,3.4697,3.455,3.4495,3.4623,3.4642,3.4605,3.4991,3.5174,1.9377,1.9884,1.9942,1.8176,1.7709,1.8072,1.9448,1.9773,1.9953,2.0708,2.0887,2.1089,2.1674,2.2046,2.2457,2.3077,2.4303,2.5837,2.7801,2.8637,2.9442,3.0577,3.1002,3.1176,3.1176,3.0969,3.0675,3.0426,3.0087,2.9913,2.9913,2.9913,2.9913,2.9913,2.9913,2.9913,2.9913,2.9913,2.9913,2.9913,2.9913,2.9913,2.9913,2.9913,2.9913,2.9913,2.9913,2.9913,2.9913,2.9873,2.97,2.9472,2.9379,2.9045,2.8604,2.8551,2.8406,2.8179,2.8179,2.8152,2.8112,2.8112,2.8085,2.8058,2.8098,2.8112,2.8196,2.8491,2.8703,2.8908,2.9333,2.9542,2.9705,2.9785,2.9785,2.9906,3.0324,3.0638,3.1036,3.1782,3.2445,3.3025,3.3473,3.4321,3.522,3.6049,3.6761,3.7433,3.8046,3.8064,3.793,3.7762,3.7421,3.7045,3.664,3.6163,3.5779,3.5449,3.4477,3.3908,3.3908,3.422,3.444,3.4495,3.5119,3.5229,3.4899,3.5595,3.576,3.5449,3.5834,3.6036,2.0486,2.09,2.1114,2.0541,2.0269,2.0379,2.1109,2.1362,2.1652,2.2203,2.2436,2.2658,2.3092,2.3554,2.4232,2.5327,2.6408,2.7588,2.9013,2.9427,2.9968,3.0896,3.1142,3.1176,3.1176,3.0969,3.0675,3.0426,3.0087,2.9913,2.9913,2.9913,2.9913,2.9913,2.9913,2.9913,2.9913,2.9913,2.9913,2.9913,2.9913,2.9913,2.9913,2.9913,2.9913,2.9913,2.9913,2.9913,2.9913,2.9913,2.9833,2.97,2.9539,2.9325,2.9045,2.8724,2.8417,2.8179,2.8179,2.8179,2.8179,2.8179,2.8361,2.8529,2.8529,2.8697,2.8936,2.9118,2.9216,2.9396,2.9867,3.0372,3.0747,3.0747,3.1115,3.1538,3.1701,3.2216,3.2846,3.346,3.4441,3.5384,3.602,3.6928,3.7765,3.8322,3.8819,3.9199,3.9334,3.9183,3.8878,3.8416,3.7981,3.7547,3.7173,3.675,3.6163,3.5321,3.4734,3.4331,3.4147,3.4532,3.4623,3.4403,3.521,3.5486,3.5321,3.5925,3.6109,3.5944,3.6127,3.6201,2.1233,2.1623,2.2087,2.2664,2.257,2.2387,2.2633,2.2893,2.3216,2.3707,2.3973,2.4189,2.4508,2.5153,2.6036,2.7341,2.8087,2.8861,2.9873,3.0074,3.0394,3.1096,3.1289,3.1303,3.1236,3.0969,3.0675,3.0426,3.0087,2.9913,2.9913,2.9913,2.9913,2.9913,2.9913,2.9913,2.9913,2.9913,2.9913,2.9913,2.9913,2.9913,2.9913,2.9913,2.9913,2.9913,2.9913,2.9913,2.9913,2.9913,2.9913,2.99,2.9673,2.9539,2.9419,2.8818,2.8457,2.8286,2.8205,2.8179,2.8179,2.8179,2.8528,2.8933,2.8933,2.9312,2.9747,2.9874,2.9958,3.0071,3.0252,3.0949,3.1616,3.1706,3.2327,3.2969,3.3176,3.3818,3.4637,3.5328,3.6433,3.7556,3.8388,3.9254,3.9999,4.0299,4.0693,4.0857,4.0541,4.0391,4.0103,3.9439,3.9001,3.8545,3.8032,3.7605,3.694,3.5943,3.5393,3.4936,3.4568,3.4826,3.4844,3.455,3.5247,3.5577,3.5577,3.6017,3.6201,3.6201,3.6201,3.6201,2.2121,2.2894,2.3692,2.3984,2.3648,2.3454,2.4469,2.4945,2.5387,2.6003,2.6161,2.6254,2.652,2.7319,2.8148,2.8758,2.9148,2.9606,3.0279,3.0568,3.0849,3.1136,3.1463,3.153,3.1249,3.0969,3.0675,3.0426,3.0087,2.9913,2.9913,2.9913,2.9913,2.9913,2.9913,2.9913,2.9913,2.9913,2.9913,2.9913,2.9913,2.9913,2.9913,2.9913,2.9913,2.9913,2.9913,2.9913,2.9913,2.9913,2.9913,2.9913,2.99,2.9726,2.9419,2.8818,2.8591,2.8537,2.8286,2.8179,2.8179,2.8179,2.8676,2.9248,2.9248,2.9825,3.0522,3.088,3.1296,3.148,3.0765,3.1271,3.202,3.2334,3.2873,3.3479,3.4311,3.4891,3.5773,3.7427,3.8462,3.9286,4.0162,4.1033,4.1639,4.1639,4.2002,4.2244,4.2204,4.1884,4.1623,4.1583,4.1202,4.062,3.9805,3.9332,3.8936,3.8463,3.6608,3.5357,3.4954,3.4973,3.4973,3.4954,3.5357,3.5577,3.5577,3.6017,3.6201,3.6201,3.6201,3.6201,2.2315,2.2929,2.3567,2.3861,2.4172,2.463,2.5409,2.6096,2.6693,2.7107,2.7201,2.7241,2.7348,2.7831,2.8379,2.8895,2.9285,2.9686,3.0319,3.0493,3.0635,3.0929,3.1049,3.1076,3.0969,3.0702,3.052,3.0413,3.0087,2.9913,2.9913,2.9913,2.9913,2.9913,2.9913,2.9913,2.9913,2.9913,2.9913,2.9913,2.9913,2.9913,2.9913,2.9913,2.9913,2.9913,2.9913,2.9913,2.9913,2.9913,2.9913,2.9913,2.9913,2.974,2.9459,2.9232,2.8925,2.8591,2.847,2.8353,2.8303,2.8746,2.9264,2.9815,3.0281,3.0852,3.1325,3.1497,3.1883,3.2154,3.185,3.2501,3.3295,3.3731,3.4582,3.5475,3.6083,3.7259,3.8482,3.939,4.0476,4.1443,4.2036,4.2397,4.2608,4.2608,4.2477,4.2399,4.2388,4.2052,4.1773,4.1797,4.1425,4.106,4.0756,4.0281,3.9864,3.9466,3.7991,3.6922,3.6529,3.6511,3.6267,3.5743,3.6125,3.6238,3.5961,3.6128,3.6201,3.6201,3.6201,3.6201,2.2385,2.2926,2.3514,2.375,2.4539,2.5371,2.5998,2.6814,2.7509,2.7909,2.7989,2.7989,2.7989,2.823,2.8564,2.8921,2.9366,2.9793,3.0333,3.04,3.052,3.0755,3.0795,3.0795,3.0795,3.0574,3.04,3.04,3.0087,2.9913,2.9913,2.9913,2.9913,2.9913,2.9913,2.9913,2.9913,2.9913,2.9913,2.9913,2.982,2.982,2.9913,2.982,2.9833,2.9913,2.982,2.9833,2.9913,2.9913,2.9913,2.9913,2.9913,2.9793,2.9606,2.9513,2.9253,2.8939,2.8845,2.8744,2.8696,2.9293,2.9899,3.0453,3.1081,3.1772,3.2321,3.2321,3.2883,3.3515,3.3643,3.3952,3.446,3.5152,3.6146,3.7071,3.7656,3.9027,4.0271,4.0795,4.1872,4.2823,4.3217,4.3312,4.3281,4.3281,4.3027,4.2808,4.2833,4.2579,4.238,4.2423,4.2037,4.1788,4.1788,4.1365,4.0925,4.0524,3.9548,3.8575,3.7629,3.7611,3.727,3.6605,3.6697,3.6681,3.6402,3.6257,3.6201,3.6201,3.6201,3.6201,2.2385,2.3073,2.3803,2.3803,2.4649,2.5665,2.6266,2.7068,2.7883,2.8484,2.8617,2.8617,2.8604,2.8801,2.9001,2.9001,2.9495,3.002,3.036,3.04,3.0507,3.0755,3.0782,3.0782,3.0782,3.0574,3.04,3.04,3.0087,2.9913,2.9913,2.9913,2.9913,2.9913,2.9913,2.9913,2.9913,2.9913,2.9913,2.9913,2.9619,2.9633,2.99,2.9619,2.9633,2.9887,2.9606,2.9646,2.9913,2.9913,2.9913,2.9913,2.9913,2.9913,2.9873,2.9593,2.9592,2.9672,2.9427,2.9423,2.9579,2.9902,3.051,3.1181,3.154,3.2515,3.3514,3.3514,3.4525,3.5704,3.6107,3.5676,3.5446,3.6631,3.7393,3.8071,3.8912,3.9873,4.0768,4.1635,4.2512,4.3234,4.3628,4.3711,4.3711,4.3711,4.3711,4.3711,4.3711,4.3711,4.3711,4.3711,4.334,4.3127,4.3127,4.2676,4.2266,4.1836,4.1406,4.024,3.8121,3.8027,3.7838,3.7421,3.7015,3.6812,3.6812,3.6405,3.6219,3.6219,3.6219,3.6219,2.2385,2.2892,2.3554,2.3968,2.4796,2.5772,2.6814,2.7563,2.8286,2.9058,2.9219,2.9165,2.8908,2.9152,2.9352,2.9352,2.9673,2.994,3.0034,3.0047,3.0074,3.0167,3.0181,3.0181,3.0181,3.01,3.0047,3.0047,2.9967,2.9913,2.9913,2.9913,2.9913,2.9913,2.9913,2.9913,2.9913,2.9913,2.982,2.9606,2.9526,2.9526,2.9606,2.9299,2.9175,2.9255,2.9161,2.9175,2.9255,2.9255,2.9255,2.9255,2.9255,2.9474,2.9781,2.9917,3.0074,3.0203,3.0372,3.0521,3.0781,3.1411,3.2219,3.3045,3.374,3.4388,3.4975,3.5324,3.5933,3.667,3.7473,3.8007,3.8442,3.8802,3.9497,4.0211,4.0817,4.1653,4.242,4.2669,4.3137,4.3546,4.367,4.3711,4.3711,4.3711,4.3711,4.3711,4.3711,4.3711,4.3711,4.3711,4.3594,4.3516,4.3516,4.3125,4.2832,4.2715,4.2012,4.1055,3.9796,3.9157,3.8813,3.8649,3.7989,3.7652,3.765,3.7252,3.6878,3.6621,3.6896,3.6878,2.2752,2.3185,2.3821,2.4409,2.5304,2.6373,2.7669,2.8379,2.8901,2.9526,2.9566,2.9432,2.9245,2.9366,2.9486,2.9486,2.9726,2.9913,2.9913,2.9913,2.9913,2.9913,2.9913,2.9913,2.9913,2.9913,2.9913,2.9913,2.9913,2.9913,2.9913,2.9913,2.9913,2.9913,2.9913,2.9913,2.9913,2.9806,2.9748,2.9737,2.9508,2.9518,2.9635,2.9068,2.8895,2.9001,2.9001,2.9001,2.9001,2.9001,2.9001,2.9045,2.9206,2.9553,3.0044,3.0368,3.0706,3.1038,3.118,3.1396,3.1717,3.2566,3.3391,3.4178,3.5138,3.5846,3.6394,3.667,3.7361,3.8177,3.893,3.9925,4.0663,4.0325,4.0771,4.1402,4.1882,4.255,4.3109,4.3109,4.3421,4.3711,4.3711,4.3711,4.3711,4.3711,4.3711,4.3711,4.3711,4.3711,4.3711,4.3711,4.3711,4.3711,4.3711,4.3476,4.3262,4.3127,4.2598,4.1914,4.1055,4.0195,3.9653,3.9486,3.8708,3.8293,3.8271,3.7532,3.7116,3.7043,3.7116,3.7116,2.3273,2.3821,2.4422,2.501,2.6079,2.7307,2.8721,2.9312,2.9606,2.986,2.9713,2.9526,2.9526,2.9526,2.9526,2.9526,2.974,2.9913,2.9913,2.9913,2.9913,2.9913,2.9913,2.9913,2.9913,2.9913,2.9913,2.9913,2.9913,2.9913,2.9913,2.9913,2.9913,2.9913,2.9887,2.9918,2.9918,2.9681,2.9727,3.0082,2.9578,2.9504,2.9859,2.8978,2.8711,2.8908,2.8965,2.8995,2.8995,2.9038,2.9052,2.9082,2.9558,3.0019,3.0493,3.0923,3.1464,3.1963,3.188,3.2052,3.2502,3.3493,3.4228,3.4965,3.6113,3.7102,3.7877,3.7963,3.8922,3.9986,4.0451,4.1504,4.2235,4.1378,4.1528,4.2007,4.2444,4.286,4.3151,4.3151,4.3463,4.3711,4.3711,4.3711,4.3711,4.3711,4.3711,4.3711,4.3711,4.3711,4.3711,4.3711,4.3711,4.3711,4.3711,4.3711,4.3535,4.3205,4.3105,4.2734,4.1953,4.1055,4.0352,3.9982,3.9184,3.8823,3.8861,3.7685,3.7304,3.7598,3.7286,3.7286,2.3562,2.4275,2.5037,2.5663,2.7001,2.843,2.9205,2.9606,2.9847,2.99,2.986,2.982,2.982,2.982,2.982,2.982,2.9873,2.9913,2.9913,2.9913,2.9913,2.9913,2.9913,2.9913,2.9913,2.9913,2.9913,2.9913,2.9913,2.9913,2.9913,2.9913,2.9913,2.9913,2.9997,3.0039,3.0039,3.0134,3.0118,2.9925,2.9829,2.9733,2.9579,2.9004,2.8622,2.8379,2.8719,2.8846,2.8846,2.9227,2.9396,2.9438,2.9902,3.0365,3.0814,3.1526,3.2077,3.2483,3.2732,3.3102,3.3607,3.4447,3.5526,3.6776,3.8041,3.9075,3.9925,4.0644,4.1024,4.1378,4.184,4.2485,4.2902,4.2694,4.2965,4.3278,4.3421,4.3504,4.3587,4.3587,4.3628,4.3711,4.3711,4.3711,4.3711,4.3711,4.3711,4.3711,4.3711,4.3711,4.3711,4.3711,4.3711,4.3711,4.3711,4.3711,4.3672,4.3574,4.3262,4.3029,4.2812,4.166,4.0822,4.0356,3.9875,3.9815,4.011,3.9837,3.9589,3.9364,3.9608,3.9401,2.3603,2.4446,2.5462,2.6907,2.8136,2.9138,2.9593,2.9806,2.9913,2.9913,2.9913,2.9913,2.9913,2.9913,2.9913,2.9913,2.9913,2.9913,2.9913,2.9913,2.9913,2.9913,2.9913,2.9913,2.9913,2.9913,2.9913,2.9913,2.9913,3.0003,3.0227,3.0227,3.0293,3.0366,3.0467,3.0491,3.0513,3.0522,3.061,3.0863,3.0718,3.0601,3.0442,2.9523,2.902,2.881,2.902,2.9244,2.9495,2.9747,2.9956,3.0192,3.0859,3.1399,3.1869,3.2716,3.3275,3.3686,3.3982,3.4313,3.4702,3.5863,3.6917,3.8038,3.9522,4.0476,4.115,4.184,4.2216,4.2425,4.2652,4.3068,4.338,4.338,4.3546,4.3711,4.3711,4.3711,4.3711,4.3711,4.3711,4.3711,4.3711,4.3711,4.3711,4.3711,4.3711,4.3711,4.3711,4.3711,4.3711,4.3711,4.3711,4.3711,4.3711,4.3711,4.3711,4.3711,4.3496,4.3281,4.3127,4.2481,4.1893,4.1442,4.0992,4.091,4.1111,4.0742,4.0548,4.0548,4.0527,4.032,2.3562,2.4593,2.5905,2.807,2.9018,2.9499,2.9833,2.9913,2.9913,2.9913,2.9913,2.9913,2.9913,2.9913,2.9913,2.9913,2.9913,2.9913,2.9913,2.9913,2.9913,2.9913,2.9913,2.9913,3.0003,3.0003,3.0048,3.0137,3.0137,3.0303,3.0705,3.0739,3.0823,3.1013,3.1119,3.1238,3.1281,3.1176,3.1465,3.2164,3.1934,3.1896,3.1896,3.0803,3.0109,2.9732,2.99,3.015,3.054,3.0707,3.0957,3.1357,3.2211,3.2788,3.324,3.4115,3.4735,3.5169,3.5393,3.5592,3.5958,3.7428,3.8312,3.915,4.0746,4.1588,4.2049,4.2527,4.2902,4.3192,4.3192,4.3463,4.3711,4.3711,4.3711,4.3711,4.3711,4.3711,4.3711,4.3711,4.3711,4.3711,4.3711,4.3711,4.3711,4.3711,4.3711,4.3711,4.3711,4.3711,4.3711,4.3711,4.3711,4.3711,4.3711,4.3711,4.3711,4.3711,4.3711,4.3555,4.3203,4.3183,4.3008,4.2616,4.2157,4.1958,4.2035,4.1367,4.1206,4.153,4.1187,4.0937,2.3562,2.5157,2.6907,2.827,2.8858,2.9202,2.9793,2.9913,2.9913,2.9913,2.9913,2.9913,2.9913,2.9913,2.9913,2.9913,2.9913,2.9913,2.9913,2.9913,2.9913,2.9913,2.9913,3.0048,3.0482,3.0526,3.066,3.1106,3.1106,3.1151,3.1182,3.1298,3.1406,3.1407,3.2052,3.2375,3.2414,3.2871,3.3179,3.3277,3.3271,3.3404,3.3772,3.3551,3.2458,3.0651,3.1425,3.1798,3.1922,3.2705,3.3075,3.324,3.4099,3.4466,3.4628,3.5521,3.6065,3.6454,3.6474,3.695,3.7698,3.868,3.9557,4.0469,4.1811,4.2527,4.3026,4.3421,4.3587,4.3628,4.3628,4.367,4.3711,4.3711,4.3711,4.3711,4.3711,4.3711,4.3711,4.3711,4.3711,4.3711,4.3711,4.3711,4.3711,4.3711,4.3711,4.3711,4.3711,4.3711,4.3711,4.3711,4.3711,4.3711,4.3711,4.3711,4.3711,4.3711,4.3711,4.3691,4.3633,4.3613,4.3594,4.3535,4.2731,4.2537,4.2907,4.2808,4.2767,4.2826,4.2767,4.2534,2.3634,2.5157,2.6613,2.7802,2.8534,2.9108,2.9579,2.9806,2.9913,2.9913,2.9913,2.9913,2.9913,2.9913,2.9913,2.9913,2.9913,2.9913,2.9913,2.9913,2.9913,2.9913,2.9913,3.0093,3.0526,3.0616,3.0794,3.1271,3.1315,3.1467,3.1782,3.2121,3.2363,3.2478,3.3094,3.341,3.3484,3.3977,3.4471,3.4953,3.4953,3.5035,3.5237,3.5237,3.4409,3.3019,3.3388,3.3715,3.396,3.4384,3.471,3.5035,3.5642,3.6005,3.6287,3.6947,3.7596,3.8194,3.8385,3.883,3.9514,4.0328,4.0851,4.1388,4.247,4.2943,4.3192,4.3587,4.3711,4.3711,4.3711,4.3711,4.3711,4.3711,4.3711,4.3711,4.3711,4.3711,4.3711,4.3711,4.3711,4.3711,4.3711,4.3711,4.3711,4.3711,4.3711,4.3711,4.3711,4.3711,4.3711,4.3711,4.3711,4.3711,4.3711,4.3711,4.3711,4.3711,4.3711,4.3711,4.3711,4.3711,4.3711,4.3711,4.334,4.3242,4.3437,4.3437,4.3437,4.3437,4.3437,4.3203,2.3581,2.4836,2.6038,2.7094,2.8043,2.8804,2.9179,2.9539,2.9806,2.9806,2.986,2.9913,2.9913,2.9913,2.9913,2.9913,2.9913,2.9913,2.9913,2.9913,2.9913,2.9913,2.9913,3.0137,3.0705,3.0794,3.1017,3.164,3.1689,3.1943,3.2542,3.2938,3.3345,3.364,3.414,3.4422,3.4525,3.4931,3.5498,3.6149,3.6149,3.6171,3.6291,3.6395,3.619,3.5691,3.547,3.5544,3.5925,3.6109,3.6448,3.6769,3.721,3.7547,3.7867,3.8322,3.9031,3.9773,4.0029,4.0573,4.1262,4.1853,4.2114,4.2322,4.3048,4.3275,4.3317,4.3628,4.3711,4.3711,4.3711,4.3711,4.3711,4.3711,4.3711,4.3711,4.3711,4.3711,4.3711,4.3711,4.3711,4.3711,4.3711,4.3711,4.3711,4.3711,4.3711,4.3711,4.3711,4.3711,4.3711,4.3711,4.3711,4.3711,4.3711,4.3711,4.3711,4.3711,4.3711,4.3711,4.3711,4.3711,4.3711,4.3711,4.3711,4.3711,4.3711,4.3711,4.3711,4.3711,4.3711,4.3535,2.3158,2.4235,2.5382,2.6239,2.7121,2.7923,2.8511,2.9098,2.9499,2.9499,2.9726,2.9913,2.9913,2.9913,2.9913,2.9913,2.9913,2.9913,2.9913,2.9913,2.9913,2.9913,2.9913,3.0272,3.1182,3.1271,3.1685,3.2631,3.2777,3.302,3.3525,3.3788,3.4123,3.4506,3.5101,3.5414,3.5418,3.5881,3.6149,3.6206,3.6206,3.6382,3.677,3.7147,3.7758,3.8441,3.7546,3.717,3.725,3.8087,3.8444,3.8524,3.8977,3.9193,3.9272,3.9666,4.0334,4.1014,4.1033,4.1868,4.2946,4.3007,4.3297,4.3628,4.367,4.367,4.367,4.3711,4.3711,4.3711,4.3711,4.3711,4.3711,4.3711,4.3711,4.3711,4.3711,4.3711,4.3711,4.3711,4.3711,4.3711,4.3711,4.3711,4.3711,4.3711,4.3711,4.3711,4.3711,4.3711,4.3711,4.3711,4.3711,4.3711,4.3711,4.3711,4.3711,4.3711,4.3711,4.3711,4.3711,4.3711,4.3711,4.3711,4.3711,4.3711,4.3711,4.3711,4.3711,4.3711,4.3711,4.3691,2.2579,2.3474,2.4486,2.5331,2.6346,2.7295,2.7883,2.8484,2.9032,2.9406,2.9566,2.97,2.9887,2.9913,2.9913,2.9913,2.9913,2.9847,2.9659,2.9633,2.9566,2.9335,2.9572,2.9997,3.064,3.1003,3.1569,3.2539,3.288,3.3398,3.4182,3.4604,3.506,3.5524,3.5818,3.6052,3.632,3.6491,3.6732,3.6968,3.6968,3.7045,3.7199,3.7576,3.8106,3.8715,3.8884,3.8972,3.8977,3.9293,3.9411,3.9451,3.9627,3.9863,4.0117,4.0581,4.1239,4.1979,4.2289,4.2855,4.3504,4.3504,4.3587,4.3711,4.3711,4.3711,4.3711,4.3711,4.3711,4.3711,4.3711,4.3711,4.3711,4.3711,4.3711,4.3789,4.4082,4.4141,4.4238,4.4492,4.4509,4.4473,4.4199,4.4141,4.4043,4.375,4.3711,4.3711,4.3711,4.3711,4.3711,4.3711,4.3711,4.3711,4.3711,4.3711,4.3711,4.3711,4.3711,4.3711,4.3711,4.3711,4.3711,4.3711,4.3711,4.3711,4.3711,4.3711,4.3711,4.3711,4.3711,4.3711,2.2017,2.2779,2.3669,2.4315,2.5371,2.636,2.6854,2.7589,2.8297,2.8778,2.9045,2.9312,2.97,2.9766,2.9806,2.99,2.9913,2.982,2.9526,2.9486,2.9379,2.9028,2.9423,2.9929,3.0578,3.1196,3.1926,3.2853,3.3468,3.4118,3.4801,3.5298,3.576,3.6111,3.6184,3.6321,3.6585,3.6585,3.6713,3.7026,3.7026,3.7064,3.7216,3.7629,3.8101,3.8726,3.9529,3.997,4.0098,4.0255,4.0352,4.0352,4.0352,4.049,4.0802,4.1227,4.1812,4.246,4.293,4.3359,4.3711,4.3711,4.3711,4.3711,4.3711,4.3711,4.3711,4.3711,4.3711,4.3711,4.3711,4.3711,4.375,4.3906,4.3926,4.4101,4.4707,4.4609,4.4531,4.4899,4.4977,4.4941,4.4648,4.4609,4.4453,4.4004,4.3926,4.3887,4.373,4.3711,4.3711,4.3711,4.3711,4.3711,4.3711,4.3711,4.3711,4.3711,4.3711,4.3711,4.3711,4.3711,4.3711,4.3711,4.3711,4.3711,4.3711,4.3711,4.3711,4.3711,4.3711,4.3711,0.0,0.0,0.0,2.322,2.4182,2.5117,2.5411,2.6386,2.7349,2.7615,2.8163,2.8778,2.9352,2.9472,2.9579,2.9847,2.99,2.9806,2.9557,2.9517,2.9396,2.9045,2.9439,3.0089,3.0995,3.1882,3.2807,3.3742,3.4686,3.5278,3.5335,3.5822,3.6131,3.62,3.6201,3.6201,3.6201,3.6201,3.6201,3.6201,3.6201,3.6442,3.6812,3.7222,3.7859,3.8645,3.9509,4.0144,4.0529,4.0997,4.1211,4.1211,4.1211,4.1211,4.1269,4.166,4.207,4.244,4.293,4.334,4.3691,4.3691,4.3691,4.3711,4.3711,4.3711,4.3711,4.3711,4.3711,4.3711,4.373,4.373,4.3848,4.4316,4.4433,4.4668,4.5508,4.5039,4.457,4.4938,4.5058,4.5016,4.4996,4.4996,4.4902,4.4473,4.4414,4.4238,4.3789,4.3711,4.3711,4.3711,4.3711,4.3711,4.3711,4.3711,4.3711,4.3711,4.3711,4.3711,4.3711,4.3711,4.3711,4.3711,4.3711,4.3711,4.3711,4.3711,4.3711,4.3711,4.3711,4.3711,2.1529,0.0,0.0,0.0,0.0,0.0,2.4502,2.5478,2.6506,2.6961,2.7709,2.8433,2.8778,2.9205,2.9432,2.9255,2.9633,2.9829,2.9656,2.9632,2.9572,2.9379,2.979,3.0268,3.0843,3.2001,3.3068,3.3937,3.5153,3.6005,3.6306,3.6505,3.6487,3.6219,3.6201,3.6201,3.6201,3.6201,3.6201,3.6201,3.6497,3.6701,3.6812,3.7535,3.8114,3.8663,3.9523,4.0122,4.053,4.0996,4.1211,4.1211,4.1211,4.1211,4.1289,4.1992,4.2129,4.207,4.2812,4.3144,4.3242,4.3242,4.3457,4.3711,4.3711,4.3711,4.3711,4.3711,4.3711,4.3789,4.4121,4.4199,4.4394,4.5137,4.5312,4.5469,4.6016,4.5937,4.582,4.5918,4.5957,4.5859,4.5547,4.5508,4.5351,4.4922,4.459,4.4355,4.4219,4.3906,4.3711,4.3711,4.3711,4.3711,4.3711,4.3711,4.3711,4.3711,4.3711,4.3711,4.3711,4.3711,4.3711,4.3711,4.3711,4.3711,4.3711,4.3711,4.3711,4.3711,4.3711,4.3711,2.1716,2.1951,2.2178,2.2231,0.0,0.0,2.3634,2.4462,2.5422,2.5972,2.6867,2.7689,2.8201,2.8951,2.9474,2.9376,2.9814,2.9991,2.9724,2.9996,3.0203,3.0227,3.0647,3.1204,3.1759,3.2922,3.4017,3.4889,3.5989,3.6671,3.6746,3.6612,3.642,3.6219,3.6201,3.6201,3.6201,3.6201,3.6201,3.6201,3.6627,3.6886,3.7071,3.7715,3.8217,3.8652,3.9516,4.0039,4.0312,4.0918,4.1211,4.1211,4.1211,4.1211,4.1289,4.1914,4.2012,4.1894,4.2578,4.293,4.3127,4.3127,4.3359,4.3711,4.3711,4.3711,4.3711,4.3711,4.3711,4.3808,4.4277,4.4394,4.4668,4.5703,4.5937,4.6055,4.6465,4.6562,4.6504,4.6328,4.6308,4.623,4.5976,4.5937,4.5723,4.5117,4.4824,4.4531,4.416,4.3867,4.3711,4.3711,4.3711,4.3711,4.3711,4.3711,4.3711,4.3711,4.3711,4.3711,4.3711,4.3711,4.3711,4.3711,4.3711,4.3711,4.3711,4.3711,4.3711,4.3711,4.3711,4.3711,2.2057,2.2244,0.0,2.2176,2.2741,0.0,2.3078,2.3747,2.4557,2.5083,2.5995,2.6925,2.7726,2.8701,2.9467,2.9705,3.007,3.0193,2.9886,3.0441,3.0962,3.1253,3.1701,3.2335,3.3255,3.4318,3.5278,3.6029,3.6865,3.7169,3.6841,3.6439,3.6201,3.6201,3.6201,3.6201,3.6201,3.6201,3.6201,3.6201,3.6664,3.7034,3.7421,3.7862,3.8265,3.8669,3.9512,3.9902,3.9961,4.0859,4.1211,4.1211,4.1211,4.1211,4.1269,4.1641,4.1777,4.1797,4.2207,4.2637,4.3008,4.3008,4.332,4.3711,4.3711,4.3711,4.3711,4.3711,4.3711,4.3828,4.4336,4.4473,4.4805,4.6133,4.6406,4.6484,4.6914,4.6928,4.6753,4.6387,4.6308,4.6308,4.6308,4.6269,4.5976,4.5215,4.5019,4.4668,4.3887,4.373,4.3711,4.3711,4.3711,4.3711,4.3711,4.3711,4.3711,4.3711,4.3711,4.3711,4.3711,4.3711,4.3711,4.3711,4.3711,4.3711,4.3711,4.3711,4.3711,4.3711,4.3711,4.3711,2.2339,2.2446,2.2553,2.2826,2.343,0.0,2.387,2.475,2.5605,2.5734,2.645,2.7248,2.7731,2.832,2.8773,2.8847,2.9332,2.9971,3.0709,3.0723,3.0965,3.1741,3.1975,3.2442,3.3366,3.4922,3.5926,3.6072,3.6636,3.6894,3.6805,3.6439,3.6201,3.6201,3.6201,3.6201,3.6201,3.6201,3.6201,3.6201,3.6923,3.7329,3.7421,3.8136,3.8538,3.8669,3.9512,3.9902,3.9961,4.0859,4.1211,4.1211,4.1211,4.1211,4.1269,4.1641,4.1582,4.1348,4.1777,4.2207,4.2558,4.2558,4.3086,4.3711,4.3711,4.3711,4.3711,4.3711,4.3711,4.3887,4.4687,4.486,4.5312,4.6933,4.707,4.6933,4.7363,4.7187,4.6753,4.6387,4.6308,4.6308,4.6308,4.6016,4.5742,4.5566,4.4961,4.4453,4.4277,4.3926,4.3711,4.3711,4.3711,4.3711,4.3711,4.3711,4.3711,4.3711,4.3711,4.3711,4.3711,4.3711,4.3711,4.3711,4.3711,4.3711,4.3711,4.3711,4.3711,4.3711,4.3711,4.3711,2.2854,2.2955,2.3014,2.3242,2.3804,0.0,0.0,2.5086,2.584,2.6126,2.6959,2.771,2.7876,2.8834,2.9548,2.9402,2.9751,3.0346,3.1238,3.111,3.1373,3.2468,3.3046,3.3635,3.4335,3.561,3.6421,3.6424,3.6682,3.6713,3.6493,3.6329,3.6201,3.6201,3.6201,3.6201,3.6201,3.6201,3.6275,3.6516,3.7107,3.7532,3.7715,3.8319,3.8728,3.8926,3.9609,4.0019,4.0254,4.0898,4.1211,4.1211,4.1211,4.1211,4.123,4.1406,4.1348,4.125,4.1406,4.1758,4.2148,4.2323,4.2871,4.3437,4.3633,4.3711,4.3711,4.3711,4.3711,4.3906,4.4743,4.4977,4.5367,4.6894,4.709,4.6948,4.7207,4.709,4.6753,4.6387,4.6308,4.623,4.6035,4.582,4.5527,4.5098,4.4668,4.4316,4.4082,4.3848,4.3711,4.3711,4.3711,4.3711,4.3711,4.3711,4.3711,4.3711,4.3711,4.3711,4.3711,4.3711,4.3711,4.3711,4.3711,4.3711,4.3711,4.3711,4.3711,4.3711,4.3711,4.3711,2.342,2.3577,2.3658,2.3845,2.4477,2.5031,0.0,0.0,0.0,2.7012,2.7872,2.8519,2.8437,2.9598,3.0457,3.0258,3.0389,3.0735,3.1324,3.1214,3.1624,3.2968,3.3889,3.4621,3.5191,3.607,3.6672,3.6803,3.6731,3.653,3.6219,3.6201,3.6201,3.6201,3.6201,3.6201,3.6201,3.6201,3.6405,3.6812,3.7218,3.7605,3.8009,3.8428,3.8809,3.9219,3.9687,4.0137,4.0566,4.0996,4.1211,4.1211,4.1211,4.1211,4.1211,4.1211,4.1211,4.1211,4.1211,4.1445,4.1855,4.2187,4.2656,4.3205,4.3574,4.3711,4.3711,4.3711,4.3711,4.3906,4.4743,4.4918,4.5234,4.646,4.6738,4.6719,4.6753,4.6772,4.6699,4.6367,4.6308,4.6172,4.5742,4.5648,4.5293,4.4512,4.4316,4.4121,4.375,4.3711,4.3711,4.3711,4.3711,4.3711,4.3711,4.3711,4.3711,4.3711,4.3711,4.3711,4.3711,4.3789,4.3828,4.3828,4.3926,4.3965,4.3965,4.3867,4.3789,4.3711,4.3711,4.3711,2.3797,2.4156,2.4529,2.521,2.6133,2.6985,2.7287,0.0,2.8988,2.9333,0.0,3.0049,3.0049,0.0,0.0,3.0226,3.0288,3.0437,3.074,3.0514,3.0947,3.2734,3.3395,3.4024,3.489,3.5733,3.6403,3.6767,3.6457,3.6256,3.6201,3.6201,3.6201,3.6201,3.6201,3.6201,3.6201,3.6201,3.6405,3.6812,3.7218,3.7605,3.8009,3.8428,3.8809,3.9219,3.9687,4.0137,4.0566,4.0996,4.1211,4.1211,4.1211,4.1211,4.1211,4.1211,4.1211,4.1211,4.1211,4.1445,4.1816,4.1855,4.2422,4.3205,4.3574,4.3711,4.3711,4.3711,4.3711,4.3906,4.4743,4.4746,4.4785,4.6074,4.6094,4.5918,4.6289,4.6367,4.6367,4.6308,4.6308,4.6172,4.5742,4.5351,4.4941,4.4473,4.4043,4.3769,4.3711,4.3711,4.3711,4.3711,4.3711,4.3711,4.3711,4.3711,4.3711,4.3711,4.3711,4.3711,4.3711,4.4101,4.4316,4.4316,4.4687,4.484,4.484,4.4492,4.4101,4.3711,4.3711,4.3711,2.377,2.4183,2.4562,2.509,2.6167,2.7237,2.7616,2.8675,2.9757,3.031,0.0,0.0,0.0,0.0,0.0,0.0,3.077,3.0754,3.1046,3.0807,3.1015,3.2174,3.2951,3.3881,3.5166,3.5425,3.5558,3.5742,3.5596,3.5632,3.5852,3.587,3.5981,3.6201,3.6201,3.6201,3.6201,3.6201,3.6516,3.7144,3.7329,3.7733,3.8355,3.8501,3.8945,3.9609,3.9805,4.0273,4.0918,4.1132,4.1211,4.1211,4.1211,4.1211,4.1211,4.1211,4.1211,4.1211,4.1211,4.1328,4.1484,4.1719,4.2383,4.3105,4.3281,4.3516,4.3711,4.3711,4.3711,4.3848,4.4492,4.4531,4.459,4.5371,4.543,4.5351,4.5527,4.5762,4.5937,4.5937,4.6133,4.6172,4.5742,4.5527,4.5176,4.4492,4.4238,4.4004,4.373,4.3711,4.3711,4.3711,4.3711,4.3711,4.3711,4.3711,4.3711,4.3711,4.3711,4.3828,4.4101,4.4297,4.4512,4.4766,4.4899,4.4977,4.4977,4.4609,4.4297,4.4101,4.3828,4.3711,2.3747,2.4275,2.4784,2.5236,2.6439,2.7695,2.8309,2.937,3.0458,3.1298,3.1837,0.0,0.0,0.0,3.2067,3.1716,0.0,3.1228,3.1497,3.104,3.101,3.1816,3.2773,3.3864,3.5139,3.5101,3.4954,3.4826,3.4936,3.5064,3.5284,3.5504,3.5724,3.6036,3.6146,3.6201,3.6201,3.6201,3.659,3.7421,3.7421,3.7806,3.8611,3.8611,3.9099,3.9902,3.9902,4.0391,4.1211,4.1211,4.1211,4.1211,4.1211,4.1211,4.1211,4.1211,4.1211,4.1211,4.1211,4.1211,4.1289,4.166,4.2305,4.293,4.3047,4.3379,4.3711,4.3711,4.3711,4.3808,4.4277,4.4297,4.4316,4.4746,4.4863,4.4863,4.4863,4.5195,4.5527,4.5688,4.5918,4.6074,4.5879,4.5742,4.543,4.4687,4.4473,4.4277,4.3945,4.3789,4.3711,4.3711,4.3711,4.375,4.3887,4.3887,4.3945,4.4062,4.4062,4.4219,4.4551,4.4687,4.4883,4.5195,4.5312,4.5371,4.5371,4.4824,4.457,4.4551,4.3984,4.3711,2.387,2.4638,2.5532,2.6289,2.757,2.8957,3.0072,3.0859,3.1649,3.2687,3.2912,3.2848,3.2848,0.0,0.0,0.0,3.2025,0.0,0.0,3.0879,3.0671,3.1861,3.3038,3.3944,3.4405,3.4771,3.4826,3.4458,3.4771,3.4826,3.4458,3.5192,3.5632,3.5632,3.6017,3.6201,3.6201,3.6201,3.659,3.7421,3.7421,3.7806,3.8611,3.8611,3.9099,3.9902,3.9902,4.0391,4.1211,4.1211,4.1211,4.1211,4.1211,4.1211,4.1211,4.1211,4.1211,4.1211,4.1211,4.1211,4.1289,4.166,4.209,4.2519,4.2949,4.3379,4.3711,4.3711,4.3711,4.3808,4.4277,4.4062,4.3848,4.4316,4.4414,4.4414,4.4414,4.4746,4.5176,4.5586,4.5727,4.582,4.6211,4.5937,4.5527,4.5035,4.4668,4.4394,4.4375,4.3984,4.3711,4.3711,4.3711,4.3887,4.4336,4.4375,4.4551,4.4918,4.4938,4.4957,4.4957,4.541,4.5644,4.5688,4.6055,4.6269,4.6269,4.541,4.4957,4.4938,4.4121,4.3711,2.4053,2.4756,2.5505,2.6005,2.7218,2.8623,2.9799,3.0788,3.1858,3.3185,3.3364,3.3367,3.3656,0.0,0.0,0.0,0.0,0.0,0.0,3.1009,3.105,3.1787,3.2308,3.275,3.3177,3.334,3.3358,3.3211,3.334,3.3596,3.3982,3.4275,3.4753,3.5559,3.5742,3.5944,3.6201,3.6201,3.659,3.7421,3.7421,3.7806,3.8611,3.8611,3.9099,3.9902,3.9902,4.0391,4.1211,4.1211,4.1211,4.1211,4.1211,4.1211,4.1211,4.1211,4.1211,4.1211,4.1211,4.1211,4.123,4.1387,4.1855,4.2421,4.2598,4.3144,4.3711,4.3711,4.3711,4.3808,4.4277,4.4043,4.3828,4.4297,4.416,4.3945,4.3945,4.4297,4.4746,4.5156,4.5488,4.5801,4.623,4.6191,4.5937,4.5527,4.5332,4.5039,4.4473,4.4258,4.4043,4.373,4.3984,4.4219,4.4394,4.4648,4.4883,4.4977,4.4977,4.5156,4.5449,4.5605,4.5801,4.6094,4.623,4.6308,4.6308,4.5742,4.5176,4.4609,4.4297,4.4004,2.4155,2.4856,2.5614,2.5976,2.7286,2.8806,3.0012,3.0989,3.2047,3.3438,3.3392,3.3255,3.3643,0.0,0.0,0.0,0.0,0.0,0.0,3.0747,3.0936,3.1015,3.1594,3.2122,3.2534,3.2453,3.2331,3.2166,3.2294,3.2551,3.2936,3.3505,3.4238,3.5155,3.5467,3.5797,3.6201,3.6201,3.659,3.7421,3.7421,3.7806,3.8611,3.8611,3.9099,3.9902,3.9902,4.0391,4.1211,4.1211,4.1211,4.1211,4.1211,4.1211,4.1211,4.1211,4.1211,4.1211,4.1211,4.1211,4.123,4.1348,4.1855,4.2421,4.2617,4.3262,4.3945,4.3945,4.4062,4.4219,4.4355,4.4277,4.416,4.416,4.4043,4.3906,4.373,4.4062,4.4531,4.4899,4.5371,4.5801,4.623,4.6308,4.6211,4.5937,4.5781,4.543,4.4707,4.4492,4.4277,4.3984,4.4219,4.4531,4.4824,4.5234,4.5469,4.5469,4.5469,4.5605,4.5879,4.5898,4.6035,4.6289,4.6308,4.6308,4.6308,4.5879,4.5312,4.4609,4.4297,4.3984]},{"header":{"parameterUnit":"m.s-1","parameterCategory":1,"la1":30.6,"la2":29.2853,"lo1":-89.7004,"lo2":-87.6739,"dy":0.0162,"dx":0.0183,"nx":112,"ny":82,"refTime":"2023-09-27T00:00:00:Z","depth":0,"parameterNumber":3,"parameterNumberName":"V-component_of_WINDS"},"data":[0.0,0.0,0.0,0.0,0.0,0.0,0.0,0.0,0.0,0.0,0.0,0.0,0.0,0.0,0.0,0.0,0.0,0.0,0.0,0.0,0.0,0.0,0.0,0.0,0.0,0.0,0.0,0.0,0.0,0.0,0.0,0.0,0.0,0.0,0.0,0.0,0.0,0.0,0.0,0.0,0.0,0.0,0.0,0.0,0.0,0.0,0.0,0.0,0.0,0.0,0.0,0.0,0.0,0.0,0.0,0.0,0.0,0.0,0.0,0.0,0.0,0.0,0.0,0.0,0.0,0.0,0.0,0.0,0.0,0.0,0.0,0.0,0.0,0.0,0.0,0.0,0.0,0.0,0.0,0.0,0.0,0.0,0.0,0.0,0.0,0.0,0.0,0.0,0.0,0.0,4.4978,4.7355,4.9327,5.0769,5.1453,5.0683,4.9489,4.7988,0.0,0.0,0.0,0.0,0.0,0.0,0.0,0.0,0.0,0.0,0.0,0.0,0.0,0.0,0.0,0.0,0.0,0.0,0.0,0.0,0.0,0.0,0.0,0.0,0.0,0.0,0.0,0.0,0.0,0.0,0.0,0.0,0.0,0.0,0.0,0.0,0.0,0.0,0.0,0.0,0.0,0.0,0.0,0.0,0.0,0.0,0.0,0.0,0.0,0.0,0.0,0.0,0.0,0.0,0.0,0.0,0.0,0.0,0.0,0.0,0.0,0.0,0.0,0.0,0.0,0.0,0.0,0.0,0.0,0.0,0.0,0.0,0.0,0.0,0.0,0.0,0.0,0.0,0.0,0.0,0.0,0.0,0.0,0.0,0.0,0.0,0.0,0.0,0.0,0.0,0.0,0.0,0.0,0.0,0.0,0.0,0.0,0.0,0.0,0.0,0.0,0.0,0.0,0.0,4.5649,4.9097,5.0238,5.0979,5.1626,5.0856,4.9647,4.7988,0.0,0.0,0.0,0.0,0.0,0.0,0.0,0.0,0.0,0.0,0.0,0.0,0.0,0.0,0.0,0.0,0.0,0.0,0.0,0.0,0.0,0.0,0.0,0.0,0.0,0.0,0.0,0.0,0.0,0.0,0.0,0.0,0.0,0.0,0.0,0.0,0.0,0.0,0.0,0.0,0.0,0.0,0.0,0.0,0.0,0.0,0.0,0.0,0.0,0.0,0.0,0.0,0.0,0.0,0.0,0.0,0.0,0.0,0.0,0.0,0.0,0.0,0.0,0.0,0.0,0.0,0.0,0.0,0.0,0.0,0.0,0.0,0.0,0.0,0.0,0.0,0.0,0.0,0.0,0.0,0.0,0.0,0.0,0.0,0.0,0.0,0.0,0.0,0.0,0.0,0.0,0.0,0.0,0.0,0.0,0.0,0.0,0.0,0.0,0.0,0.0,0.0,0.0,4.5121,4.6599,4.8263,4.8896,4.924,4.935,4.8888,4.7878,4.6225,4.3673,0.0,0.0,0.0,0.0,0.0,0.0,0.0,0.0,0.0,0.0,0.0,0.0,0.0,0.0,0.0,0.0,0.0,0.0,0.0,0.0,0.0,0.0,0.0,0.0,0.0,0.0,0.0,0.0,0.0,0.0,0.0,0.0,0.0,0.0,0.0,0.0,0.0,0.0,0.0,0.0,0.0,0.0,0.0,0.0,0.0,0.0,0.0,0.0,0.0,0.0,0.0,0.0,0.0,0.0,0.0,0.0,0.0,0.0,0.0,0.0,0.0,0.0,0.0,0.0,0.0,0.0,0.0,0.0,0.0,0.0,0.0,0.0,0.0,0.0,0.0,0.0,0.0,0.0,0.0,0.0,0.0,0.0,0.0,0.0,0.0,0.0,0.0,0.0,0.0,0.0,0.0,0.0,0.0,0.0,0.0,0.0,0.0,0.0,0.0,0.0,0.0,0.0,4.614,4.7452,4.7362,4.7745,4.7974,4.7893,4.7461,4.6584,4.5088,4.2717,0.0,0.0,0.0,0.0,0.0,0.0,0.0,0.0,0.0,0.0,0.0,0.0,0.0,0.0,0.0,0.0,0.0,0.0,0.0,0.0,0.0,0.0,0.0,0.0,0.0,0.0,0.0,0.0,0.0,0.0,0.0,0.0,0.0,0.0,0.0,0.0,0.0,0.0,0.0,0.0,0.0,0.0,0.0,0.0,0.0,0.0,0.0,0.0,0.0,0.0,0.0,0.0,0.0,0.0,0.0,0.0,0.0,0.0,0.0,0.0,0.0,0.0,0.0,0.0,0.0,0.0,0.0,0.0,0.0,0.0,0.0,0.0,0.0,0.0,0.0,0.0,0.0,0.0,0.0,0.0,0.0,0.0,0.0,0.0,0.0,0.0,0.0,0.0,0.0,0.0,0.0,0.0,0.0,0.0,0.0,0.0,0.0,0.0,0.0,0.0,0.0,0.0,4.6608,4.801,4.7855,4.8307,4.8802,4.9224,4.8382,4.7348,4.6261,4.3387,0.0,0.0,0.0,0.0,0.0,0.0,0.0,0.0,0.0,0.0,0.0,0.0,0.0,0.0,0.0,0.0,0.0,0.0,0.0,0.0,0.0,0.0,0.0,0.0,0.0,0.0,0.0,0.0,0.0,0.0,0.0,0.0,0.0,0.0,0.0,0.0,0.0,0.0,0.0,0.0,0.0,0.0,0.0,0.0,0.0,0.0,0.0,0.0,0.0,0.0,0.0,0.0,0.0,0.0,0.0,0.0,0.0,0.0,0.0,0.0,0.0,0.0,0.0,0.0,0.0,0.0,0.0,0.0,0.0,0.0,0.0,0.0,0.0,0.0,0.0,0.0,0.0,0.0,0.0,0.0,0.0,0.0,0.0,0.0,0.0,0.0,0.0,0.0,0.0,0.0,0.0,0.0,0.0,0.0,0.0,0.0,0.0,0.0,0.0,0.0,0.0,0.0,4.6459,4.7527,4.7368,4.7441,4.7447,4.7302,4.6839,4.5923,4.4406,0.0,0.0,0.0,0.0,0.0,0.0,0.0,0.0,0.0,0.0,0.0,0.0,0.0,0.0,0.0,0.0,0.0,0.0,0.0,0.0,0.0,0.0,0.0,0.0,0.0,0.0,0.0,0.0,0.0,0.0,0.0,0.0,0.0,0.0,0.0,0.0,0.0,0.0,0.0,0.0,0.0,0.0,0.0,0.0,0.0,0.0,0.0,0.0,0.0,0.0,0.0,0.0,0.0,0.0,0.0,0.0,0.0,0.0,0.0,0.0,0.0,0.0,0.0,0.0,0.0,0.0,0.0,0.0,0.0,0.0,0.0,0.0,0.0,0.0,0.0,0.0,0.0,0.0,0.0,0.0,0.0,0.0,0.0,0.0,0.0,0.0,0.0,0.0,0.0,0.0,0.0,0.0,0.0,0.0,0.0,0.0,0.0,0.0,0.0,0.0,0.0,0.0,4.488,4.6239,4.7065,4.7154,4.703,4.6908,4.6728,4.637,4.552,4.3924,0.0,0.0,0.0,0.0,0.0,0.0,0.0,0.0,0.0,0.0,0.0,0.0,0.0,0.0,0.0,0.0,0.0,0.0,0.0,0.0,0.0,0.0,0.0,0.0,0.0,0.0,0.0,0.0,0.0,0.0,0.0,0.0,0.0,0.0,0.0,0.0,0.0,0.0,0.0,0.0,0.0,0.0,0.0,0.0,0.0,0.0,0.0,0.0,0.0,0.0,0.0,0.0,0.0,0.0,0.0,0.0,0.0,0.0,0.0,0.0,0.0,0.0,0.0,0.0,0.0,0.0,0.0,0.0,0.0,0.0,0.0,0.0,0.0,0.0,0.0,0.0,0.0,0.0,0.0,0.0,0.0,0.0,0.0,0.0,0.0,0.0,0.0,0.0,0.0,0.0,0.0,0.0,0.0,0.0,0.0,0.0,0.0,0.0,0.0,0.0,0.0,0.0,4.4983,4.5997,4.6742,4.7421,4.7385,4.7577,4.823,4.7495,4.6538,0.0,0.0,0.0,0.0,0.0,0.0,0.0,0.0,0.0,0.0,0.0,0.0,0.0,0.0,0.0,0.0,0.0,0.0,0.0,0.0,0.0,0.0,0.0,0.0,0.0,0.0,0.0,0.0,0.0,0.0,0.0,0.0,0.0,0.0,0.0,0.0,0.0,0.0,0.0,0.0,0.0,0.0,0.0,0.0,0.0,0.0,0.0,0.0,0.0,0.0,0.0,0.0,0.0,0.0,0.0,0.0,0.0,0.0,0.0,0.0,0.0,0.0,0.0,0.0,0.0,0.0,0.0,0.0,0.0,0.0,0.0,0.0,0.0,0.0,0.0,0.0,0.0,0.0,0.0,0.0,0.0,0.0,0.0,0.0,0.0,0.0,0.0,0.0,0.0,0.0,0.0,0.0,0.0,0.0,0.0,0.0,0.0,0.0,0.0,0.0,0.0,0.0,0.0,4.4222,4.5635,4.6525,4.6627,4.7126,4.746,4.7512,4.6751,4.5853,4.4836,0.0,0.0,0.0,0.0,0.0,0.0,0.0,0.0,0.0,0.0,0.0,0.0,0.0,0.0,0.0,0.0,0.0,0.0,0.0,0.0,0.0,0.0,0.0,0.0,0.0,0.0,0.0,0.0,0.0,0.0,0.0,0.0,0.0,0.0,0.0,0.0,0.0,0.0,0.0,0.0,0.0,0.0,0.0,0.0,0.0,0.0,0.0,0.0,0.0,0.0,0.0,0.0,0.0,0.0,0.0,0.0,0.0,0.0,0.0,0.0,0.0,0.0,0.0,0.0,0.0,0.0,0.0,0.0,0.0,0.0,0.0,0.0,0.0,0.0,0.0,0.0,0.0,0.0,0.0,0.0,0.0,0.0,0.0,0.0,0.0,0.0,0.0,0.0,0.0,0.0,0.0,0.0,0.0,0.0,0.0,0.0,0.0,0.0,0.0,0.0,0.0,0.0,4.386,4.5236,4.6111,4.6329,4.7087,4.7385,4.6967,4.6489,4.5659,4.4378,0.0,0.0,0.0,0.0,0.0,0.0,0.0,0.0,0.0,0.0,0.0,0.0,0.0,0.0,0.0,0.0,0.0,0.0,0.0,0.0,0.0,0.0,0.0,0.0,0.0,0.0,0.0,0.0,0.0,0.0,0.0,0.0,0.0,0.0,0.0,0.0,0.0,0.0,0.0,0.0,0.0,0.0,0.0,0.0,0.0,0.0,0.0,0.0,0.0,0.0,0.0,0.0,0.0,0.0,0.0,0.0,0.0,0.0,0.0,0.0,0.0,0.0,0.0,0.0,0.0,0.0,0.0,0.0,0.0,0.0,0.0,0.0,0.0,0.0,0.0,0.0,0.0,0.0,0.0,0.0,0.0,0.0,0.0,0.0,0.0,0.0,0.0,0.0,0.0,0.0,0.0,0.0,0.0,0.0,0.0,0.0,0.0,0.0,0.0,0.0,0.0,0.0,4.3689,4.4693,4.5454,4.6214,4.7001,4.7182,4.6468,4.6333,4.5641,4.4094,0.0,0.0,0.0,0.0,0.0,0.0,0.0,0.0,0.0,0.0,0.0,0.0,0.0,0.0,0.0,0.0,0.0,0.0,0.0,0.0,0.0,0.0,0.0,0.0,0.0,0.0,0.0,0.0,0.0,0.0,0.0,0.0,0.0,0.0,0.0,0.0,0.0,0.0,0.0,0.0,0.0,0.0,0.0,0.0,0.0,0.0,0.0,0.0,0.0,0.0,0.0,0.0,0.0,0.0,0.0,0.0,0.0,0.0,0.0,0.0,5.4097,5.2531,0.0,0.0,0.0,0.0,0.0,0.0,0.0,0.0,0.0,0.0,0.0,0.0,0.0,0.0,0.0,0.0,0.0,0.0,0.0,0.0,0.0,0.0,0.0,0.0,0.0,0.0,0.0,0.0,0.0,0.0,0.0,0.0,0.0,0.0,0.0,0.0,0.0,0.0,0.0,0.0,4.3,4.387,4.4413,4.4584,4.5345,4.5743,4.5562,4.5062,4.4563,4.4094,4.3418,0.0,0.0,0.0,0.0,0.0,0.0,0.0,0.0,0.0,0.0,0.0,0.0,0.0,0.0,0.0,0.0,0.0,0.0,0.0,0.0,0.0,0.0,0.0,0.0,0.0,0.0,0.0,0.0,0.0,0.0,0.0,0.0,0.0,0.0,0.0,0.0,0.0,0.0,0.0,0.0,0.0,0.0,0.0,0.0,0.0,0.0,0.0,0.0,0.0,0.0,0.0,0.0,0.0,0.0,0.0,0.0,0.0,0.0,0.0,5.6174,5.4874,0.0,0.0,0.0,0.0,0.0,0.0,0.0,0.0,0.0,0.0,0.0,0.0,0.0,0.0,0.0,0.0,0.0,0.0,0.0,0.0,0.0,0.0,0.0,0.0,0.0,0.0,0.0,0.0,0.0,0.0,0.0,0.0,0.0,0.0,0.0,0.0,0.0,0.0,0.0,0.0,4.2819,4.3616,4.4106,4.4191,4.4917,4.5263,4.4902,4.456,4.4133,4.3686,4.3323,0.0,0.0,0.0,0.0,0.0,0.0,0.0,0.0,0.0,0.0,0.0,0.0,0.0,0.0,0.0,0.0,0.0,0.0,0.0,0.0,0.0,0.0,0.0,0.0,0.0,0.0,0.0,0.0,0.0,0.0,0.0,0.0,0.0,0.0,0.0,0.0,0.0,0.0,0.0,0.0,0.0,0.0,0.0,0.0,0.0,0.0,0.0,0.0,0.0,0.0,0.0,0.0,0.0,6.377,6.3801,6.3018,6.2941,6.2546,6.1824,5.9293,5.8259,5.8174,5.5906,0.0,0.0,0.0,0.0,0.0,0.0,0.0,0.0,0.0,0.0,0.0,0.0,0.0,0.0,0.0,0.0,0.0,0.0,0.0,0.0,0.0,0.0,5.0385,5.2158,5.2725,5.218,4.9808,0.0,0.0,0.0,0.0,0.0,0.0,0.0,0.0,0.0,0.0,0.0,4.2866,4.3519,4.3983,4.4114,4.4696,4.4834,4.4253,4.4199,4.3926,4.3269,4.3251,4.2931,0.0,0.0,0.0,0.0,0.0,0.0,0.0,0.0,0.0,0.0,0.0,0.0,0.0,0.0,0.0,0.0,0.0,0.0,0.0,0.0,0.0,0.0,0.0,0.0,0.0,0.0,0.0,0.0,0.0,0.0,0.0,0.0,5.2361,5.3363,0.0,0.0,0.0,0.0,0.0,0.0,0.0,0.0,0.0,0.0,0.0,0.0,0.0,6.1036,6.1248,6.2912,6.3815,6.3923,6.5488,6.6135,6.5942,6.5773,6.5988,6.6464,6.5149,0.0,6.0077,5.89,0.0,0.0,0.0,0.0,0.0,0.0,0.0,0.0,0.0,0.0,0.0,0.0,0.0,0.0,0.0,0.0,0.0,0.0,0.0,0.0,0.0,0.0,5.3754,5.3711,5.4752,5.5384,5.4022,5.1908,4.9825,4.8307,4.6641,4.5187,0.0,0.0,0.0,0.0,0.0,0.0,4.3133,4.3242,4.3324,4.3333,4.3452,4.3452,4.3351,4.3478,4.3495,4.3376,4.3428,4.3398,4.3325,4.3288,0.0,0.0,0.0,0.0,0.0,0.0,0.0,0.0,0.0,0.0,0.0,0.0,0.0,0.0,0.0,0.0,0.0,0.0,0.0,0.0,0.0,0.0,0.0,0.0,0.0,0.0,0.0,0.0,0.0,5.2567,5.4648,5.5992,5.5723,5.5301,0.0,0.0,0.0,0.0,0.0,0.0,0.0,0.0,0.0,6.1232,6.2904,6.4258,6.5252,6.6427,6.7034,6.7031,6.822,6.8485,6.7945,6.7876,6.7997,6.8224,6.8193,6.6975,6.4801,6.234,6.0067,5.8077,0.0,0.0,0.0,0.0,5.567,5.5823,5.7039,5.7498,5.7268,5.6052,0.0,0.0,0.0,0.0,0.0,0.0,0.0,5.1237,5.2774,5.3875,5.4836,5.5901,5.6189,5.6075,5.5475,5.366,5.1708,4.9981,4.7982,4.6231,4.5333,4.4145,0.0,0.0,0.0,4.3205,4.3205,4.3205,4.3233,4.3295,4.3295,4.3322,4.3375,4.3419,4.3445,4.3445,4.3489,4.3506,4.3506,4.3506,4.3506,0.0,0.0,0.0,0.0,0.0,0.0,0.0,0.0,0.0,0.0,0.0,0.0,0.0,0.0,0.0,0.0,0.0,0.0,0.0,0.0,0.0,0.0,0.0,0.0,0.0,0.0,0.0,0.0,5.504,5.6806,5.8301,5.7954,5.757,0.0,0.0,0.0,0.0,0.0,0.0,5.8528,6.1605,6.3745,6.4596,6.6269,6.7745,6.9057,6.9894,7.0193,6.9998,7.0817,7.0703,6.9814,6.9786,6.9735,6.9659,7.0147,6.9805,6.8633,6.5358,6.2961,6.1284,6.0186,5.8842,5.7664,5.8536,5.8842,5.8956,5.979,6.0057,5.9904,5.888,5.7664,5.625,5.4339,0.0,0.0,0.0,0.0,5.2616,5.4489,5.4996,5.5406,5.698,5.6837,5.6211,5.5737,5.4437,5.2839,5.1116,4.881,4.6837,4.5975,4.45,0.0,4.3295,4.3286,4.3286,4.3286,4.3286,4.3313,4.3393,4.3438,4.3465,4.3497,4.3506,4.3506,4.3506,4.3506,4.3506,4.3506,4.3506,4.3506,4.3506,0.0,0.0,0.0,0.0,0.0,0.0,0.0,0.0,0.0,0.0,0.0,0.0,0.0,0.0,0.0,0.0,0.0,0.0,0.0,0.0,0.0,0.0,0.0,0.0,0.0,0.0,0.0,0.0,0.0,6.0173,6.0212,0.0,0.0,0.0,0.0,5.9978,6.0876,6.2121,6.3831,6.6366,6.8161,6.9059,7.0684,7.1613,7.1728,7.2567,7.2596,7.1778,7.2632,7.2619,7.1772,7.1708,7.1677,7.1631,7.143,7.081,6.9767,6.757,6.5695,6.3925,6.2163,6.0943,6.03,6.1134,6.1402,6.1554,6.2426,6.2693,6.2426,6.0797,5.8619,5.6594,5.6441,5.525,0.0,0.0,5.4594,5.4161,5.4961,5.5655,5.608,5.5942,5.6284,5.6351,5.5184,5.4189,5.2978,5.1136,4.881,4.6856,4.6021,0.0,4.3497,4.3497,4.3489,4.3489,4.3489,4.3489,4.3497,4.3497,4.3497,4.3506,4.3506,4.3506,4.3506,4.3506,4.3506,4.3506,4.3506,4.3506,4.3506,4.3506,4.3506,0.0,0.0,0.0,0.0,0.0,0.0,0.0,0.0,0.0,0.0,0.0,0.0,0.0,0.0,0.0,0.0,0.0,0.0,0.0,0.0,0.0,0.0,0.0,0.0,0.0,0.0,0.0,0.0,6.4234,6.4078,0.0,6.5261,6.3851,6.3534,6.5248,6.6141,6.715,6.8357,7.0346,7.1595,7.1909,7.2996,7.3307,7.2798,7.3104,7.2829,7.1971,7.2232,7.2215,7.1917,7.1894,7.183,7.1794,7.1661,7.1025,6.9958,6.8485,6.7093,6.58,6.4534,6.3541,6.2937,6.3732,6.3732,6.3396,6.4229,6.3801,6.2617,6.095,5.9422,5.8223,5.8223,5.7428,5.6473,5.6243,5.5938,5.5772,5.5998,5.6126,5.63,5.6606,5.6278,5.5762,5.5096,5.337,5.1733,5.0952,4.9214,4.7452,4.614,4.5002,4.4085,4.3579,4.3506,4.3506,4.3506,4.3506,4.3506,4.3506,4.3506,4.3506,4.3506,4.3506,4.3506,4.3506,4.3506,4.3506,4.3506,4.3506,4.3506,4.3506,4.3506,4.3506,0.0,0.0,0.0,0.0,0.0,0.0,0.0,0.0,0.0,0.0,0.0,0.0,0.0,0.0,0.0,0.0,0.0,0.0,0.0,0.0,0.0,0.0,0.0,0.0,0.0,6.1408,6.4494,6.7352,6.7743,6.8292,6.9704,6.8839,6.8757,7.0162,7.0781,7.1363,7.1948,7.3354,7.4134,7.4134,7.4642,7.4681,7.4134,7.386,7.3275,7.2456,7.2363,7.2188,7.1891,7.1908,7.1726,7.1385,7.1283,7.0657,6.958,6.8457,6.7557,6.6748,6.5765,6.507,6.4657,6.5184,6.507,6.4657,6.4879,6.3885,6.228,6.1172,6.0217,5.9529,5.9529,5.8956,5.8192,5.7619,5.7032,5.6548,5.6525,5.615,5.586,5.6305,5.5701,5.4985,5.4651,5.277,5.1042,5.0842,4.9214,4.7562,4.6498,4.5654,4.4929,4.4387,4.4093,4.3901,4.3901,4.3653,4.3506,4.3506,4.3506,4.3506,4.3506,4.3506,4.3506,4.3506,4.3506,4.3506,4.3506,4.3506,4.3506,4.3506,4.3506,4.3506,4.3506,0.0,0.0,0.0,0.0,0.0,0.0,0.0,0.0,0.0,0.0,0.0,0.0,0.0,0.0,0.0,0.0,0.0,0.0,0.0,0.0,0.0,0.0,0.0,6.0549,6.422,6.7577,6.9334,7.105,7.2456,7.3352,7.343,7.3743,7.4564,7.4603,7.4564,7.4564,7.5385,7.5853,7.5853,7.5814,7.5775,7.5775,7.4876,7.4055,7.3273,7.3179,7.273,7.1889,7.1867,7.1414,7.0606,7.0427,6.976,6.8675,6.7635,6.7077,6.6744,6.5787,6.5413,6.5413,6.5413,6.5375,6.5261,6.4428,6.3052,6.1593,6.1554,6.1019,6.0415,6.0415,5.9797,5.914,5.9102,5.787,5.6525,5.648,5.5703,5.489,5.4806,5.4489,5.4098,5.3851,5.238,5.1042,5.0842,4.881,4.7113,4.7113,4.6425,4.5883,4.5883,4.5177,0.0,4.4663,4.3975,4.3506,4.3506,4.3506,4.3506,4.3506,4.3506,4.3506,4.3506,4.3506,4.3506,4.3506,4.3506,4.3506,4.3506,4.3506,4.3506,4.3506,0.0,0.0,0.0,0.0,0.0,0.0,0.0,0.0,0.0,0.0,0.0,0.0,0.0,0.0,0.0,0.0,0.0,0.0,0.0,0.0,0.0,6.0889,6.4126,6.4178,6.7303,7.0504,7.2807,7.4097,7.5346,7.6867,7.6438,7.6399,7.7259,7.675,7.6399,7.6399,7.6594,7.675,7.675,7.6115,7.5483,7.4861,7.3988,7.3121,7.2299,7.2279,7.2147,7.1867,7.1258,7.0801,7.0497,6.9759,6.8858,6.7823,6.7386,6.6731,6.5932,6.555,6.5413,6.5413,6.5413,6.5031,6.4428,6.3541,6.2548,6.1516,6.0912,6.0568,6.0415,6.0415,6.0224,5.9911,5.9293,5.829,5.7274,5.6608,5.5585,5.4715,5.4611,5.4354,5.4055,5.3719,5.2305,5.1042,5.0842,4.9251,4.7783,4.7186,4.6425,4.57,4.5104,4.4342,4.3828,4.3828,4.3653,4.3506,4.3506,4.3506,4.3506,4.3506,4.3506,4.3506,4.3506,4.3506,4.3506,4.3506,4.3506,4.3506,4.3506,4.3506,4.3506,0.0,0.0,0.0,0.0,0.0,0.0,0.0,0.0,0.0,0.0,0.0,0.0,0.0,0.0,0.0,0.0,0.0,0.0,0.0,0.0,0.0,0.0,6.4426,6.7619,6.9114,7.1029,7.2981,7.4815,7.6105,7.7236,7.8251,7.8212,7.8212,7.8368,7.79,7.7431,7.708,7.7041,7.7041,7.7041,7.5899,7.4995,7.4488,7.3267,7.24,7.1891,7.1908,7.1892,7.184,7.0957,7.0335,6.986,6.8928,6.7903,6.6887,6.6711,6.6185,6.5544,0.0,0.0,0.0,0.0,6.4389,6.3541,6.2662,6.1784,6.1019,6.0568,6.0415,6.0415,6.0415,6.0394,6.0244,5.9741,5.8656,5.7505,5.6937,5.5638,5.4468,5.4371,5.4089,5.3823,5.3593,5.2217,5.0983,5.0832,4.9444,0.0,4.7672,4.7195,4.6608,4.5838,4.5039,4.4378,4.4048,4.3726,4.3616,4.3983,4.4011,4.4011,4.4011,4.4011,0.0,0.0,0.0,4.3506,4.3506,4.3506,0.0,0.0,0.0,4.4167,4.4497,4.4497,0.0,0.0,4.4158,4.4415,0.0,0.0,0.0,0.0,0.0,0.0,0.0,0.0,0.0,0.0,0.0,0.0,0.0,0.0,0.0,0.0,6.8152,7.099,7.4191,7.4734,7.5086,7.5831,7.7316,7.8291,7.8291,7.8995,7.9112,7.8369,7.8213,7.7823,7.7045,7.7006,0.0,0.0,0.0,7.4581,7.4503,7.2862,7.2,7.1881,7.1899,7.1833,7.1764,7.0874,7.0003,6.9142,6.82,6.7237,6.6323,6.6031,6.576,6.5479,6.5405,6.5413,6.5299,6.4619,6.3732,6.277,6.2006,0.0,0.0,6.0415,6.0415,6.0415,6.0408,6.0344,6.0234,6.0143,5.8798,5.7337,5.7151,5.5655,5.4134,5.4091,5.3814,5.3563,5.3491,5.2183,5.0969,5.0822,4.9517,4.8406,4.8333,4.8223,4.7929,4.7223,4.6425,4.5626,4.492,4.4195,4.4048,4.4773,4.4847,0.0,4.4847,4.4847,4.448,4.369,4.3653,4.369,4.3763,4.3763,4.413,4.481,4.4847,4.5186,4.5883,4.5883,4.5957,4.603,4.5214,4.5259,0.0,0.0,0.0,0.0,0.0,0.0,0.0,0.0,0.0,0.0,0.0,0.0,0.0,0.0,0.0,6.8072,7.1291,7.389,7.5255,7.6056,7.6565,7.6765,7.7667,7.8291,7.8291,7.8447,7.8486,7.8291,7.7667,7.7162,7.7006,7.7006,7.7006,7.7006,7.601,7.5143,7.4441,7.3405,7.2524,7.1833,7.1827,0.0,7.1694,7.0759,7.0166,6.9755,6.8831,6.8208,6.7821,6.7022,6.6203,6.5436,6.5421,6.5413,6.5375,6.5222,6.4229,6.2884,6.2693,6.1669,6.0415,6.0415,6.0415,6.0401,6.033,6.0219,0.0,5.9178,5.8056,5.6953,5.6124,5.4954,5.3935,5.387,5.3678,5.3491,5.3369,5.2565,5.1678,5.0932,4.9994,4.9123,4.8406,4.7746,4.7259,4.7113,4.6425,4.5847,4.57,4.5516,4.548,4.5663,4.5663,4.5663,4.5663,4.5663,4.5333,4.4516,4.448,4.4745,4.5406,4.5443,4.5516,4.5663,4.5663,4.5736,4.5883,4.5883,4.625,4.6856,4.603,4.6094,0.0,0.0,0.0,0.0,0.0,0.0,0.0,0.0,0.0,0.0,0.0,6.113,6.3735,0.0,6.8399,7.1365,7.4034,7.6006,7.6863,7.7398,7.7479,7.7041,7.7394,7.7667,7.7667,7.7667,7.7667,7.7667,7.7238,7.7004,7.7004,7.7004,7.7004,7.7004,7.612,7.5441,7.5012,7.3678,7.2786,7.2337,7.1874,7.1618,7.149,7.0544,7.0005,6.9793,6.885,6.8366,6.8116,6.7199,6.6514,6.6025,6.5566,6.5413,6.5337,6.4955,6.4,6.2846,6.2395,6.144,6.0415,6.0415,6.0387,6.0337,6.0219,6.0045,5.9774,5.9265,5.798,5.6673,5.6125,5.4848,5.3651,5.358,5.343,5.3334,5.3272,5.261,5.1791,5.0959,5.0151,4.9307,4.8443,4.7966,4.7562,4.7149,4.6755,4.6351,4.5957,4.5883,4.6067,4.6461,4.6498,4.6498,4.6498,4.614,4.5736,4.5333,4.5296,4.548,4.5883,4.5883,4.6104,4.6498,4.6498,4.6682,4.7095,4.7095,4.7535,4.8343,4.7948,4.7719,0.0,0.0,0.0,0.0,0.0,0.0,0.0,6.0896,6.2717,6.3025,6.4351,6.6223,6.8832,6.9984,7.157,7.4652,7.6468,7.7737,7.8438,7.8516,7.8282,7.7584,7.7194,7.6999,7.6999,7.6999,7.6999,7.6999,7.6993,7.6987,7.6987,7.6978,7.6969,7.6969,7.6193,7.574,7.5542,7.4118,7.3258,7.3035,7.2301,7.1775,7.1462,7.07,7.0186,6.9854,6.9036,6.8541,6.8264,6.7485,6.6972,6.6636,6.5948,6.5566,6.5337,6.4657,6.3885,6.3037,6.2357,6.1433,6.0623,6.0623,6.0437,6.0227,6.0053,5.9826,5.9601,5.9293,5.8006,5.663,5.6364,5.5114,5.391,5.3807,5.3592,5.3434,5.3434,5.2784,5.1987,5.1206,5.0518,4.9784,4.893,4.8783,4.8443,4.748,4.7333,4.7085,4.6434,4.6361,4.6608,4.7259,4.7333,4.7333,4.7333,4.6608,4.6214,4.6361,4.6214,4.6214,4.6361,4.6361,4.6691,4.7333,4.7333,4.7636,4.8296,4.8296,4.8673,4.9344,4.9344,4.916,5.4303,5.5504,5.764,5.9396,6.11,6.2529,0.0,6.4905,6.6654,6.8117,6.9204,7.0642,7.323,7.4394,7.5638,7.7548,7.8636,7.9256,7.9334,7.9373,7.9334,7.9217,7.7893,7.6999,7.6999,7.6999,7.6999,7.6999,7.693,7.6914,7.6914,7.6851,7.6813,7.6813,7.6652,7.6182,7.5326,7.5118,7.4538,7.3607,7.3513,7.2996,7.2084,7.1928,7.1395,7.0553,7.0271,6.9733,6.9067,6.8975,6.805,6.6705,6.659,6.6101,6.5375,6.5299,6.4771,6.4045,6.3931,6.2817,6.1384,6.1384,6.0784,6.0013,5.9815,5.9592,5.9203,5.8117,5.7613,5.7165,5.6208,5.5755,5.5538,5.5517,5.4879,5.4289,5.4289,5.3618,5.281,5.2013,5.1803,5.1473,5.0655,5.0508,4.9985,4.8406,4.8186,4.8113,4.8039,4.8039,4.8086,4.815,4.8186,4.8186,4.8186,4.7416,4.7259,4.8012,4.7379,4.7305,4.8003,4.8039,4.8076,4.815,4.8186,4.8223,4.8296,4.8296,4.8333,4.8453,4.8453,4.9177,5.64,5.8454,6.0939,6.168,6.4279,6.672,6.7071,6.8895,7.0676,7.1368,7.2612,7.4049,7.5635,7.6649,7.7467,7.8165,7.9397,8.0085,7.9579,7.9853,8.0135,8.0135,7.9022,7.8143,7.7745,7.7676,7.7414,7.6908,7.6828,7.6758,7.6734,7.7196,7.7432,7.7365,7.7747,7.7495,7.6665,7.6011,7.5258,7.4321,7.3735,7.3241,7.276,7.2717,7.2433,7.2016,7.1942,7.1412,7.0618,7.0113,6.9196,6.8088,6.7591,6.7171,6.6751,6.5757,6.4886,6.4191,6.41,6.323,6.2033,6.1452,6.0882,6.0358,5.9685,5.9253,5.8959,5.8385,5.773,5.7122,5.6645,5.6095,5.5687,5.5687,5.5397,5.4961,5.4509,5.4142,5.3518,5.2244,5.1987,5.173,5.0949,5.0802,5.0545,4.9848,4.9738,4.9738,4.9738,4.9738,4.9738,4.9738,4.9334,4.905,4.905,4.826,4.7929,4.826,4.7966,4.7966,4.8296,4.8296,4.8296,4.8296,4.8296,4.8563,4.905,4.905,4.9297,4.9774,5.0251,5.0839,5.8649,6.1012,6.3493,6.4429,6.7337,7.005,7.0284,7.2142,7.3804,7.3804,7.5012,7.6337,7.7194,7.8042,7.8776,7.9244,8.0529,8.131,8.0867,8.1074,8.1255,8.1241,8.0408,7.9515,7.8772,7.8522,7.8107,7.7473,7.7564,7.7511,7.7204,7.7965,7.8303,7.7992,7.8464,7.8432,7.784,7.6798,7.5998,7.5385,7.4413,7.3775,7.3458,7.321,7.3037,7.2979,7.2979,7.2635,7.1994,7.1107,7.0266,6.9425,6.8561,6.8056,6.7705,6.6466,6.5489,6.4764,6.4451,6.3676,6.274,6.1945,6.1387,6.0849,6.0068,5.9627,5.9313,5.9001,5.8304,5.7578,5.7324,5.6779,5.6246,5.6246,5.6099,5.5768,5.5207,5.473,5.4069,5.2905,5.2491,5.216,5.1573,5.1453,5.1453,5.1453,5.1453,5.1306,5.0875,5.0802,5.0802,5.0802,5.0298,4.9931,4.9931,4.915,4.8673,4.8673,4.8416,4.8296,4.8296,4.8526,4.8673,4.8673,4.8893,4.9297,4.9931,4.9931,5.0225,5.0802,5.1389,5.1803,6.0811,6.2785,6.4952,6.8268,7.0435,7.1936,7.2794,7.435,7.5635,7.5635,7.6337,7.7233,7.8087,7.892,7.9987,8.1619,8.2563,8.3381,8.4068,8.3436,8.288,8.2826,8.1943,8.0974,8.0129,7.9465,7.9034,7.8938,7.9591,7.9628,7.879,7.9362,7.9358,7.851,7.8514,7.8485,7.8361,7.7516,7.7006,7.6833,7.5952,7.506,7.4125,7.3369,7.2987,7.2979,7.2979,7.2979,7.2902,7.2032,7.1145,7.025,6.9327,6.8493,6.7774,6.7519,6.7009,6.6281,6.5392,6.4356,6.3459,6.3275,6.2389,6.1344,6.1278,6.1038,6.0648,5.9658,5.9343,5.9113,5.8226,5.7971,5.7923,5.7923,5.7336,5.6737,5.6737,5.55,5.4399,5.4326,5.3702,5.3177,5.3141,5.3141,5.3141,5.3141,5.3141,5.2553,5.1012,5.0802,5.0802,5.0802,5.0765,5.0765,5.0765,5.0004,4.9574,4.9574,4.8783,4.8296,4.8296,4.9123,4.9574,4.9574,5.0325,5.0729,5.0765,5.0765,5.0765,5.0802,5.0839,5.1242,6.1924,6.4987,6.8011,6.9725,7.2292,7.4466,7.4778,7.5713,7.6415,7.583,7.6376,7.6915,7.6582,7.764,7.8726,7.9212,8.0379,8.1275,8.148,8.2155,8.2398,8.1792,8.1887,8.1653,8.0715,7.9979,7.9565,7.9532,7.9706,7.9936,8.0192,8.0923,8.1159,8.0833,8.0788,8.046,7.9859,7.9003,7.8253,7.7647,7.7341,7.7017,7.6685,7.5844,7.5462,7.5424,7.4898,7.4316,7.3773,7.3415,7.2465,7.115,7.0697,6.9943,6.9026,6.8366,6.7856,6.7354,6.6021,6.4907,6.3964,6.3048,6.2454,6.1921,6.1204,6.0839,6.0628,6.0289,6.0145,5.9989,5.966,5.9612,5.9465,5.8902,5.8572,5.8095,5.7031,5.637,5.5831,5.5291,5.4997,5.4803,5.4803,5.4363,5.3801,5.3287,5.3214,5.2994,5.2443,5.2407,5.2407,5.2407,5.1903,5.161,5.161,5.0839,5.0398,5.0398,5.0105,4.9948,4.9948,5.0251,5.0398,5.0398,5.0655,5.1059,5.161,5.161,5.161,5.161,5.216,5.227,6.4083,6.6958,6.9793,7.1897,7.3843,7.5399,7.601,7.6319,7.6355,7.5797,7.5602,7.5476,7.517,7.6206,7.7343,7.8137,7.9532,8.0847,8.1669,8.2354,8.2655,8.2385,8.2496,8.2382,8.1794,8.1247,8.0852,8.0592,8.1096,8.1483,8.17,8.2479,8.2742,8.2373,8.2318,8.1899,8.1057,8.0161,7.914,7.8022,7.8022,7.8022,7.7984,7.7105,7.6685,7.6647,7.5853,7.5165,7.4651,7.4258,7.3433,7.2341,7.1475,7.0744,7.0011,6.8932,6.8257,6.7739,6.653,6.5444,6.4452,6.36,6.3011,6.2484,6.1805,6.1468,6.1335,6.1041,6.0883,6.075,6.0456,6.0419,6.0187,5.938,5.9196,5.8829,5.7508,5.6994,5.6627,5.6124,5.5805,5.5585,5.5585,5.5181,5.4656,5.4142,5.3812,5.3508,5.3251,5.3214,5.3214,5.3214,5.2747,5.2417,5.2417,5.1683,5.1242,5.1242,5.0949,5.0802,5.0802,5.1096,5.1242,5.1242,5.1499,5.1893,5.2417,5.2417,5.2417,5.2454,5.2957,5.292,6.7172,6.8808,7.0564,7.4692,7.5156,7.4994,7.6557,7.6161,7.5492,7.5415,7.4049,7.3066,7.3838,7.4649,7.5944,7.8347,8.0061,8.1882,8.4302,8.3934,8.364,8.4426,8.3761,8.3255,8.3179,8.3133,8.2807,8.2176,8.3522,8.4088,8.337,8.3964,8.3983,8.3152,8.3076,8.2693,8.1958,8.1003,7.978,7.8175,7.8137,7.8128,7.8099,7.722,7.68,7.6714,7.5921,7.5539,7.5407,7.4507,7.4018,7.3659,7.1728,7.0921,7.0642,6.9331,6.8364,6.7602,6.6989,6.5998,6.5001,6.4865,6.4077,6.3113,6.3076,6.2978,6.2683,6.1887,6.1667,6.1484,6.0713,6.0517,6.0334,5.9526,5.9306,5.9086,5.829,5.7483,5.6921,5.6921,5.6271,5.5695,5.5658,5.5658,5.5658,5.5622,5.4961,5.4179,5.3361,5.3214,5.3214,5.3214,5.3214,5.3214,5.3214,5.2491,5.206,5.206,5.1353,5.0902,5.0902,5.1646,5.206,5.206,5.281,5.3214,5.3214,5.3214,5.3214,5.3214,5.3214,5.3214,6.8871,7.1343,7.3515,7.5856,7.6789,7.7022,7.6816,7.5551,7.4097,7.2802,7.165,7.0913,7.1125,7.2298,7.401,7.6366,7.8089,7.9921,8.2317,8.2909,8.318,8.3381,8.3773,8.3754,8.3114,8.362,8.3897,8.3706,8.4079,8.448,8.4901,8.5101,8.5091,8.4862,8.4289,8.3868,8.3639,8.2187,8.127,8.0812,8.0162,7.9856,7.9818,7.9025,7.8224,7.7464,7.6653,7.5884,7.5095,7.4837,7.4184,7.3298,7.254,7.1733,7.0889,6.9719,6.9125,6.8753,6.8012,6.6801,6.5578,6.5398,6.5102,6.472,6.4031,6.3797,6.3576,6.2732,6.2499,6.2462,6.2242,6.2205,6.1985,6.119,6.1006,6.0786,5.9979,5.9159,5.8609,5.8609,5.796,5.7189,5.6602,5.6492,5.6308,5.5695,5.5438,5.4997,5.4216,5.3581,5.3214,5.3214,5.3214,5.3214,5.3214,5.2994,5.2884,5.2884,5.27,5.259,5.259,5.2774,5.2884,5.2884,5.3104,5.3214,5.3214,5.3214,5.3214,5.3214,5.3214,5.3214,7.1256,7.3014,7.4584,7.6657,7.6968,7.673,7.6589,7.4941,7.3064,7.1683,7.0109,6.9178,6.9887,7.0998,7.2726,7.5459,7.7561,7.9676,8.2061,8.3066,8.3687,8.4059,8.4518,8.4632,8.4136,8.4556,8.4824,8.4824,8.4824,8.5015,8.5473,8.5501,8.5501,8.5501,8.5053,8.4671,8.4289,8.299,8.2149,8.1805,8.1308,8.0869,8.044,7.961,7.8647,7.7626,7.6778,7.5786,7.4829,7.4701,7.4228,7.353,7.2798,7.2111,7.1392,7.0282,6.9803,6.9663,6.9168,6.8407,6.7487,6.6379,6.5762,6.5318,6.4776,6.464,6.453,6.404,6.3894,6.3894,6.3894,6.3637,6.3172,6.2328,6.1851,6.1374,6.0566,6.004,5.9636,5.9269,5.8535,5.785,5.7409,5.7336,5.7152,5.6723,5.6356,5.5978,5.55,5.4766,5.4252,5.4252,5.4252,5.4252,5.4252,5.4252,5.4252,5.4252,5.3922,5.3728,5.3728,5.3398,5.3214,5.3214,5.3214,5.3214,5.3214,5.3214,5.3156,5.3103,5.3103,5.3082,7.3675,7.4217,7.4911,7.7313,7.6654,7.5592,7.609,7.4027,7.1733,7.0761,6.8618,6.7393,6.9036,7.0041,7.1668,7.4904,7.7483,7.9966,8.2474,8.3572,8.448,8.5397,8.5501,8.5501,8.5501,8.5501,8.5501,8.5501,8.5501,8.5501,8.5501,8.5501,8.5501,8.5501,8.5501,8.5167,8.448,8.3611,8.2798,8.2082,8.1901,8.1347,8.0505,7.9619,7.8615,7.7566,7.6731,7.576,7.4779,7.4504,7.4284,7.4021,7.2858,7.2296,7.2055,7.0857,7.0436,7.0386,7.0202,7.011,6.977,6.7687,6.6421,6.5729,6.5508,6.5472,6.5435,6.5325,6.5288,6.5288,6.5288,6.4787,6.4053,6.3306,6.2622,6.1887,6.119,6.0884,6.0444,5.9526,5.8792,5.8327,5.8327,5.8327,5.829,5.818,5.7593,5.7068,5.6957,5.6161,5.5585,5.5585,5.5585,5.5585,5.5585,5.5585,5.5585,5.5585,5.4961,5.4546,5.4546,5.3885,5.3508,5.3508,5.3508,5.3471,5.3361,5.334,5.325,5.3163,5.3131,5.308,7.4224,7.5677,7.6968,7.8115,7.76,7.6514,7.5274,7.1928,6.8578,6.6987,6.5167,6.4353,6.6024,6.761,6.9747,7.3053,7.5684,7.8427,8.1585,8.2722,8.3792,8.531,8.5501,8.5501,8.5501,8.5501,8.5501,8.5501,8.5501,8.5501,8.5501,8.5501,8.5501,8.5501,8.5501,8.5435,8.5282,8.448,8.3934,8.3692,8.228,8.1456,8.1119,8.014,7.9096,7.807,7.7794,7.701,7.5857,7.5171,7.4685,7.4248,7.3209,7.27,7.2475,7.1493,7.1129,7.1019,7.0344,7.011,6.994,6.8852,6.8398,6.8054,6.6696,6.6292,6.6145,6.5472,6.5288,6.5288,6.5288,6.5178,6.5031,6.4884,6.4774,6.4628,6.4481,6.3343,6.1949,6.0481,6.0089,5.9979,5.9979,5.9979,5.9747,5.9086,5.8866,5.8535,5.7886,5.6503,5.5585,5.5585,5.5585,5.5585,5.5585,5.5585,5.5585,5.5585,5.5475,5.5401,5.5401,5.5254,5.5181,5.5181,5.5181,5.4851,5.4179,5.4071,5.4016,5.3994,5.3745,5.3937,7.5798,7.6893,7.8,7.8814,7.7692,7.6087,7.4858,7.1302,6.7864,6.6591,6.499,6.4273,6.596,6.7266,6.9061,7.1963,7.4524,7.7197,8.0095,8.1929,8.3458,8.4747,8.5244,8.5501,8.5501,8.5501,8.5501,8.5501,8.5501,8.5501,8.5501,8.5501,8.5501,8.5501,8.5501,8.5481,8.5469,8.5088,8.4549,8.3876,8.3014,8.2027,8.0972,8.042,7.9293,7.7765,7.7642,7.694,7.5841,7.5416,7.4859,7.4247,7.3651,7.3148,7.2658,7.2135,7.1931,7.1857,7.1468,7.1358,7.1211,7.0389,6.9889,6.9376,6.8605,6.8385,6.8274,6.7907,6.7504,6.716,6.716,6.6549,6.5815,6.5398,6.4628,6.4004,6.4004,6.305,6.2071,6.1728,6.097,6.0529,6.0933,6.0676,6.026,5.9893,5.982,5.9673,5.9318,5.8584,5.7776,5.6943,5.687,5.687,5.687,5.687,5.687,5.687,5.6455,5.6235,5.6235,5.5805,5.5585,5.5585,5.5519,5.5302,5.4935,5.4776,5.464,5.4502,5.4689,5.4855,7.7313,7.813,7.9114,7.9382,7.7667,7.5597,7.4448,7.0931,6.7597,6.6524,6.5137,6.4531,6.6026,6.6925,6.822,7.06,7.3067,7.5586,7.8146,8.063,8.2655,8.3878,8.4747,8.532,8.5463,8.5501,8.5501,8.5501,8.5491,8.5481,8.5501,8.5481,8.5471,8.5471,8.5431,8.537,8.5325,8.5272,8.4763,8.3858,8.3505,8.2539,8.1029,8.0543,7.9415,7.7766,7.7446,7.6819,7.5999,7.5738,7.5238,7.4554,7.4034,7.3476,7.2873,7.2612,7.2496,7.2496,7.2496,7.2496,7.2422,7.1747,7.1013,7.033,7.0146,7.011,7.011,7.011,6.9633,6.9155,6.9155,6.8238,6.71,6.6476,6.5325,6.4261,6.393,6.3356,6.2989,6.327,6.2316,6.1667,6.2291,6.1887,6.141,6.1227,6.1043,6.0848,6.0676,6.0529,5.9905,5.8657,5.8364,5.818,5.7997,5.7997,5.807,5.8253,5.7632,5.729,5.729,5.6644,5.6204,5.6021,5.5919,5.5777,5.5572,5.5421,5.522,5.4978,5.5317,5.5414,7.7932,7.9655,8.1145,7.9664,7.7944,7.5985,7.3654,6.987,6.6392,6.4794,6.3716,6.3334,6.4259,6.5092,6.6231,6.7951,7.0397,7.2949,7.5471,7.8031,8.0515,8.2846,8.3868,8.4709,8.5435,8.5501,8.5501,8.5501,8.5421,8.5449,8.5501,8.5421,8.5408,8.5408,8.517,8.5051,8.5039,8.4813,8.4561,8.4315,8.3414,8.266,8.2101,8.0508,7.9493,7.8998,7.8136,7.7629,7.7356,7.6619,7.6162,7.5771,7.4287,7.3663,7.3516,7.2753,7.2496,7.2496,7.2496,7.2496,7.2496,7.2422,7.1857,7.105,7.033,7.011,7.011,7.011,7.0036,7.0,7.0,6.9889,6.9743,6.9669,6.9522,6.9009,6.759,6.7187,6.6746,6.5325,6.4958,6.4884,6.4958,6.4884,6.4604,6.387,6.3099,6.2316,6.1594,6.086,6.0346,6.0199,5.9526,5.8792,5.807,5.7997,5.8327,5.9049,5.8906,5.8798,5.8798,5.8616,5.8154,5.7436,5.7388,5.6988,5.6128,5.586,5.566,5.5505,5.5013,5.5094,7.8499,7.9895,8.085,8.021,7.7993,7.5318,7.2796,6.9349,6.6369,6.5184,6.4275,6.3931,6.4764,6.5184,6.5796,6.698,6.889,7.0886,7.2911,7.5815,7.849,8.0515,8.2388,8.3811,8.4571,8.5144,8.536,8.5224,8.5001,8.4912,8.4957,8.5094,8.5084,8.4939,8.4798,8.4682,8.4527,8.443,8.4217,8.3918,8.3383,8.2725,8.1923,8.1132,8.0126,7.8943,7.8551,7.8025,7.7381,7.7065,7.6631,7.6056,7.5395,7.4845,7.4368,7.4059,7.3949,7.3891,7.3377,7.323,7.312,7.2679,7.2275,7.1967,7.1651,7.1541,7.1541,7.1541,7.1211,7.083,7.083,7.011,6.9376,6.9376,6.9009,6.8471,6.7847,6.77,6.7664,6.7504,6.7063,6.6916,6.738,6.7063,6.6476,6.5668,6.5264,6.4751,6.3943,6.3527,6.2914,6.1849,6.0616,5.9783,5.9465,5.9357,5.9456,5.9785,5.9688,5.9577,5.9466,5.9439,5.8988,5.8113,5.7913,5.7399,5.6541,5.6667,5.6611,5.6445,5.6973,5.7243,7.8146,7.9484,8.0315,7.9551,7.742,7.4783,7.1956,6.912,6.6751,6.5643,6.4955,6.4733,6.5299,6.5413,6.5605,6.6216,6.7706,6.9303,7.0738,7.3823,7.6622,7.8561,8.0955,8.285,8.387,8.4676,8.5051,8.4775,8.4587,8.443,8.4318,8.4491,8.4563,8.4491,8.4368,8.4217,8.4024,8.3867,8.3651,8.3381,8.3208,8.269,8.1916,8.1572,8.0681,7.9421,7.8943,7.833,7.7656,7.7399,7.6959,7.6423,7.6203,7.5763,7.5234,7.4977,7.4903,7.483,7.4258,7.3891,7.3597,7.3046,7.2679,7.2496,7.2496,7.2496,7.2496,7.2496,7.2092,7.1637,7.1637,7.0793,6.9963,6.9963,6.9522,6.9059,6.8825,6.8752,6.8862,6.9192,6.8788,6.8582,6.9155,6.8788,6.8214,6.765,6.7317,6.6923,6.636,6.6026,6.5374,6.4111,6.2967,6.1774,6.0396,6.0396,6.0467,6.043,6.0471,6.0339,5.9954,5.9821,5.9317,5.8417,5.8173,5.7735,5.7108,5.7313,5.7335,5.7172,5.7977,5.8202,7.6494,7.8557,7.9895,7.7373,7.6121,7.4592,7.1183,6.9082,6.7408,6.5757,6.5375,6.5375,6.5413,6.5413,6.5413,6.5413,6.6835,6.8217,6.9006,7.201,7.4989,7.725,7.9699,8.1849,8.3445,8.4228,8.4503,8.4243,8.4217,8.405,8.362,8.3592,8.3798,8.4167,8.3835,8.3602,8.3602,8.3158,8.2897,8.2919,8.2788,8.2602,8.237,8.1576,8.1113,8.0901,7.9286,7.8589,7.8516,7.7656,7.7289,7.7215,7.6423,7.6093,7.5983,7.5197,7.4903,7.4903,7.4903,7.4368,7.3722,7.367,7.3156,7.2496,7.2496,7.2496,7.2496,7.2496,7.2496,7.2496,7.2496,7.2496,7.2459,7.2459,7.2459,7.2239,7.1417,7.127,7.1013,7.022,7.0073,7.0073,7.0073,7.0073,7.0073,7.0073,6.9214,6.859,6.8553,6.7755,6.7182,6.7146,6.6967,6.4961,6.0389,6.073,6.1139,6.1009,6.143,6.1282,6.035,5.9859,5.9204,5.8422,5.8196,5.8018,5.7902,5.7765,5.7627,5.7491,5.7158,5.6934,7.4622,7.5997,7.6885,7.6083,7.4363,7.2338,7.0075,6.8279,6.6751,6.5643,6.5413,6.5413,6.5413,6.5413,6.5413,6.5413,6.6772,6.8112,6.8858,7.1756,7.4486,7.6321,7.9572,8.2298,8.3851,8.3951,8.3865,8.3808,8.3494,8.3266,8.3121,8.3039,8.3099,8.3287,8.3179,8.3084,8.3001,8.285,8.2674,8.2565,8.2502,8.2391,8.2231,8.201,8.1537,8.0975,8.0461,7.9617,7.8589,7.8295,7.7839,7.7289,7.7032,7.6922,7.6885,7.6628,7.6555,7.6445,7.5909,7.5212,7.4441,7.3891,7.3156,7.2496,7.2496,7.2496,7.2496,7.2496,7.2496,7.2496,7.2496,7.2496,7.2349,7.1821,7.1674,7.16,7.1344,7.1307,7.138,7.1688,7.1725,7.1725,7.1725,7.1639,7.142,7.0871,7.0398,6.9851,6.9238,6.8837,6.8312,6.7439,6.7291,6.6566,6.4861,6.4664,6.4354,6.3784,6.3528,6.276,6.1341,6.0979,6.0176,5.8763,5.8593,5.8203,5.7631,5.7923,5.8219,5.8523,5.8406,5.8322,7.1871,7.2941,7.3522,7.3217,7.1917,7.0312,6.8623,6.7439,6.643,6.5559,6.5368,6.536,6.5329,6.5321,6.5313,6.5282,6.6636,6.8028,6.9073,7.1958,7.509,7.8073,8.1019,8.3289,8.4478,8.4101,8.375,8.3729,8.3165,8.2782,8.2721,8.2612,8.2581,8.2628,8.269,8.2674,8.2602,8.2539,8.246,8.2311,8.2311,8.2284,8.2186,8.2186,8.1929,8.1452,8.1122,8.0424,0.0,7.8846,7.8295,7.7766,7.7436,7.7289,7.7289,7.7289,7.7289,7.7252,7.6738,7.6041,7.5212,7.4404,7.3413,7.2569,7.2863,7.2753,7.2496,7.2496,7.2496,7.2496,7.2496,7.2496,7.2371,7.18,7.1661,7.1647,7.1589,7.1538,7.1699,7.2212,7.2365,7.2409,7.2409,7.2373,7.2102,7.1531,7.1168,7.0619,6.9653,6.9559,6.9178,6.8118,6.7884,6.7683,6.7485,6.6789,6.5828,6.461,6.4421,6.3755,6.2321,6.2023,6.1525,6.0796,6.035,5.9745,5.8929,5.8938,5.9115,5.9461,5.9737,5.9875,0.0,6.9562,7.0029,6.9303,6.9035,6.8615,6.7033,6.6605,0.0,6.5464,6.5258,6.5272,6.5275,6.5267,6.5234,6.5179,6.6558,6.8147,6.9651,7.2622,7.6597,8.1717,8.3446,8.4486,8.5222,8.4562,8.4018,8.3899,8.3108,8.2586,8.2391,8.2391,8.2311,8.2203,8.2295,8.2391,8.2391,8.2267,8.2186,8.2186,8.2186,8.2186,8.2186,8.2186,8.2186,8.215,8.1415,8.1048,8.0901,7.9396,7.8699,7.8516,7.7693,7.7362,7.7289,7.7289,7.7289,7.7289,7.7289,7.6775,7.5983,7.516,7.3876,7.2826,7.356,7.323,7.2606,7.2628,7.2628,7.2591,7.254,7.2504,7.2423,7.2255,7.2189,7.2145,7.196,7.1966,7.2039,7.2076,7.2269,7.2446,7.2446,7.2379,7.2269,7.203,7.151,7.0822,6.9908,6.9943,6.9794,6.9067,6.8646,6.8434,6.8328,6.7249,6.5813,6.3927,6.4407,6.4235,6.3206,6.2856,6.306,6.3787,6.3001,6.2186,6.1392,6.0737,6.0392,6.0392,6.1116,6.1461,6.5889,0.0,6.8424,6.8207,6.7618,6.7006,0.0,6.5889,6.5323,6.5039,6.4984,6.5165,6.5793,6.5898,6.6079,6.665,6.8026,6.9569,7.1083,7.4843,7.8786,8.2341,8.3054,8.3725,8.5028,8.4294,8.3682,8.3687,8.2822,8.23,8.2251,8.2251,8.2235,8.2186,8.2235,8.2251,8.2251,8.2219,8.2186,8.2186,8.2186,8.2186,8.2186,8.2186,8.2186,8.2186,8.2003,8.1562,8.0975,8.0608,7.9727,7.8589,7.8369,7.7876,7.7289,7.7289,7.7289,7.7289,7.7289,7.6775,7.5983,7.516,7.4647,7.4353,7.4551,7.4074,7.3509,7.4036,7.375,7.3244,7.3072,7.2582,7.1947,7.1318,7.1172,7.1157,7.1076,7.1571,7.2191,7.279,7.3441,7.3894,7.3894,7.3182,7.2479,7.2138,7.1239,7.0353,6.9743,6.9672,6.9545,6.9043,6.8932,6.8502,6.7645,6.707,6.6321,6.5198,6.5019,6.4281,6.2891,6.2625,6.2637,6.281,6.3188,6.2944,6.2238,6.2599,6.2496,6.1997,6.2703,6.3048,6.5414,6.599,6.651,6.6497,6.6109,6.5741,6.5668,6.5309,6.4924,6.4743,6.5009,6.5435,6.5766,6.6125,6.6604,6.7286,6.8704,7.0893,7.4163,7.7592,8.0785,8.3466,8.4036,8.4546,8.5349,8.4588,8.3913,8.3529,8.2713,8.2186,8.2186,8.2186,8.2186,8.2186,8.2186,8.2186,8.2186,8.2186,8.2186,8.2186,8.2186,8.2186,8.2186,8.2186,8.2186,8.2186,8.2186,8.1929,8.1525,8.1158,8.0498,7.9617,7.8883,7.8295,7.7839,7.7436,7.7289,7.7289,7.7289,7.6775,7.6019,7.5579,7.5197,7.4977,7.5344,7.5139,7.4793,7.4777,7.4445,7.404,7.3913,7.3508,7.2993,7.248,7.234,7.2324,7.2232,7.2543,7.3016,7.3431,7.3868,7.4127,7.403,7.336,7.2686,7.2293,7.141,7.0356,6.932,6.9231,6.8968,6.8173,6.7992,6.7738,6.7208,6.6358,6.5655,6.5203,6.4966,6.4491,6.3661,6.357,6.3669,6.4067,6.4083,6.391,6.3496,6.391,6.391,6.3531,6.4308,6.4653,6.5737,6.5445,6.4953,6.5158,6.5214,6.5196,6.5132,6.5123,6.503,6.4792,6.5308,6.585,6.5928,6.6598,6.7384,6.8105,6.98,7.2744,7.7638,8.0162,8.2349,8.451,8.5391,8.58,8.58,8.5086,8.4278,8.3454,8.2663,8.2186,8.2186,8.2186,8.2186,8.2186,8.2186,8.2186,8.2186,8.2186,8.2186,8.2186,8.2186,8.2186,8.2186,8.2186,8.2186,8.2186,8.2186,8.2186,8.215,8.1452,8.1122,8.0865,7.9507,7.8809,7.8516,7.7766,7.7399,7.7289,7.7289,7.6848,7.6276,7.6276,7.5821,7.538,7.6093,7.6276,7.6151,7.5424,7.5062,7.483,7.4799,7.4587,7.4306,7.4179,7.4147,7.4099,7.3905,7.3944,7.4037,7.3971,7.401,7.4016,7.3814,7.3329,7.2834,7.2419,7.1622,7.0539,6.9018,6.898,6.8684,6.7571,6.7335,6.7286,6.7359,6.6048,6.5186,6.5048,6.4703,6.4531,6.4531,6.4634,6.5014,6.5688,6.5255,6.4979,6.4876,6.5117,6.5152,6.5083,6.5895,6.624,6.5026,6.5036,6.51,6.6385,6.6672,6.6575,6.6186,6.609,6.6036,6.5803,6.5869,6.6379,6.7709,6.8615,6.9632,7.1156,7.3837,7.6662,7.9332,8.115,8.2854,8.4439,8.5323,8.58,8.58,8.5086,8.4278,8.3454,8.2663,8.2186,8.2186,8.2186,8.2186,8.2186,8.2186,8.2186,8.2186,8.2186,8.2186,8.2186,8.2186,8.2186,8.2186,8.2186,8.2186,8.2186,8.2186,8.2186,8.2186,8.2076,8.1599,8.0975,8.0718,7.98,7.8589,7.8442,7.7913,7.7289,7.7289,7.7215,7.7105,7.7105,7.7032,7.6959,7.7069,7.7105,7.7075,7.6841,7.6136,7.5431,7.5309,7.4639,7.3986,7.3954,7.3954,7.3905,7.3777,7.4196,7.4581,7.4309,7.4618,7.4833,7.4634,7.3602,7.2612,7.2204,7.1185,7.0215,6.9618,6.9742,6.9859,6.9639,6.9735,6.9581,6.9,6.8103,6.729,6.6669,6.4841,6.3772,6.3772,6.4358,6.4772,6.4876,6.6048,6.6344,6.5723,6.6945,6.7256,6.6669,6.7394,6.7773,6.4726,6.5168,6.5714,6.6796,6.7083,6.7049,6.6823,6.7112,6.7388,6.7209,6.7543,6.8087,6.8765,6.9887,7.1514,7.3947,7.5888,7.8041,8.0809,8.1822,8.3039,8.5029,8.5563,8.58,8.58,8.5086,8.4278,8.3454,8.2663,8.2186,8.2186,8.2186,8.2186,8.2186,8.2186,8.2186,8.2186,8.2186,8.2186,8.2186,8.2186,8.2186,8.2186,8.2186,8.2186,8.2186,8.2186,8.2186,8.2186,8.2186,8.1966,8.1599,8.1158,8.0571,7.98,7.8919,7.8075,7.7289,7.7289,7.7289,7.7289,7.7289,7.7264,7.7202,7.7202,7.7139,7.7009,7.6982,7.661,7.6206,7.6065,7.5528,7.5039,7.5039,7.4887,7.4752,7.4683,7.476,7.487,7.5153,7.5139,7.5131,7.5305,7.4167,7.3129,7.2838,7.1776,7.099,7.096,7.0597,7.0409,7.0662,7.0409,7.0154,6.9911,6.9207,6.8103,6.6516,6.5412,6.4653,6.422,6.4945,6.5117,6.4703,6.6221,6.6827,6.6516,6.7566,6.7911,6.7601,6.7945,6.8083,6.4156,6.5096,6.6012,6.6766,6.7333,6.7765,6.7889,6.8544,6.9136,6.9217,6.9745,7.0249,7.0304,7.1775,7.3907,7.6677,7.7696,7.9161,8.2076,8.2627,8.3508,8.558,8.5967,8.6004,8.582,8.5086,8.4278,8.3454,8.2663,8.2186,8.2186,8.2186,8.2186,8.2186,8.2186,8.2186,8.2186,8.2186,8.2186,8.2186,8.2186,8.2186,8.2186,8.2186,8.2186,8.2186,8.2186,8.2186,8.2186,8.2186,8.2186,8.215,8.1525,8.1158,8.0828,7.9176,7.8185,7.7582,7.7362,7.7289,7.7289,7.7289,7.7327,7.7385,7.7385,7.7368,7.7369,7.732,7.7287,7.7202,7.6921,7.6601,7.6328,7.6545,7.6157,7.5711,7.5621,7.5293,7.5134,7.5546,7.5323,7.5119,7.5443,7.4511,7.3669,7.355,7.2662,7.2122,7.2299,7.1756,7.1426,7.1795,7.1366,7.0992,7.0781,7.0079,6.884,6.6892,6.6389,6.5792,6.5014,6.5585,6.5619,6.4979,6.629,6.6999,6.6999,6.7738,6.8083,6.8083,6.8083,6.8083,6.2903,6.4204,6.5537,6.6345,6.7956,6.9468,6.9945,7.0688,7.1444,7.2053,7.2245,7.2502,7.3237,7.5315,7.7466,7.9281,8.022,8.1342,8.3051,8.3985,8.4756,8.569,8.6444,8.6628,8.5857,8.5086,8.4278,8.3454,8.2663,8.2186,8.2186,8.2186,8.2186,8.2186,8.2186,8.2186,8.2186,8.2186,8.2186,8.2186,8.2186,8.2186,8.2186,8.2186,8.2186,8.2186,8.2186,8.2186,8.2186,8.2186,8.2186,8.2186,8.215,8.1672,8.0828,7.9176,7.8552,7.8405,7.7582,7.7289,7.7289,7.7289,7.773,7.8227,7.8227,7.8593,7.8996,7.8898,7.8693,7.8408,7.7852,7.7398,7.7303,7.806,7.7326,7.6426,7.6056,7.5792,7.5423,7.4659,7.4879,7.5068,7.4647,7.4216,7.3878,7.3878,7.3582,7.3354,7.3377,7.356,7.3663,7.3685,7.3855,7.3374,7.1994,7.114,7.0332,6.9478,6.7865,6.6585,6.5826,6.5861,6.5861,6.5826,6.6585,6.6999,6.6999,6.7738,6.8083,6.8083,6.8083,6.8083,6.2046,6.332,6.4751,6.5558,6.7439,6.9433,7.0648,7.231,7.3839,7.4603,7.4735,7.4845,7.5139,7.6335,7.7839,7.9522,8.0461,8.1562,8.3161,8.3638,8.4168,8.4976,8.5306,8.538,8.5086,8.4352,8.3711,8.3418,8.2663,8.2186,8.2186,8.2186,8.2186,8.2186,8.2186,8.2186,8.2186,8.2186,8.2186,8.2186,8.2186,8.2186,8.2186,8.2186,8.2186,8.2186,8.2186,8.2186,8.2186,8.2186,8.2186,8.2186,8.2186,8.1709,8.0938,8.0314,7.947,7.8552,7.8222,7.7766,7.7368,7.7788,7.8012,7.8179,7.8628,7.8826,7.8891,7.8823,7.8667,7.8472,7.8217,7.7864,7.7613,7.7808,7.7219,7.6512,7.6184,7.5659,7.522,7.5366,7.5232,7.5151,7.5447,7.4841,7.4361,7.4361,7.3851,7.3715,7.4352,7.4138,7.4117,7.473,7.4446,7.3978,7.3432,7.2668,7.1917,7.1199,6.9158,6.765,6.693,6.6896,6.645,6.549,6.6794,6.7266,6.6838,6.7679,6.8083,6.8083,6.8083,6.8083,6.1606,6.2989,6.4604,6.5141,6.7307,6.9706,7.1307,7.3546,7.5579,7.668,7.69,7.69,7.69,7.7561,7.8479,7.9596,8.0681,8.1856,8.3197,8.3381,8.3711,8.4499,8.4609,8.4609,8.4609,8.3858,8.3381,8.3381,8.2663,8.2186,8.2186,8.2186,8.2186,8.2186,8.2186,8.2186,8.2186,8.2186,8.2186,8.2186,8.1929,8.1929,8.2186,8.1929,8.1966,8.2186,8.1929,8.1966,8.2186,8.2186,8.2186,8.2186,8.2186,8.1856,8.1342,8.1085,8.0099,7.8841,7.8584,7.7914,7.7265,7.7959,7.8273,7.8436,7.9156,7.9386,7.9375,7.9375,7.9143,7.8836,7.8781,7.8435,7.8086,7.8034,7.7406,7.675,7.6465,7.5775,7.5342,7.5726,7.5538,7.5497,7.5902,7.5398,7.4965,7.4965,7.4525,7.4426,7.5132,7.4782,7.4716,7.5365,7.4775,7.4332,7.4332,7.3674,7.289,7.2175,7.0438,6.8969,6.7885,6.7851,6.7236,6.5952,6.715,6.7559,6.7044,6.7743,6.8083,6.8083,6.8083,6.8083,6.1606,6.3392,6.5288,6.5288,6.7724,7.0513,7.2165,7.4368,7.6607,7.8259,7.8626,7.8626,7.8589,7.9265,7.9816,7.9816,8.1175,8.248,8.3271,8.3381,8.3675,8.4499,8.4572,8.4572,8.4572,8.3858,8.3381,8.3381,8.2663,8.2186,8.2186,8.2186,8.2186,8.2186,8.2186,8.2186,8.2186,8.2186,8.2186,8.2186,8.1379,8.1415,8.215,8.1379,8.1415,8.2113,8.1342,8.1452,8.2186,8.2186,8.2186,8.2186,8.2186,8.2186,8.2076,8.1305,8.0349,7.9361,7.8576,7.766,7.6931,7.777,7.8456,7.9158,7.994,8.0476,8.0785,8.0785,8.0358,7.9841,7.9574,7.9083,7.8801,7.9119,7.8286,7.7306,7.6886,7.6392,7.5873,7.5402,7.5718,7.6028,7.5757,7.5709,7.5709,7.5709,7.5709,7.5709,7.5709,7.5709,7.5709,7.5709,7.5067,7.4603,7.4603,7.3916,7.3206,7.2462,7.1718,7.0495,6.8685,6.8603,6.8261,6.751,6.7733,6.7799,6.7799,6.8019,6.8118,6.8118,6.8118,6.8118,6.1606,6.3001,6.4714,6.5852,6.8128,7.0807,7.3546,7.5601,7.7582,7.9837,8.0277,8.0131,7.9559,8.0094,8.0645,8.0645,8.1525,8.226,8.2517,8.2553,8.2627,8.2884,8.292,8.292,8.292,8.27,8.2553,8.2553,8.2333,8.2186,8.2186,8.2186,8.2186,8.2186,8.2186,8.2186,8.2186,8.2186,8.1929,8.1342,8.1122,8.1122,8.1342,8.0498,8.0293,8.0514,8.0257,8.0293,8.0514,8.0514,8.0514,8.0514,8.0514,8.0434,8.032,8.0687,8.017,7.9327,7.9639,7.9122,7.8392,7.9109,7.9247,7.9288,7.9971,8.0162,8.0078,7.9925,7.9653,7.9316,7.8896,7.8467,7.8168,7.8252,7.7728,7.7141,7.6866,7.6416,7.6038,7.5899,7.5858,7.5805,7.5733,7.5709,7.5709,7.5709,7.5709,7.5709,7.5709,7.5709,7.5709,7.5709,7.5506,7.5371,7.5371,7.4695,7.4187,7.3984,7.2766,7.1379,6.9804,6.8685,6.8341,6.8837,6.8534,6.872,6.9433,6.9603,6.9449,6.8966,6.9483,6.9449,6.2511,6.3809,6.5448,6.7063,6.9522,7.2459,7.6019,7.7839,7.9271,8.1122,8.1232,8.0865,8.0351,8.0681,8.1012,8.1012,8.1672,8.2186,8.2186,8.2186,8.2186,8.2186,8.2186,8.2186,8.2186,8.2186,8.2186,8.2186,8.2186,8.2186,8.2186,8.2186,8.2186,8.2186,8.2186,8.2186,8.2186,8.1893,8.1456,8.0878,8.0255,7.9877,7.9792,7.9459,7.9522,7.9816,7.9816,7.9816,7.9816,7.9816,7.9816,7.98,7.97,7.9572,7.943,7.9892,7.9344,7.8543,7.941,7.8821,7.7891,7.9232,7.9143,7.8721,7.9622,7.9692,7.94,7.9316,7.8993,7.8602,7.8188,7.7728,7.7389,7.7566,7.7288,7.6952,7.6736,7.6368,7.6098,7.6098,7.5876,7.5709,7.5709,7.5709,7.5709,7.5709,7.5709,7.5709,7.5709,7.5709,7.5709,7.5709,7.5709,7.5709,7.5709,7.5303,7.4931,7.4603,7.3781,7.2597,7.1109,6.962,6.8941,6.9261,6.9118,6.9349,6.994,6.9941,6.9897,6.9759,6.9897,6.9897,6.3943,6.5448,6.71,6.8715,7.1651,7.5153,7.9045,8.0534,8.1342,8.2039,8.1636,8.1122,8.1122,8.1122,8.1122,8.1122,8.1709,8.2186,8.2186,8.2186,8.2186,8.2186,8.2186,8.2186,8.2186,8.2186,8.2186,8.2186,8.2186,8.2186,8.2186,8.2186,8.2186,8.2186,8.2113,8.206,8.206,8.1273,8.0715,8.0458,7.8979,7.813,7.7912,7.8285,7.8883,7.9559,7.958,7.9528,7.9528,7.9512,7.9548,7.9496,7.932,7.9105,7.8923,7.8882,7.812,7.7284,7.8289,7.75,7.6338,7.8548,7.8486,7.7732,7.9013,7.9115,7.8747,7.8705,7.8279,7.7741,7.75,7.6941,7.6587,7.7009,7.6884,7.6668,7.6472,7.6239,7.6075,7.6075,7.5852,7.5709,7.5709,7.5709,7.5709,7.5709,7.5709,7.5709,7.5709,7.5709,7.5709,7.5709,7.5709,7.5709,7.5709,7.5709,7.5405,7.4739,7.4661,7.4018,7.2665,7.1109,6.998,6.9338,6.9612,6.9859,7.0017,6.977,6.9974,7.0526,6.994,6.994,6.4628,6.6696,6.8788,7.0389,7.4184,7.8112,8.0241,8.1342,8.2003,8.215,8.2039,8.1929,8.1929,8.1929,8.1929,8.1929,8.2076,8.2186,8.2186,8.2186,8.2186,8.2186,8.2186,8.2186,8.2186,8.2186,8.2186,8.2186,8.2186,8.2186,8.2186,8.2186,8.2186,8.2186,8.1448,8.1016,8.1016,8.0064,7.9234,7.8597,7.8216,7.7709,7.7057,7.7317,7.7584,7.7839,7.7715,7.7668,7.7668,7.7525,7.7461,7.7445,7.7267,7.7086,7.6992,7.7421,7.7321,7.7109,7.7937,7.7865,7.7521,7.8518,7.8293,7.7757,7.832,7.8159,7.7728,7.7355,7.7154,7.7009,7.6759,7.6449,7.6216,7.6332,7.6135,7.5913,7.5876,7.5828,7.5781,7.5781,7.5757,7.5709,7.5709,7.5709,7.5709,7.5709,7.5709,7.5709,7.5709,7.5709,7.5709,7.5709,7.5709,7.5709,7.5709,7.5709,7.5642,7.5473,7.4931,7.4434,7.4153,7.2157,7.1063,7.1058,7.0568,7.1005,7.2361,7.2333,7.2068,7.1658,7.2103,7.1726,6.4738,6.705,6.9839,7.3802,7.7304,8.0057,8.1305,8.1893,8.2186,8.2186,8.2186,8.2186,8.2186,8.2186,8.2186,8.2186,8.2186,8.2186,8.2186,8.2186,8.2186,8.2186,8.2186,8.2186,8.2186,8.2186,8.2186,8.2186,8.2186,8.2154,8.2071,8.2071,8.1839,8.1353,8.0815,8.0346,7.9878,7.8996,7.8207,7.7604,7.7241,7.6825,7.6426,7.6785,7.6977,7.7056,7.6977,7.6934,7.6838,7.6741,7.666,7.6525,7.6258,7.6038,7.5884,7.6033,7.5961,7.5994,7.7229,7.7296,7.7037,7.8354,7.8166,7.7452,7.7671,7.7443,7.7087,7.6759,7.6553,7.6438,7.6356,7.6122,7.5899,7.5899,7.5805,7.5709,7.5709,7.5709,7.5709,7.5709,7.5709,7.5709,7.5709,7.5709,7.5709,7.5709,7.5709,7.5709,7.5709,7.5709,7.5709,7.5709,7.5709,7.5709,7.5709,7.5709,7.5709,7.5709,7.5337,7.4965,7.4603,7.3487,7.2744,7.2508,7.2269,7.2585,7.3503,7.3217,7.3056,7.3056,7.3113,7.2646,6.4628,6.7453,7.1174,7.7121,7.9727,8.1048,8.1966,8.2186,8.2186,8.2186,8.2186,8.2186,8.2186,8.2186,8.2186,8.2186,8.2186,8.2186,8.2186,8.2186,8.2186,8.2186,8.2186,8.2186,8.2154,8.2154,8.2137,8.2104,8.2104,8.2002,8.1852,8.1672,8.1223,8.0398,8.0021,7.9429,7.8656,7.7773,7.7151,7.6819,7.6153,7.5831,7.5831,7.6239,7.6558,7.6705,7.6639,7.6541,7.6429,7.6362,7.6261,7.6055,7.5655,7.5407,7.5208,7.4858,7.4702,7.4887,7.6335,7.6328,7.6027,7.7922,7.7796,7.694,7.7036,7.6896,7.6645,7.6425,7.6216,7.6051,7.6051,7.5852,7.5709,7.5709,7.5709,7.5709,7.5709,7.5709,7.5709,7.5709,7.5709,7.5709,7.5709,7.5709,7.5709,7.5709,7.5709,7.5709,7.5709,7.5709,7.5709,7.5709,7.5709,7.5709,7.5709,7.5709,7.5709,7.5709,7.5709,7.5439,7.483,7.4796,7.4492,7.3906,7.3854,7.3878,7.4013,7.3583,7.3673,7.4253,7.3639,7.3286,6.4628,6.9119,7.3927,7.7671,7.9286,8.0367,8.1856,8.2186,8.2186,8.2186,8.2186,8.2186,8.2186,8.2186,8.2186,8.2186,8.2186,8.2186,8.2186,8.2186,8.2186,8.2186,8.2186,8.2137,8.1935,8.1919,8.1869,8.17,8.17,8.1683,8.163,8.0874,8.0371,8.0244,7.8345,7.7324,7.718,7.6052,7.5406,7.5405,7.528,7.5136,7.4971,7.5027,7.5549,7.6342,7.5984,7.5829,7.5777,7.5442,7.5281,7.5208,7.4823,7.4655,7.4579,7.4158,7.446,7.5053,7.5303,7.555,7.5921,7.674,7.66,7.6211,7.6508,7.6425,7.6145,7.5876,7.5781,7.5757,7.5757,7.5733,7.5709,7.5709,7.5709,7.5709,7.5709,7.5709,7.5709,7.5709,7.5709,7.5709,7.5709,7.5709,7.5709,7.5709,7.5709,7.5709,7.5709,7.5709,7.5709,7.5709,7.5709,7.5709,7.5709,7.5709,7.5709,7.5709,7.5709,7.5676,7.5574,7.554,7.5506,7.5405,7.42,7.3861,7.4505,7.4426,7.445,7.4551,7.445,7.4043,6.4934,6.9119,7.312,7.6387,7.8531,8.011,8.1269,8.1893,8.2186,8.2186,8.2186,8.2186,8.2186,8.2186,8.2186,8.2186,8.2186,8.2186,8.2186,8.2186,8.2186,8.2186,8.2186,8.2121,8.1919,8.1885,8.1818,8.1596,8.1579,8.1311,8.0684,8.013,7.9105,7.745,7.6338,7.5261,7.4115,7.402,7.4135,7.4427,7.4427,7.4389,7.4293,7.4293,7.4638,7.5263,7.51,7.4954,7.4843,7.4692,7.4541,7.4389,7.41,7.3924,7.3786,7.3502,7.3786,7.4358,7.483,7.5393,7.6006,7.655,7.6627,7.6427,7.6323,7.6192,7.6051,7.5781,7.5709,7.5709,7.5709,7.5709,7.5709,7.5709,7.5709,7.5709,7.5709,7.5709,7.5709,7.5709,7.5709,7.5709,7.5709,7.5709,7.5709,7.5709,7.5709,7.5709,7.5709,7.5709,7.5709,7.5709,7.5709,7.5709,7.5709,7.5709,7.5709,7.5709,7.5709,7.5709,7.5709,7.5709,7.5709,7.5709,7.5067,7.4897,7.5236,7.5236,7.5236,7.5236,7.5236,7.483,6.4787,6.8238,7.1417,7.4441,7.7047,7.914,8.0167,8.1158,8.1893,8.1893,8.2039,8.2186,8.2186,8.2186,8.2186,8.2186,8.2186,8.2186,8.2186,8.2186,8.2186,8.2186,8.2186,8.2104,8.1852,8.1818,8.1734,8.1495,8.1225,8.0705,7.9791,7.8909,7.7379,7.5116,7.4375,7.3296,7.1777,7.2318,7.2781,7.3201,7.3201,7.3147,7.3087,7.3297,7.3486,7.3686,7.4053,7.4104,7.3963,7.383,7.3707,7.3547,7.3325,7.3197,7.3032,7.2838,7.3214,7.3925,7.4497,7.5313,7.6095,7.6485,7.6565,7.645,7.6088,7.6004,7.5981,7.5757,7.5709,7.5709,7.5709,7.5709,7.5709,7.5709,7.5709,7.5709,7.5709,7.5709,7.5709,7.5709,7.5709,7.5709,7.5709,7.5709,7.5709,7.5709,7.5709,7.5709,7.5709,7.5709,7.5709,7.5709,7.5709,7.5709,7.5709,7.5709,7.5709,7.5709,7.5709,7.5709,7.5709,7.5709,7.5709,7.5709,7.5709,7.5709,7.5709,7.5709,7.5709,7.5709,7.5709,7.5405,6.3735,6.6586,6.9619,7.2092,7.4515,7.6717,7.8332,7.9947,8.1048,8.1048,8.1672,8.2186,8.2186,8.2186,8.2186,8.2186,8.2186,8.2186,8.2186,8.2186,8.2186,8.2186,8.2186,8.2055,8.163,8.1596,8.1478,8.1146,8.0243,7.9594,7.934,7.6674,7.4984,7.4636,7.267,7.1517,7.1427,7.1283,7.1235,7.125,7.125,7.1117,7.0917,7.1645,7.1767,7.1448,7.2802,7.3345,7.3305,7.2873,7.2686,7.2644,7.2446,7.2373,7.2331,7.2115,7.2952,7.4182,7.4216,7.5049,7.6101,7.6111,7.5947,7.5757,7.5733,7.5733,7.5733,7.5709,7.5709,7.5709,7.5709,7.5709,7.5709,7.5709,7.5709,7.5709,7.5709,7.5709,7.5709,7.5709,7.5709,7.5709,7.5709,7.5709,7.5709,7.5709,7.5709,7.5709,7.5709,7.5709,7.5709,7.5709,7.5709,7.5709,7.5709,7.5709,7.5709,7.5709,7.5709,7.5709,7.5709,7.5709,7.5709,7.5709,7.5709,7.5709,7.5709,7.5709,7.5709,7.5709,7.5709,7.5676,6.2034,6.4494,6.716,6.9596,7.2386,7.4992,7.6607,7.8259,7.9764,8.0791,8.1232,8.1599,8.2113,8.2186,8.2186,8.2186,8.2186,8.2003,8.1489,8.1415,8.1232,8.0734,8.0564,8.0365,8.0081,7.9982,7.9761,7.9412,7.8891,7.8206,7.7226,7.5494,7.3815,7.2333,7.0965,7.0188,7.005,7.0005,7.0188,7.0638,7.0638,7.0597,7.0516,7.067,7.0918,7.1211,7.143,7.1871,7.2446,7.2275,7.221,7.2189,7.2137,7.2007,7.191,7.2277,7.2983,7.3821,7.4273,7.5075,7.5828,7.5828,7.5781,7.5709,7.5709,7.5709,7.5709,7.5709,7.5709,7.5709,7.5709,7.5709,7.5709,7.5709,7.5709,7.5845,7.6352,7.6454,7.6623,7.7063,7.7188,7.7029,7.6555,7.6454,7.6284,7.5777,7.5709,7.5709,7.5709,7.5709,7.5709,7.5709,7.5709,7.5709,7.5709,7.5709,7.5709,7.5709,7.5709,7.5709,7.5709,7.5709,7.5709,7.5709,7.5709,7.5709,7.5709,7.5709,7.5709,7.5709,7.5709,7.5709,6.0493,6.2585,6.4921,6.6806,6.9706,7.2422,7.378,7.5799,7.7745,7.9066,7.98,8.0534,8.1599,8.1782,8.1893,8.215,8.2186,8.1929,8.1122,8.1012,8.0718,7.989,7.962,7.9389,7.9142,7.8942,7.865,7.8225,7.7666,7.6742,7.5489,7.4005,7.2217,7.0114,6.9416,6.9036,6.8897,6.8897,6.9138,6.9635,6.9635,6.9615,6.9534,6.9667,6.99,7.0225,7.0404,7.1008,7.1876,7.1788,7.1778,7.1778,7.1778,7.1656,7.1569,7.2316,7.2971,7.3635,7.4356,7.51,7.5709,7.5709,7.5709,7.5709,7.5709,7.5709,7.5709,7.5709,7.5709,7.5709,7.5709,7.5709,7.5777,7.6048,7.6082,7.6386,7.7435,7.7266,7.713,7.7865,7.8,7.7841,7.7333,7.7266,7.6995,7.6217,7.6082,7.6014,7.5743,7.5709,7.5709,7.5709,7.5709,7.5709,7.5709,7.5709,7.5709,7.5709,7.5709,7.5709,7.5709,7.5709,7.5709,7.5709,7.5709,7.5709,7.5709,7.5709,7.5709,7.5709,7.5709,7.5709,0.0,0.0,0.0,6.3796,6.6439,6.9009,6.9816,7.2496,7.5014,7.5873,7.7378,7.9066,8.0645,8.0975,8.1269,8.2003,8.215,8.1893,8.1069,8.0959,8.0629,7.98,7.9531,7.9287,7.8937,7.8541,7.8117,7.7718,7.6444,7.5224,7.429,7.2143,7.006,6.8172,6.8083,6.8083,6.8083,6.8083,6.8083,6.8083,6.8083,6.7999,6.7799,6.8554,6.8651,6.8391,6.9832,7.0864,7.1544,7.1367,7.1289,7.1289,7.1289,7.1289,7.1391,7.2157,7.2868,7.3601,7.4356,7.5067,7.5676,7.5676,7.5676,7.5709,7.5709,7.5709,7.5709,7.5709,7.5709,7.5709,7.5743,7.5743,7.5946,7.6758,7.6961,7.7367,7.8822,7.801,7.7198,7.7933,7.8044,7.8068,7.8034,7.8034,7.7773,7.7029,7.6927,7.6623,7.5845,7.5709,7.5709,7.5709,7.5709,7.5709,7.5709,7.5709,7.5709,7.5709,7.5709,7.5709,7.5709,7.5709,7.5709,7.5709,7.5709,7.5709,7.5709,7.5709,7.5709,7.5709,7.5709,7.5709,5.9049,0.0,0.0,0.0,0.0,0.0,6.732,7.0,7.2701,7.4074,7.613,7.7986,7.9066,8.0241,8.0865,8.0514,8.1415,8.1677,8.0117,7.9918,7.9357,7.7802,7.7478,7.7334,7.7065,7.6549,7.6051,7.5668,7.4852,7.3924,7.2818,7.0878,6.9258,6.8118,6.8083,6.8083,6.8083,6.8083,6.8083,6.8083,6.7925,6.7859,6.7799,6.7715,6.7883,6.8336,6.9151,6.9933,7.0644,7.1097,7.1289,7.1289,7.1289,7.1289,7.1424,7.2732,7.2969,7.2868,7.4153,7.4728,7.4897,7.4897,7.527,7.5709,7.5709,7.5709,7.5709,7.5709,7.5709,7.5845,7.642,7.6555,7.6893,7.8179,7.8483,7.8754,7.9701,7.9566,7.9363,7.9532,7.96,7.9431,7.8889,7.8822,7.8551,7.7807,7.7232,7.6826,7.6589,7.6048,7.5709,7.5709,7.5709,7.5709,7.5709,7.5709,7.5709,7.5709,7.5709,7.5709,7.5709,7.5709,7.5709,7.5709,7.5709,7.5709,7.5709,7.5709,7.5709,7.5709,7.5709,7.5709,5.9563,6.0309,6.0933,6.108,0.0,0.0,6.4934,6.721,6.9729,7.1358,7.3318,7.518,7.6698,7.8212,7.9226,7.9096,8.0141,8.0617,7.9633,7.9698,7.9327,7.7854,7.7185,7.6751,7.6438,7.5604,7.486,7.4501,7.3584,7.246,7.1061,6.9589,6.8586,6.8118,6.8083,6.8083,6.8083,6.8083,6.8083,6.8083,6.7899,6.7759,6.7658,6.7346,6.7377,6.7713,6.8704,6.935,6.9823,7.0872,7.1289,7.1289,7.1289,7.1289,7.1424,7.2597,7.2766,7.2563,7.3747,7.4356,7.4603,7.4603,7.51,7.5709,7.5709,7.5709,7.5709,7.5709,7.5709,7.5879,7.669,7.6893,7.7367,7.916,7.9566,7.9769,8.0479,8.0648,8.0547,8.0242,8.0209,8.0073,7.9634,7.9566,7.9194,7.8145,7.7638,7.713,7.6487,7.598,7.5709,7.5709,7.5709,7.5709,7.5709,7.5709,7.5709,7.5709,7.5709,7.5709,7.5709,7.5709,7.5709,7.5709,7.5709,7.5709,7.5709,7.5709,7.5709,7.5709,7.5709,7.5709,6.0395,6.0909,0.0,6.0518,6.2058,0.0,6.2767,6.4477,6.6676,6.8106,6.9642,7.1421,7.3666,7.526,7.6514,7.7385,7.8207,7.8913,7.9406,7.9822,7.9747,7.8836,7.7729,7.6875,7.6481,7.5195,7.4274,7.3869,7.2449,7.0929,6.938,6.8532,6.8083,6.8083,6.8083,6.8083,6.8083,6.8083,6.8083,6.8083,6.7879,6.7678,6.751,6.7263,6.7035,6.6893,6.8436,6.9113,6.9214,7.068,7.1289,7.1289,7.1289,7.1289,7.1391,7.2124,7.236,7.2394,7.3105,7.3849,7.4492,7.4492,7.5033,7.5709,7.5709,7.5709,7.5709,7.5709,7.5709,7.5912,7.6792,7.7029,7.7604,7.9904,8.0378,8.0513,8.1257,8.1384,8.108,8.0344,8.0209,8.0209,8.0209,8.0141,7.9634,7.8314,7.7976,7.7367,7.6014,7.5743,7.5709,7.5709,7.5709,7.5709,7.5709,7.5709,7.5709,7.5709,7.5709,7.5709,7.5709,7.5709,7.5709,7.5709,7.5709,7.5709,7.5709,7.5709,7.5709,7.5709,7.5709,7.5709,6.025,6.0335,6.042,6.015,6.0839,0.0,6.1381,6.3134,6.4897,6.5224,6.7041,6.8952,7.0063,7.1552,7.2927,7.3822,7.5184,7.6821,7.884,7.8624,7.8109,7.7586,7.6602,7.5853,7.5494,7.4572,7.3659,7.2847,7.0942,6.9661,6.9311,6.8532,6.8083,6.8083,6.8083,6.8083,6.8083,6.8083,6.8083,6.8083,6.7739,6.7516,6.751,6.7063,6.6833,6.6893,6.8436,6.9113,6.9214,7.068,7.1289,7.1289,7.1289,7.1289,7.1391,7.2124,7.2022,7.1616,7.236,7.3105,7.3713,7.3713,7.4627,7.5709,7.5709,7.5709,7.5709,7.5709,7.5709,7.6014,7.7401,7.7797,7.8483,8.1291,8.1528,8.1291,8.2035,8.1731,8.108,8.0344,8.0209,8.0209,8.0209,7.9701,7.9228,7.8923,7.7874,7.6995,7.669,7.6082,7.5709,7.5709,7.5709,7.5709,7.5709,7.5709,7.5709,7.5709,7.5709,7.5709,7.5709,7.5709,7.5709,7.5709,7.5709,7.5709,7.5709,7.5709,7.5709,7.5709,7.5709,7.5709,6.1433,6.1396,6.1248,6.0744,6.1113,0.0,0.0,6.1992,6.3161,6.3465,6.4685,6.598,6.6884,6.8134,6.9401,7.0438,7.1604,7.3261,7.5766,7.7,7.7651,7.7666,7.6572,7.5546,7.4801,7.3725,7.2455,7.1007,6.9906,6.9138,6.8724,6.8325,6.8083,6.8083,6.8083,6.8083,6.8083,6.8083,6.8044,6.7959,6.7638,6.7448,6.7346,6.6959,6.6994,6.7421,6.8605,6.9316,6.9722,7.0838,7.1289,7.1289,7.1289,7.1289,7.1323,7.1718,7.1616,7.1357,7.1718,7.2326,7.3003,7.3398,7.4255,7.5236,7.5574,7.5709,7.5709,7.5709,7.5709,7.6048,7.7594,7.8,7.8677,8.1224,8.1562,8.1418,8.1765,8.1562,8.108,8.0344,8.0209,8.0073,7.9735,7.9363,7.8855,7.8111,7.7367,7.6758,7.6352,7.5946,7.5709,7.5709,7.5709,7.5709,7.5709,7.5709,7.5709,7.5709,7.5709,7.5709,7.5709,7.5709,7.5709,7.5709,7.5709,7.5709,7.5709,7.5709,7.5709,7.5709,7.5709,7.5709,6.264,6.2539,6.2341,6.1517,6.1646,6.1761,0.0,0.0,0.0,6.203,6.2419,6.2942,6.3964,6.4854,6.5878,6.7171,6.8054,6.9439,7.1826,7.421,7.6113,7.72,7.6117,7.4884,7.3883,7.2543,7.1012,6.94,6.9173,6.8793,6.8118,6.8083,6.8083,6.8083,6.8083,6.8083,6.8083,6.8083,6.8019,6.7799,6.7577,6.7407,6.718,6.6896,6.7218,6.7929,6.8741,6.9519,7.0263,7.1007,7.1289,7.1289,7.1289,7.1289,7.1289,7.1289,7.1289,7.1289,7.1289,7.1785,7.2496,7.3071,7.3883,7.4739,7.5473,7.5709,7.5709,7.5709,7.5709,7.6048,7.7594,7.7899,7.8348,8.0572,8.0953,8.0919,8.108,8.1114,8.0885,8.031,8.0209,7.9972,7.9228,7.8966,7.845,7.7096,7.6758,7.642,7.5777,7.5709,7.5709,7.5709,7.5709,7.5709,7.5709,7.5709,7.5709,7.5709,7.5709,7.5709,7.5709,7.5845,7.5912,7.5912,7.6082,7.6149,7.6149,7.598,7.5845,7.5709,7.5709,7.5709,6.2707,6.2318,6.2172,6.1814,6.1472,6.1146,6.0841,0.0,6.0266,6.0142,0.0,6.0268,6.127,0.0,0.0,6.4089,6.5138,6.6403,6.824,6.8939,7.0541,7.4065,7.3384,7.2447,7.2034,7.0702,6.9743,6.9331,6.8655,6.8187,6.8083,6.8083,6.8083,6.8083,6.8083,6.8083,6.8083,6.8083,6.8019,6.7799,6.7577,6.7407,6.718,6.6896,6.7218,6.7929,6.8741,6.9519,7.0263,7.1007,7.1289,7.1289,7.1289,7.1289,7.1289,7.1289,7.1289,7.1289,7.1289,7.1785,7.2428,7.2496,7.3477,7.4739,7.5473,7.5709,7.5709,7.5709,7.5709,7.6048,7.7594,7.7502,7.757,7.9803,7.9837,7.9532,8.0175,8.031,8.031,8.0209,8.0209,7.9972,7.9228,7.8551,7.7841,7.7029,7.6284,7.5811,7.5709,7.5709,7.5709,7.5709,7.5709,7.5709,7.5709,7.5709,7.5709,7.5709,7.5709,7.5709,7.5709,7.6386,7.6758,7.6758,7.7401,7.7764,7.7764,7.7063,7.6386,7.5709,7.5709,7.5709,6.326,6.3103,6.2956,6.279,6.2306,6.1718,6.0949,6.0372,5.9846,5.9568,0.0,0.0,0.0,0.0,0.0,0.0,6.2309,6.323,6.4997,6.5413,6.7084,7.1321,7.0664,6.9658,6.9018,6.805,6.7407,6.731,6.7034,6.7014,6.7428,6.7463,6.7669,6.8083,6.8083,6.8083,6.8083,6.8083,6.7959,6.7618,6.7516,6.7291,6.6938,6.6854,6.7455,6.8605,6.8944,6.9755,7.0872,7.1154,7.1289,7.1289,7.1289,7.1289,7.1289,7.1289,7.1289,7.1289,7.1289,7.1492,7.1853,7.2259,7.3409,7.4661,7.4965,7.5371,7.5709,7.5709,7.5709,7.5946,7.7063,7.713,7.7232,7.8585,7.8686,7.8551,7.8855,7.9261,7.9566,7.9566,7.9904,7.9972,7.9228,7.8855,7.8247,7.7063,7.6623,7.6217,7.5743,7.5709,7.5709,7.5709,7.5709,7.5709,7.5709,7.5709,7.5709,7.5709,7.5709,7.5912,7.6386,7.6724,7.7096,7.7536,7.7865,7.8,7.8,7.7266,7.6724,7.6386,7.5912,7.5709,6.3727,6.3862,6.3834,6.3657,6.2954,6.2113,6.1406,6.0385,5.9536,5.9408,5.8943,0.0,0.0,0.0,5.8907,5.9806,0.0,6.0634,6.19,6.2087,6.3757,6.8133,6.7851,6.7094,6.6436,6.6102,6.5826,6.5585,6.5792,6.6033,6.6359,6.6773,6.7275,6.7773,6.798,6.8083,6.8083,6.8083,6.7919,6.751,6.751,6.725,6.6791,6.6791,6.7637,6.9113,6.9113,6.9958,7.1289,7.1289,7.1289,7.1289,7.1289,7.1289,7.1289,7.1289,7.1289,7.1289,7.1289,7.1289,7.1424,7.2157,7.3274,7.4356,7.4559,7.5134,7.5709,7.5709,7.5709,7.5879,7.669,7.6724,7.6758,7.7502,7.7705,7.7705,7.7705,7.828,7.8855,7.9034,7.9532,7.9803,7.9464,7.9228,7.8686,7.7401,7.7029,7.669,7.6115,7.5845,7.5709,7.5709,7.5709,7.5777,7.6014,7.6014,7.6115,7.6318,7.6318,7.6589,7.7164,7.7401,7.7739,7.828,7.8483,7.8585,7.8585,7.7638,7.7198,7.7164,7.6183,7.5709,6.4056,6.4184,6.4506,6.4159,6.2937,6.1923,6.2258,6.0647,5.9133,5.9504,5.8843,5.8207,5.8207,0.0,0.0,0.0,5.8753,0.0,0.0,5.8613,5.9953,6.4166,6.4929,6.5033,6.4791,6.5481,6.5585,6.4807,6.5481,6.5585,6.4807,6.6186,6.7014,6.7014,6.7738,6.8083,6.8083,6.8083,6.7919,6.751,6.751,6.725,6.6791,6.6791,6.7637,6.9113,6.9113,6.9958,7.1289,7.1289,7.1289,7.1289,7.1289,7.1289,7.1289,7.1289,7.1289,7.1289,7.1289,7.1289,7.1424,7.2157,7.2902,7.3646,7.439,7.5134,7.5709,7.5709,7.5709,7.5879,7.669,7.6318,7.5946,7.6758,7.6927,7.6927,7.6927,7.7502,7.8247,7.8957,7.9101,7.9363,8.004,7.9566,7.8855,7.8102,7.7367,7.6893,7.686,7.6183,7.5709,7.5709,7.5709,7.6014,7.6792,7.686,7.7164,7.7899,7.7933,7.7967,7.7967,7.8653,7.9058,7.9034,7.9769,8.0141,8.0141,7.8653,7.7967,7.7933,7.642,7.5709,6.5529,6.5559,6.5481,6.5285,6.4025,6.2809,6.2562,6.1165,5.9996,6.0255,5.9575,5.8901,5.8736,0.0,0.0,0.0,0.0,0.0,0.0,5.7037,5.7637,5.9547,6.1569,6.2661,6.248,6.2703,6.2737,6.2461,6.2703,6.3186,6.391,6.4462,6.5447,6.6965,6.7221,6.7601,6.8083,6.8083,6.7919,6.751,6.751,6.725,6.6791,6.6791,6.7637,6.9113,6.9113,6.9958,7.1289,7.1289,7.1289,7.1289,7.1289,7.1289,7.1289,7.1289,7.1289,7.1289,7.1289,7.1289,7.1323,7.1594,7.2496,7.3567,7.3781,7.4728,7.5709,7.5709,7.5709,7.5879,7.669,7.6284,7.5912,7.6724,7.6487,7.6115,7.6115,7.6724,7.7502,7.8213,7.8788,7.9329,8.0073,8.0006,7.9566,7.8855,7.8517,7.801,7.7029,7.6657,7.6284,7.5743,7.6183,7.6589,7.6893,7.7333,7.7739,7.8,7.8,7.8213,7.872,7.8991,7.9329,7.9837,8.0073,8.0209,8.0209,7.9228,7.8247,7.7266,7.6724,7.6217,6.6366,6.6482,6.6403,6.6262,6.4971,6.3669,6.3456,6.2069,6.0912,6.1186,6.0319,5.9457,5.9238,0.0,0.0,0.0,0.0,0.0,0.0,5.5756,5.6098,5.6678,5.903,6.0652,6.0786,6.0874,6.0806,6.0496,6.0737,6.122,6.1944,6.3013,6.4393,6.6117,6.6704,6.7325,6.8083,6.8083,6.7919,6.751,6.751,6.725,6.6791,6.6791,6.7637,6.9113,6.9113,6.9958,7.1289,7.1289,7.1289,7.1289,7.1289,7.1289,7.1289,7.1289,7.1289,7.1289,7.1289,7.1289,7.1323,7.1616,7.2496,7.3567,7.3815,7.4931,7.6115,7.6115,7.6318,7.6589,7.6826,7.669,7.6487,7.6487,7.6284,7.6048,7.5743,7.6318,7.713,7.7865,7.8585,7.9329,8.0073,8.0209,8.004,7.9566,7.9295,7.8686,7.7435,7.7063,7.669,7.6183,7.6589,7.713,7.7638,7.8348,7.8754,7.8754,7.8754,7.8991,7.9464,7.9498,7.9735,8.0175,8.0209,8.0209,8.0209,7.9464,7.8483,7.7266,7.6724,7.6183]}]]